GFSMW_850_rhum_000.txt.gz
RH
38 34 30 28 26 25 24 20 21 21 24 29 37 51 61 65 71 76 78 80 78 82 86 86 83 83 82 81 83 86 89 86 89 99 81 79 72 70 68 64 63 63 65
34 33 30 26 25 24 23 22 22 24 28 34 44 54 63 72 79 77 73 69 66 67 69 72 74 75 76 78 79 84 90 98 95 100 100 98 94 90 83 83 80 76 75
36 36 33 32 30 26 26 26 26 26 28 34 46 61 72 71 62 53 49 51 56 57 55 52 50 50 49 52 58 62 65 93 97 100 99 98 94 99 95 89 78 79 83
42 39 37 33 32 33 33 32 31 32 36 38 38 40 42 41 46 49 50 48 46 46 46 46 44 43 42 40 39 40 42 49 57 64 79 92 98 100 97 96 93 92 86
41 42 39 37 38 38 36 36 35 36 39 38 39 40 42 46 48 44 41 36 34 33 33 34 35 37 38 39 38 36 34 32 35 40 47 54 59 74 94 96 89 85 78
45 44 42 42 41 42 42 42 40 41 42 40 39 38 37 36 33 30 30 30 31 31 32 34 36 38 39 39 38 36 36 37 39 42 46 58 78 79 84 95 98 100 92
46 45 44 44 44 44 46 45 45 45 45 37 32 32 33 33 32 33 33 33 34 34 34 34 33 32 31 30 29 30 32 36 42 49 57 64 74 80 81 76 90 93 86
46 45 45 45 45 45 46 48 47 47 47 42 31 31 34 34 34 34 35 36 36 34 29 25 20 16 12 9 9 13 23 35 45 60 80 85 78 70 66 81 93 99 96
44 46 48 47 46 47 49 51 51 50 44 34 30 32 35 37 39 40 39 36 27 19 11 4 1 0 1 1 2 3 8 23 52 90 93 66 59 63 84 92 81 82 97
45 49 48 48 49 52 53 54 53 48 39 33 35 39 42 44 43 38 30 18 6 1 0 1 2 3 4 4 4 4 5 14 60 58 42 33 41 70 80 49 46 41 82
45 47 49 52 53 55 56 56 50 43 37 37 44 48 48 44 33 20 7 0 1 2 3 4 5 6 6 6 6 5 6 11 23 28 32 49 83 96 69 50 52 34 54
44 48 51 53 56 58 58 53 47 40 39 48 52 52 45 34 15 3 1 2 3 4 4 6 6 7 7 7 7 7 10 15 23 40 64 80 66 59 54 48 46 47 94
48 55 56 58 60 60 56 51 43 39 48 53 54 48 34 13 3 2 3 4 4 5 6 7 7 8 8 8 8 8 10 20 37 74 74 61 51 49 52 48 51 89 99
49 54 61 63 63 61 55 46 44 52 57 59 49 31 14 5 3 4 4 5 6 7 7 8 9 9 9 9 9 10 13 21 45 69 57 46 49 60 66 72 79 94 98
56 58 63 65 64 60 50 47 57 65 67 52 33 16 9 4 5 6 6 6 7 8 9 10 10 10 10 10 12 15 20 34 49 51 41 43 48 73 80 87 86 88 91
57 61 66 65 65 57 49 61 66 68 60 43 29 12 8 7 7 7 7 8 9 10 11 12 12 11 11 11 14 31 64 60 63 62 66 62 70 83 89 88 86 84 84
52 59 65 69 64 53 63 68 73 66 57 51 28 13 8 7 8 8 9 10 11 13 14 14 13 12 13 15 19 42 74 76 75 75 70 71 82 97 91 90 88 89 91
54 59 66 68 58 62 69 74 71 65 53 33 18 8 8 9 10 10 11 12 14 16 16 15 14 15 14 19 30 83 87 86 80 75 76 91 95 81 91 92 95 95 69
55 60 69 64 60 67 72 76 73 53 32 17 9 8 10 11 12 11 14 16 18 18 18 17 16 17 16 28 56 93 90 85 80 75 86 100 88 91 93 96 96 91 86
60 68 68 62 66 73 84 78 64 48 19 11 10 11 12 12 13 16 18 20 22 21 19 18 18 20 30 40 94 92 91 92 88 89 95 87 88 87 93 89 95 98 81
70 70 67 70 75 84 77 73 41 20 16 11 11 12 12 15 18 20 22 24 24 23 21 19 20 30 60 78 94 92 89 92 98 97 88 73 92 98 88 84 93 93 87
74 76 76 75 83 80 70 33 20 15 12 12 12 14 16 20 23 25 26 26 26 24 23 25 37 67 94 94 95 93 91 92 96 92 77 90 97 94 87 92 94 94 95
81 80 79 84 82 64 40 18 14 13 12 13 14 18 22 26 27 27 28 28 28 30 35 61 92 100 99 88 83 94 100 98 90 83 93 95 97 85 74 95 96 96 94
85 84 88 84 62 38 19 16 15 14 14 17 20 24 27 29 28 29 30 32 36 53 75 100 100 98 97 92 84 98 96 92 93 94 97 96 79 66 94 92 85 86 100
88 94 85 64 48 22 18 17 16 17 19 21 24 28 30 30 31 31 35 44 59 86 98 96 98 97 96 92 94 94 92 95 97 90 89 80 78 98 100 100 100 86 96
86 82 70 67 24 20 19 18 20 22 23 24 29 31 32 32 33 35 37 54 77 94 93 95 94 92 94 92 94 90 94 96 80 77 84 92 100 100 100 100 100 89 98

GFSMW_850_rhum_003.txt.gz
RH
42 37 30 28 27 25 23 21 20 24 28 31 40 49 57 66 70 75 76 72 66 62 61 63 64 63 62 60 57 55 55 56 67 90 89 93 92 88 84 84 81 82 72
39 36 31 27 24 24 22 20 20 23 26 32 48 61 70 73 71 65 58 50 48 47 44 42 41 41 40 39 38 38 37 38 39 80 83 90 81 84 94 86 82 81 86
40 39 33 30 30 25 24 24 25 26 29 36 49 60 60 56 46 42 43 44 46 44 39 35 32 33 33 33 34 34 36 37 34 34 59 86 78 83 65 81 70 88 93
43 37 34 33 31 31 31 29 30 31 35 38 39 39 40 40 48 49 45 36 32 31 32 33 34 34 33 32 31 31 32 34 39 38 50 42 64 87 80 62 70 68 90
42 40 39 38 37 37 34 35 35 36 38 38 38 37 37 38 36 33 32 32 34 36 37 36 34 29 24 19 16 15 16 22 35 48 67 72 84 88 96 93 80 84 81
45 45 46 44 42 42 42 42 40 41 38 35 32 31 32 32 32 32 35 38 39 39 36 30 23 12 4 0 0 0 0 2 8 25 51 96 100 100 98 95 90 88 81
45 48 48 48 46 48 47 46 44 42 42 38 32 30 32 34 36 39 41 42 42 38 27 12 2 0 0 2 4 4 4 4 5 14 49 88 98 93 89 82 88 91 92
49 49 49 49 50 51 51 49 48 45 41 35 32 33 36 40 44 46 45 38 28 12 2 0 0 3 5 7 8 8 7 6 5 8 18 30 25 33 62 68 85 96 90
51 50 51 52 53 53 53 52 51 46 39 35 34 39 45 49 48 43 36 23 8 2 0 2 4 6 8 9 9 10 10 9 7 8 10 14 17 46 74 79 96 86 96
52 52 53 55 56 55 54 54 51 46 39 35 41 49 50 48 44 35 21 7 0 2 4 5 6 8 9 10 10 11 11 10 10 15 19 33 54 69 70 74 80 87 82
49 53 55 58 57 56 56 54 50 42 37 42 50 51 51 44 32 15 5 3 3 4 6 7 8 9 10 11 12 12 11 11 13 24 48 73 75 52 39 60 63 68 61
49 53 55 58 59 58 57 53 47 40 41 48 53 53 46 36 19 8 4 4 5 7 8 8 9 10 12 14 13 12 11 12 14 36 70 67 53 47 58 62 72 74 81
50 55 60 61 60 59 57 52 45 41 48 57 55 48 40 24 14 10 7 7 7 8 8 10 12 14 16 16 14 12 10 10 15 25 51 51 62 62 72 79 82 88 86
48 57 62 62 63 61 57 50 43 48 58 58 55 48 39 24 17 10 8 8 8 9 10 13 16 18 19 16 14 11 11 14 21 38 58 66 74 76 82 86 86 88 83
53 59 62 65 65 63 57 48 50 58 61 64 53 43 32 20 11 8 9 9 9 11 15 18 21 21 20 15 12 11 12 22 31 61 69 76 82 88 86 88 90 86 89
54 60 65 66 67 65 56 51 57 66 71 58 44 34 23 12 9 9 9 9 11 16 21 23 23 23 19 14 12 12 39 69 82 78 72 80 84 88 91 93 89 89 95
52 56 64 72 71 65 55 57 66 73 67 50 38 28 13 10 10 9 9 12 18 22 25 25 25 22 18 16 14 27 76 90 87 87 85 82 90 96 85 88 88 95 87
49 56 67 76 73 62 59 63 73 77 61 48 31 15 11 10 10 10 14 20 24 26 28 28 25 22 20 17 18 45 91 87 86 86 86 91 94 94 90 96 97 84 59
50 58 68 76 71 61 62 72 81 69 53 35 20 12 11 10 11 15 21 25 28 29 30 28 25 22 20 23 34 95 87 83 85 87 92 100 88 86 92 97 92 80 87
52 62 74 76 66 65 70 83 70 57 39 22 13 12 12 13 17 22 26 29 30 32 31 28 25 24 26 33 89 92 88 91 91 97 99 91 83 90 96 95 90 91 82
63 71 76 70 68 72 81 74 56 44 23 14 13 13 15 18 23 27 30 32 33 31 28 27 27 32 47 72 96 92 90 96 95 94 96 81 91 96 97 89 86 93 93
68 73 73 73 74 80 78 58 41 25 17 14 14 16 18 22 27 30 33 34 31 29 29 29 37 57 85 96 95 93 92 93 97 95 83 94 97 93 88 86 92 92 93
79 81 80 79 82 80 60 40 31 18 15 15 17 19 20 26 32 34 34 31 30 31 32 49 84 96 88 92 93 98 100 96 91 85 98 90 74 80 88 91 92 95 95
84 86 84 84 86 66 45 35 19 17 17 18 20 20 27 33 34 34 30 30 32 40 64 95 97 96 85 89 84 97 94 95 96 97 82 72 77 95 94 92 93 98 100
86 88 89 89 66 61 30 21 19 19 20 20 20 30 35 35 33 30 31 35 45 74 95 95 96 94 95 89 93 92 88 96 96 82 80 77 95 91 94 94 97 96 99
85 90 87 74 63 29 23 21 22 22 20 20 33 36 36 34 31 30 28 38 54 90 91 98 96 94 94 94 91 88 94 95 86 86 83 89 97 100 99 100 100 96 99

GFSMW_850_rhum_006.txt.gz
RH
42 37 36 35 33 30 27 28 32 36 42 53 58 67 70 74 72 70 66 57 45 38 36 35 34 31 30 31 33 40 48 54 58 58 58 57 57 59 55 82 79 57 69
47 41 35 32 28 25 24 24 25 30 39 51 59 65 67 67 62 50 41 39 39 35 30 31 33 35 34 34 32 34 39 54 55 58 60 49 51 46 56 48 54 54 56
45 48 38 33 29 27 27 26 26 27 33 42 52 54 51 46 44 44 40 33 32 34 36 37 36 32 27 22 17 19 24 53 49 56 56 54 55 66 58 58 54 58 62
48 52 50 38 32 31 31 30 31 32 35 38 39 40 40 39 37 33 34 36 38 39 38 34 29 20 12 6 3 2 8 38 51 52 52 58 60 66 68 55 59 54 65
50 56 49 36 36 35 34 35 35 35 36 35 34 33 32 32 33 35 39 41 42 36 30 23 15 8 3 2 3 6 8 19 42 46 56 59 60 61 65 69 50 48 48
54 58 42 39 38 38 38 38 38 37 35 34 32 31 32 35 40 44 46 40 35 31 27 18 9 2 3 5 7 9 10 11 12 28 51 60 59 57 51 46 47 49 44
56 59 47 45 43 44 44 42 40 39 38 34 32 34 37 43 46 43 40 38 34 30 20 8 2 4 6 8 9 10 11 19 19 36 55 55 47 46 42 44 59 61 65
54 57 59 49 48 48 47 46 44 40 37 35 35 37 43 47 45 46 41 36 28 13 4 2 4 6 8 9 10 11 15 23 31 24 38 54 47 49 53 64 73 84 80
55 59 60 53 51 52 51 50 46 41 38 36 38 42 48 49 50 42 38 28 14 5 3 4 6 8 9 10 12 16 20 20 35 36 48 50 50 55 59 60 59 59 72
56 60 64 58 56 54 54 52 48 42 39 38 43 48 52 50 44 37 30 18 8 5 5 6 8 9 10 14 18 22 22 30 36 41 45 52 51 58 52 51 47 52 58
56 60 63 62 57 56 56 54 49 44 40 42 48 53 51 45 39 31 22 15 10 7 7 8 9 12 16 20 21 23 27 36 41 44 45 49 52 54 50 50 51 55 58
56 60 66 59 58 58 57 55 50 44 42 46 54 52 48 43 36 29 25 12 8 8 9 10 13 18 22 22 22 28 35 40 43 44 47 49 48 54 54 55 58 63 64
59 63 70 62 61 60 59 56 51 44 44 54 55 53 48 44 39 26 13 9 8 9 11 15 20 23 24 24 25 33 40 44 48 50 53 56 58 58 60 63 66 68 70
59 64 72 68 64 62 59 56 50 45 51 57 59 50 45 42 29 16 10 9 9 10 15 21 24 26 27 26 30 24 45 52 54 58 63 64 65 66 71 72 71 78 84
61 67 72 70 65 63 61 57 50 50 57 63 57 47 45 34 21 10 10 9 10 17 22 26 28 28 28 29 23 22 59 65 64 67 66 67 72 80 81 82 86 85 80
59 66 72 71 67 66 63 57 52 57 65 65 55 50 39 24 12 10 10 12 18 23 27 29 31 30 30 25 22 31 78 74 72 69 69 67 69 70 81 86 92 88 96
55 61 71 73 70 68 65 56 56 64 71 63 53 44 31 14 11 10 13 19 24 27 30 33 34 32 32 28 26 78 86 81 73 70 68 67 66 83 88 80 79 89 94
49 55 66 70 74 72 65 58 62 72 70 58 47 35 15 12 11 13 19 24 27 31 35 39 40 42 44 39 75 90 87 76 71 69 69 70 82 89 77 82 94 97 87
50 55 62 73 77 73 64 62 69 73 62 50 39 17 12 12 14 18 22 26 31 35 41 42 46 48 49 65 87 94 83 73 71 72 73 87 91 78 83 96 97 93 84
50 55 64 76 78 70 65 65 76 68 51 42 22 14 13 15 18 21 26 32 35 40 44 45 48 54 59 72 93 92 83 78 80 80 88 86 78 86 98 90 87 95 78
53 61 72 76 73 68 66 76 72 56 42 27 16 14 16 18 20 27 33 36 40 44 48 48 51 60 73 80 88 93 88 86 90 94 91 80 93 97 81 75 85 91 92
57 65 71 72 70 69 75 75 58 43 31 18 15 16 18 19 28 34 35 33 45 48 46 50 60 71 74 80 87 92 90 94 96 88 88 97 91 81 77 84 88 85 88
60 67 73 74 74 76 78 67 46 34 21 16 18 19 18 31 36 36 33 43 49 49 54 62 69 71 77 79 85 86 91 90 90 87 96 86 80 80 84 86 85 88 87
63 74 80 81 80 80 74 52 42 22 18 18 19 19 33 37 36 38 47 42 51 59 65 73 76 80 81 81 84 88 91 80 89 96 95 77 78 80 87 84 84 87 92
71 79 85 85 83 78 52 44 23 19 19 19 20 34 39 40 40 41 44 55 64 67 88 89 92 92 88 90 93 93 91 95 97 94 80 78 81 89 86 88 89 85 92
80 86 87 88 80 57 47 24 20 20 19 19 34 39 40 42 40 47 53 66 80 92 69 75 100 97 95 93 91 91 94 97 89 87 83 87 93 94 94 95 91 88 100

GFSMW_850_rhum_009.txt.gz
RH
42 47 48 48 51 60 67 68 71 75 79 84 82 78 72 72 70 65 49 38 37 31 29 33 36 36 35 39 36 41 37 34 47 44 48 31 44 36 47 56 48 39 40
39 45 46 46 46 52 48 56 69 82 78 71 74 71 69 63 45 41 40 32 31 34 37 38 35 32 27 27 21 21 15 28 28 46 43 45 42 38 26 36 50 44 57
38 43 46 49 50 34 29 29 32 38 47 52 52 50 47 53 46 36 32 34 38 40 36 31 26 23 19 14 8 16 20 35 35 35 42 42 43 49 50 43 47 48 38
37 42 46 51 48 32 31 31 31 33 42 52 54 56 48 35 32 33 38 43 40 35 32 28 25 20 10 6 6 10 11 22 39 32 35 38 42 50 48 39 42 38 35
40 45 50 56 44 35 34 34 34 35 36 35 33 32 31 32 38 44 42 38 38 37 33 25 19 10 5 5 6 8 9 12 35 36 37 41 46 47 40 40 38 37 36
44 49 56 59 43 39 38 37 35 34 33 33 32 32 36 41 44 42 42 41 37 34 31 24 11 5 5 6 8 9 10 15 34 32 40 39 42 47 43 41 42 45 50
46 52 57 60 56 44 40 38 36 36 35 34 35 36 40 43 44 46 46 41 38 35 33 19 7 5 6 8 9 10 14 25 35 32 39 34 40 46 45 44 48 53 59
46 52 55 60 66 51 44 41 40 37 36 36 37 39 43 46 48 49 46 40 38 33 22 11 6 6 8 9 12 16 27 32 30 32 36 37 45 43 47 48 55 61 58
46 49 56 62 66 57 51 46 42 39 37 38 40 44 46 50 50 46 44 41 35 28 18 9 7 8 10 13 18 24 27 30 30 32 36 40 42 44 47 52 56 54 55
46 50 56 61 63 61 51 49 46 42 39 39 43 47 51 50 48 48 45 39 32 25 13 8 8 9 11 19 26 27 29 32 32 36 38 41 43 44 48 49 51 53 55
46 51 55 61 63 58 52 52 50 45 41 42 46 50 51 51 51 48 42 34 23 16 10 8 8 10 18 26 29 30 31 33 35 38 41 44 46 48 50 53 55 56 59
46 50 54 64 64 60 57 55 54 49 44 44 48 52 53 53 50 45 37 24 16 11 9 8 10 20 26 29 32 34 34 33 38 42 45 48 51 54 59 60 61 64 66
46 50 56 64 62 62 59 58 56 51 45 45 51 53 55 51 47 40 28 18 11 9 8 12 21 26 30 33 36 36 34 40 48 50 54 56 58 62 63 66 71 72 77
48 50 57 61 58 59 58 56 55 51 46 49 53 58 54 52 45 33 20 12 10 8 12 20 26 32 38 40 39 35 38 52 59 64 63 63 64 64 68 72 80 85 87
48 50 58 59 58 57 56 53 52 51 48 53 59 60 55 48 36 22 13 9 8 13 21 28 35 41 40 40 39 44 59 65 74 72 68 64 64 67 70 71 88 90 93
46 52 59 60 59 58 56 55 55 51 53 59 64 60 52 40 23 13 10 9 13 21 30 39 43 42 42 43 54 66 77 83 82 76 68 65 64 62 67 80 80 87 92
45 54 60 64 62 59 58 58 56 53 58 66 64 53 45 30 16 11 10 15 24 32 39 42 43 43 42 48 58 72 89 90 79 72 67 66 67 70 74 80 82 87 95
53 59 64 68 66 62 61 56 56 57 65 67 55 47 33 20 13 12 16 23 32 37 40 40 42 43 45 49 62 79 90 84 76 70 70 72 77 76 83 94 96 93 90
56 65 70 71 69 67 66 62 59 63 68 57 47 34 24 15 13 15 19 24 35 38 38 39 43 44 44 52 67 88 88 83 79 78 81 84 91 82 96 96 96 82 75
52 59 66 67 72 70 68 62 60 67 64 52 41 30 18 14 16 17 22 35 39 37 41 43 43 42 47 59 76 84 87 87 87 87 90 84 82 96 94 93 84 88 90
47 54 64 71 68 70 66 55 64 69 56 46 39 22 15 17 17 24 35 36 35 39 44 42 42 46 57 66 73 82 88 91 96 92 89 85 87 97 86 78 85 92 94
52 62 69 68 68 68 64 67 71 63 50 49 27 17 17 17 24 35 37 34 44 47 43 44 47 57 62 68 75 81 87 87 96 96 89 95 99 82 77 80 81 85 90
55 64 66 67 68 68 71 75 74 59 56 27 18 18 15 23 36 39 40 46 48 47 49 54 60 70 76 79 80 86 87 90 91 92 95 100 80 78 81 82 85 86 87
59 66 70 71 72 76 78 80 65 64 30 18 19 16 21 34 40 46 49 48 50 56 62 70 84 90 89 90 86 90 96 88 91 97 97 83 79 81 84 87 88 91 93
65 68 75 73 72 81 82 71 64 30 19 19 15 21 36 42 48 50 48 52 56 67 82 88 94 97 96 92 90 93 93 95 96 94 91 85 87 90 92 91 92 92 99
72 76 79 81 82 85 72 64 28 20 18 16 21 36 43 49 51 50 50 53 62 68 74 83 89 90 92 92 92 90 91 95 88 92 91 90 97 98 95 97 96 96 100

GFSMW_850_rhum_012.txt.gz
RH
42 46 50 56 65 69 68 67 68 76 82 90 93 93 85 73 70 61 41 35 30 32 36 37 34 31 27 26 23 19 16 14 12 17 14 20 20 24 35 18 18 18 31
44 47 47 52 62 72 75 77 79 83 88 85 78 67 67 60 44 38 31 32 36 38 37 34 33 30 28 24 16 12 9 11 12 25 18 32 26 27 17 40 23 47 48
43 46 46 48 54 52 53 64 68 65 69 65 63 60 46 42 35 32 35 39 40 37 37 34 30 27 22 16 9 9 9 10 11 12 27 39 37 38 34 28 36 29 22
40 45 49 51 46 44 42 45 51 52 54 52 49 44 38 33 34 38 41 40 39 38 38 34 29 24 15 10 8 8 9 10 11 12 14 18 32 44 45 34 28 31 25
40 45 51 51 47 46 42 41 41 45 52 52 46 34 32 35 42 41 42 42 42 44 40 37 32 26 16 10 8 9 10 10 12 20 24 23 33 25 39 49 40 42 39
41 47 54 55 50 47 41 38 36 36 35 33 33 33 36 41 42 44 44 44 44 43 43 38 32 20 12 10 9 9 9 11 15 20 24 29 41 37 44 50 45 48 47
44 52 58 58 51 46 42 38 35 34 34 33 35 38 41 42 44 46 47 46 46 46 44 38 30 20 12 9 9 9 10 15 21 26 25 28 31 32 46 48 49 53 52
47 54 60 59 51 46 44 39 37 35 35 36 38 40 42 44 47 48 47 48 48 45 42 34 25 15 10 9 9 11 16 22 25 26 26 29 32 39 43 44 52 53 56
49 54 59 61 57 52 48 42 39 37 36 38 40 42 44 47 48 49 50 49 47 42 34 24 17 12 10 9 14 20 23 24 24 26 30 31 34 39 45 46 47 54 60
49 53 58 64 62 57 53 47 42 39 38 39 41 43 46 49 50 52 51 49 44 36 26 19 14 10 8 13 20 24 24 25 27 30 29 31 40 45 47 50 53 56 61
49 52 58 63 64 60 56 52 47 43 41 41 42 45 48 50 53 52 51 48 39 28 19 14 11 7 11 18 23 25 27 31 33 30 29 41 46 52 55 57 61 64 67
48 52 58 62 62 59 58 54 52 48 44 43 44 46 50 53 54 53 50 42 32 21 15 9 7 11 17 23 26 31 34 36 33 32 36 42 57 64 63 65 66 68 67
47 52 57 62 62 61 60 57 55 52 48 45 45 48 52 55 56 53 46 36 24 15 9 8 12 17 23 27 32 36 39 37 37 42 46 57 65 69 68 66 67 70 80
47 51 57 62 62 62 60 58 57 54 50 46 47 50 56 58 56 51 40 26 15 9 9 13 16 24 29 36 37 42 46 54 62 59 55 69 75 71 68 69 73 78 90
47 50 56 62 60 60 59 57 55 54 50 47 50 56 61 58 56 46 30 16 10 11 14 17 25 30 36 40 48 53 59 65 69 59 70 80 76 73 72 72 78 86 83
47 49 56 60 59 58 57 55 53 53 50 49 55 62 62 59 50 36 19 12 13 13 17 27 33 36 39 44 53 60 64 70 73 72 83 77 73 73 76 78 79 86 98
47 50 56 60 58 57 56 54 54 54 51 54 62 64 60 53 42 22 13 14 13 18 28 31 31 36 39 43 54 60 67 76 77 85 80 81 79 76 76 80 98 96 97
46 52 58 62 60 59 58 56 56 54 54 62 66 61 54 43 26 15 14 13 18 30 33 30 33 37 35 45 53 62 74 81 84 77 82 86 87 87 92 97 98 95 90
52 56 61 65 64 61 60 59 55 55 61 66 61 52 41 28 18 14 13 18 32 34 30 31 29 29 36 42 57 72 76 80 82 91 95 95 88 88 89 96 96 95 89
64 67 69 68 65 63 63 62 59 60 65 64 52 49 34 18 15 12 17 33 36 32 31 26 27 35 42 48 66 73 78 84 94 98 96 95 86 86 96 95 95 96 78
61 63 64 64 67 68 66 60 58 64 65 54 51 38 19 15 12 18 34 39 37 32 29 28 30 38 51 62 73 81 85 94 96 97 96 95 89 98 94 84 96 85 94
58 62 60 64 66 66 62 60 64 69 60 56 42 20 14 12 20 36 42 38 34 32 31 37 41 52 58 79 89 90 88 91 97 96 92 83 98 87 86 88 84 90 89
55 59 58 62 64 64 63 68 72 66 60 43 20 14 12 22 39 43 42 36 35 38 45 54 62 67 79 81 90 95 93 93 90 88 94 100 90 88 86 89 90 91 84
54 55 58 63 65 68 72 76 70 61 47 21 14 14 24 39 43 42 37 38 42 51 58 70 75 79 82 86 87 97 96 96 96 92 98 96 88 86 92 92 89 91 97
60 63 66 67 68 75 78 76 64 53 22 14 15 23 38 44 44 40 39 42 46 60 70 72 76 80 86 87 86 88 88 94 97 96 93 79 89 99 99 98 96 96 99
67 72 72 70 71 79 81 67 56 22 16 16 21 35 44 46 44 41 38 36 42 56 72 75 79 82 83 84 86 86 89 92 92 94 86 98 100 100 100 100 98 97 98

GFSMW_850_rhum_015.txt.gz
RH
39 39 44 56 59 60 62 64 56 65 74 85 85 87 89 89 93 87 49 32 32 36 36 36 34 31 28 26 24 21 19 18 18 17 20 18 18 20 18 7 6 6 18
41 46 53 67 70 74 75 74 74 78 80 84 87 87 89 84 62 38 32 35 38 38 36 36 35 32 27 23 19 15 14 14 12 15 18 21 16 21 9 21 8 19 28
42 48 54 66 76 78 82 84 83 82 83 84 84 74 66 46 34 33 36 39 38 38 41 41 41 36 28 22 15 13 12 12 13 12 23 33 33 26 29 13 26 15 19
42 45 50 58 70 81 83 82 86 87 81 66 60 51 39 33 33 38 40 39 41 43 44 46 44 37 28 20 15 12 12 11 12 11 13 22 28 38 46 30 14 26 20
39 45 46 50 56 62 75 77 69 67 60 49 40 36 33 34 39 40 40 42 44 46 47 46 42 34 28 21 17 14 12 11 11 14 17 18 18 21 46 48 41 40 35
45 48 48 49 54 57 57 54 49 51 51 49 44 33 34 39 40 42 44 45 46 47 48 45 38 31 24 18 14 13 11 10 12 18 20 25 28 30 33 38 45 52 48
48 52 51 54 54 52 50 49 49 50 51 43 34 35 40 41 43 45 46 46 48 49 47 43 35 28 20 15 14 12 9 12 18 20 20 23 24 30 32 42 48 48 53
50 51 51 53 53 47 42 40 39 36 36 35 36 40 42 44 46 47 48 49 50 48 46 39 31 23 16 13 10 9 14 20 21 22 22 26 27 27 29 41 48 56 53
52 51 54 52 51 46 41 37 36 35 35 36 39 41 43 46 47 48 50 51 50 48 42 33 27 19 13 8 11 16 21 23 23 23 24 26 27 25 31 46 50 56 69
53 54 54 53 51 46 43 40 38 36 37 38 41 43 45 47 48 50 52 52 51 46 38 30 21 11 8 13 18 22 24 25 24 26 29 32 32 28 32 60 64 63 66
52 55 56 56 54 51 47 44 42 39 38 40 41 44 46 47 50 53 54 54 50 41 29 18 10 9 14 18 23 25 26 27 27 32 37 38 37 37 56 62 70 70 71
53 54 58 61 61 56 52 49 47 43 41 41 43 45 46 49 53 56 57 54 45 30 17 10 10 13 17 23 25 26 27 32 42 46 48 48 45 59 70 73 73 72 71
52 55 61 65 63 60 58 55 53 50 45 44 44 45 47 52 57 59 58 48 35 21 12 11 13 20 25 25 22 28 42 49 52 58 60 60 61 72 78 80 77 76 82
52 57 63 64 63 62 59 58 56 53 50 46 45 46 50 56 60 60 53 41 26 14 12 13 22 27 25 23 26 41 49 56 60 62 65 61 65 85 88 80 80 88 85
54 56 60 62 62 62 61 60 59 56 53 48 46 48 55 61 62 57 51 32 16 12 13 23 29 26 22 24 36 51 61 61 63 65 70 66 75 88 83 83 85 86 94
56 57 58 61 62 61 62 60 58 55 53 48 47 54 62 63 58 55 38 18 13 13 25 30 28 22 21 24 50 62 62 64 67 73 73 73 78 83 85 86 87 91 96
51 53 56 59 60 60 60 59 56 53 51 48 52 61 63 57 53 39 20 13 13 26 32 28 24 22 21 25 53 62 64 70 74 76 79 83 87 93 90 84 94 94 97
49 50 55 58 60 60 59 57 54 53 53 52 60 63 58 53 44 24 14 13 27 34 31 25 23 23 24 30 58 67 73 75 77 82 93 96 96 91 90 94 94 96 90
48 51 55 59 60 59 58 56 56 55 53 59 63 59 55 48 25 14 13 28 36 33 26 25 25 28 32 37 64 77 82 80 87 93 98 100 93 90 84 95 97 95 89
53 56 60 62 61 59 59 59 57 55 59 63 60 55 51 25 13 14 30 39 37 30 29 28 29 33 38 45 82 92 90 92 82 85 86 87 88 85 96 97 97 96 76
61 63 65 65 64 63 61 61 60 60 64 62 56 53 24 13 15 33 41 39 33 30 31 31 31 37 47 58 89 95 92 90 95 87 92 85 90 98 88 88 91 90 95
68 67 65 64 65 66 66 62 59 65 66 60 54 24 14 18 35 42 42 37 35 35 31 31 36 50 64 68 72 94 92 95 96 97 85 89 98 89 89 91 91 90 94
50 56 55 61 63 62 61 60 67 71 63 55 22 14 18 35 43 44 42 37 36 33 32 46 59 68 72 75 73 85 97 92 90 90 100 100 95 92 92 96 98 99 89
51 56 58 59 60 60 61 69 75 65 57 24 14 17 31 41 45 46 41 37 34 31 52 66 71 75 78 81 83 92 93 91 98 93 97 87 85 93 96 89 88 96 97
54 56 58 62 64 68 73 76 69 58 24 16 17 26 36 43 48 46 40 37 31 50 66 73 80 82 85 84 85 88 89 94 96 95 86 77 94 95 93 92 94 98 99
61 64 66 66 68 76 78 73 59 26 18 17 22 30 38 48 50 43 36 25 26 33 42 64 84 86 87 88 89 89 93 94 94 94 92 100 100 100 100 100 97 93 97

GFSMW_850_rhum_018.txt.gz
RH
34 35 34 35 39 43 44 43 42 49 65 79 85 81 81 84 84 90 92 60 33 35 36 35 34 35 34 30 25 22 20 20 20 20 20 17 16 13 20 6 9 5 9
40 37 36 40 48 47 53 52 44 50 72 77 85 84 86 84 89 89 42 34 37 37 37 39 43 43 39 31 24 21 19 17 15 15 19 16 14 17 8 12 8 11 7
37 40 43 51 56 59 71 66 64 68 77 84 88 87 90 91 82 37 34 38 38 39 42 45 46 42 33 28 22 18 16 15 14 14 17 20 27 20 17 10 14 11 10
39 44 54 63 62 67 77 80 80 85 87 88 88 87 85 73 37 34 39 39 40 44 46 47 46 39 32 25 20 16 14 14 13 12 15 20 26 30 31 21 12 15 13
37 44 52 63 72 72 81 83 81 81 83 83 75 69 55 35 34 39 39 40 44 47 48 47 45 36 30 23 17 14 13 12 12 16 18 19 20 24 36 48 37 20 13
47 49 60 70 80 81 84 88 90 88 78 64 52 39 33 34 38 38 41 44 46 48 48 48 42 33 26 20 16 14 12 12 16 20 22 23 24 27 33 37 36 42 40
48 53 60 65 73 81 85 83 79 69 54 45 40 34 34 38 39 42 44 46 48 49 49 46 38 30 23 17 14 11 12 15 18 21 22 22 24 29 30 32 34 42 48
52 53 54 58 60 62 66 61 57 49 51 49 38 35 40 41 43 45 46 48 50 50 48 42 33 26 20 13 9 12 15 19 22 22 20 22 24 28 31 35 40 56 56
56 54 53 55 57 57 55 54 55 52 54 47 36 39 42 43 45 47 48 51 51 51 48 41 31 22 12 10 13 16 20 22 21 18 21 26 30 34 32 30 35 72 82
68 58 57 55 55 54 53 54 51 44 42 40 39 41 43 45 47 48 51 53 53 52 46 34 23 13 11 13 16 22 23 22 20 24 30 35 39 40 31 34 58 71 78
67 58 58 56 52 49 47 45 43 39 39 39 41 43 44 46 47 51 54 55 55 50 38 25 15 12 13 18 24 24 22 25 29 34 41 48 52 50 45 55 70 77 82
62 59 58 56 53 49 46 43 42 40 39 40 41 43 45 46 49 53 57 58 54 43 28 16 13 13 20 25 23 22 24 29 32 41 53 59 60 56 51 61 80 84 82
64 60 61 58 54 50 48 47 45 42 41 41 42 43 45 47 52 57 60 57 50 33 18 13 13 22 26 23 20 22 26 28 40 56 62 63 67 62 64 84 84 92 96
60 61 64 61 56 52 52 53 51 47 44 42 42 44 46 50 57 61 60 54 39 21 14 14 24 28 24 22 20 21 24 36 56 62 64 69 71 73 90 90 91 97 88
64 60 62 64 62 59 58 58 56 53 49 46 44 44 47 54 61 60 55 43 23 14 13 26 30 25 22 20 20 29 51 61 62 65 71 76 74 90 90 92 95 94 96
64 62 60 62 64 63 63 62 59 56 54 52 47 45 52 60 60 55 47 29 16 13 28 32 27 24 22 20 20 54 63 64 72 74 77 75 81 91 93 91 90 90 95
59 60 58 60 63 64 64 63 60 58 55 52 47 49 58 60 54 48 34 16 13 29 34 29 26 24 21 20 24 60 72 75 76 78 78 81 88 89 82 84 92 92 97
56 57 58 61 63 64 64 62 60 56 53 50 49 57 60 55 51 39 17 13 31 37 32 29 27 24 22 23 26 38 72 70 72 78 77 93 83 86 89 96 94 95 87
50 52 54 58 62 64 63 61 57 53 52 51 56 61 56 54 42 16 15 36 39 36 32 30 27 23 24 29 31 86 83 83 77 77 93 89 93 89 93 97 96 98 84
51 52 57 60 62 63 61 57 55 54 53 56 61 58 55 45 17 17 38 42 40 35 33 28 23 26 30 32 44 92 91 88 80 95 88 93 92 94 99 95 98 93 76
54 57 60 61 62 60 57 57 57 55 58 62 59 57 44 16 17 38 43 43 40 35 29 23 21 24 32 47 67 93 91 91 96 95 93 83 97 97 89 90 94 94 96
61 62 62 60 59 59 60 59 58 60 63 62 60 41 16 18 37 43 46 44 38 32 24 20 20 27 40 58 65 94 90 95 92 98 84 93 98 93 94 98 100 99 98
65 66 65 65 62 62 63 63 60 66 67 62 40 17 16 34 42 47 48 42 35 25 20 26 38 50 57 67 78 96 92 88 92 91 99 100 97 87 71 94 100 100 91
62 62 59 61 62 60 58 61 70 71 64 44 18 16 28 39 45 50 46 38 28 22 27 43 61 67 76 81 92 96 83 96 97 96 96 83 74 69 88 78 82 91 100
54 54 54 56 58 58 62 71 73 64 46 19 16 24 34 40 48 50 43 34 24 28 54 61 74 83 88 92 93 90 93 95 95 95 86 72 76 77 82 83 89 94 97
53 55 58 60 62 66 73 75 64 45 20 16 22 29 34 42 52 48 38 25 24 27 31 34 68 77 91 94 95 93 96 97 100 96 82 85 92 96 96 97 97 93 95

GFSMW_850_rhum_021.txt.gz
RH
34 32 33 34 34 36 41 54 64 71 73 84 88 82 80 91 92 93 89 88 87 38 36 36 35 40 41 35 28 27 24 22 22 22 21 18 17 15 14 18 8 7 6
37 33 36 36 35 37 40 45 52 60 66 76 82 81 76 81 87 90 89 81 35 37 37 39 43 43 39 30 28 24 22 19 18 17 19 15 14 15 12 10 10 9 9
38 33 35 38 38 40 41 44 47 50 58 82 82 84 76 78 78 86 81 36 37 38 40 44 45 45 37 29 27 24 20 17 16 14 20 18 21 18 15 12 12 12 10
39 36 37 40 40 46 48 54 53 53 75 88 83 83 73 79 82 77 39 36 38 41 45 46 47 44 36 29 27 23 19 16 14 13 16 21 25 27 27 18 14 14 12
38 36 36 39 45 52 58 67 64 68 88 89 86 86 84 85 82 43 36 39 40 45 47 48 48 44 37 30 26 22 18 14 13 17 20 20 21 23 33 40 25 14 12
39 37 40 50 56 63 75 83 84 90 91 92 91 90 90 83 50 35 39 39 44 47 48 48 48 44 35 28 24 19 12 12 16 20 22 24 27 28 35 40 38 39 26
44 40 47 63 64 67 80 84 86 88 89 90 81 78 68 44 34 38 39 44 46 48 49 49 47 40 31 25 18 11 12 15 18 22 22 22 24 29 32 37 37 44 30
47 42 47 60 65 71 82 88 90 87 86 71 63 49 36 35 40 40 43 46 48 50 50 50 45 35 25 16 11 12 14 18 22 22 20 23 28 35 40 48 47 47 56
54 49 53 64 70 77 82 88 90 88 73 55 45 38 37 41 41 43 45 48 50 52 52 48 38 26 16 13 13 14 19 22 20 19 22 27 34 42 45 43 42 61 90
63 60 62 65 74 80 85 85 80 68 52 51 46 38 41 42 43 46 47 50 53 53 51 43 30 20 14 14 14 21 22 19 18 20 25 31 43 48 49 50 46 55 75
64 70 70 66 64 72 76 70 65 59 59 58 44 41 43 43 45 47 50 53 55 54 48 36 25 17 14 15 22 23 18 18 18 21 37 47 54 54 58 56 57 70 79
83 77 66 62 64 64 64 62 61 58 54 47 43 44 44 44 46 49 53 56 56 51 42 29 20 14 16 24 24 20 18 18 21 34 48 52 57 65 66 62 77 82 83
84 73 63 63 63 63 61 58 55 50 46 43 43 43 44 45 47 51 56 57 54 45 32 21 15 16 26 25 20 19 18 22 34 47 55 60 70 72 72 85 86 92 99
76 67 63 62 60 58 54 51 47 44 42 42 42 42 43 45 49 55 58 56 50 37 23 15 19 29 26 22 20 19 24 32 45 54 64 71 74 74 88 92 94 98 89
76 67 63 61 58 55 52 49 46 44 42 41 41 42 44 47 53 58 57 52 42 28 15 20 31 28 24 22 20 22 31 45 55 67 62 62 67 82 91 91 91 88 95
74 66 63 61 58 55 54 52 50 48 46 44 44 44 44 50 57 57 53 46 32 15 23 34 31 27 24 21 18 21 36 52 55 51 50 59 64 77 91 92 94 93 95
67 63 60 60 59 57 55 56 55 54 51 48 47 45 47 55 58 54 48 36 15 24 36 34 30 27 23 20 20 34 67 48 49 56 62 70 82 79 81 84 98 98 95
62 62 61 62 63 62 61 60 59 56 54 51 48 46 52 58 55 52 37 15 26 38 38 34 30 26 21 21 26 38 48 52 60 67 74 92 85 88 94 96 97 83 81
57 56 56 58 63 66 65 64 60 58 54 51 47 51 58 57 53 34 16 27 40 41 39 34 29 22 20 23 25 34 56 70 78 78 96 97 95 93 96 97 98 94 76
55 55 57 62 65 67 66 64 60 56 51 49 51 58 58 52 38 17 29 41 42 43 38 32 23 21 22 25 27 53 83 86 82 99 90 97 97 95 98 95 97 95 77
56 60 62 62 66 67 66 61 57 52 51 52 59 57 53 42 16 28 41 43 45 43 35 25 19 19 22 24 30 77 92 87 100 85 89 85 95 97 93 94 95 93 96
62 63 63 67 68 66 62 56 54 54 54 60 58 55 40 16 26 40 42 47 46 39 27 20 16 16 20 28 43 94 93 92 87 97 86 89 99 96 97 95 100 100 100
65 66 64 65 62 58 56 58 56 58 61 60 58 37 16 23 36 39 45 48 43 30 21 20 20 22 26 39 59 91 95 91 92 94 95 100 97 78 63 78 100 100 88
63 63 61 59 58 59 60 61 60 63 62 59 39 17 20 33 37 43 49 46 35 24 21 24 26 30 41 53 85 96 88 97 98 95 94 81 68 63 74 76 80 87 97
65 64 63 62 62 60 58 61 67 66 62 41 18 19 28 32 38 48 50 42 28 26 28 31 43 58 67 86 95 93 96 94 94 100 84 67 67 72 80 83 86 88 91
57 57 57 58 58 56 62 70 68 61 38 18 18 25 29 34 46 52 45 32 24 21 24 27 36 48 66 94 97 96 97 100 100 89 74 74 76 85 94 95 93 90 92

GFSMW_850_rhum_024.txt.gz
RH
43 38 37 35 34 34 32 29 32 40 61 78 86 92 85 83 92 94 97 94 88 87 52 36 36 39 40 36 28 23 23 24 24 22 20 17 15 15 19 12 12 17 9
40 40 40 37 33 37 32 31 36 55 71 80 85 86 85 84 92 96 96 90 84 48 36 37 40 43 43 39 33 26 24 25 24 21 18 14 13 12 12 11 10 11 11
46 38 38 38 35 37 34 34 41 66 78 86 89 95 89 89 95 95 92 78 46 36 38 41 44 46 45 43 37 28 26 24 21 14 15 17 18 18 16 14 14 15 13
39 42 40 39 36 34 38 41 44 53 76 88 92 90 85 74 83 76 69 64 38 38 41 45 46 47 47 44 36 29 25 21 15 13 15 19 23 26 26 20 13 13 13
38 37 40 36 38 38 38 46 49 56 58 77 94 91 85 75 69 74 74 42 38 40 45 47 48 48 48 44 35 27 22 15 13 15 17 19 22 22 32 34 20 12 13
42 36 39 37 40 46 47 54 57 59 65 85 95 85 77 72 72 72 53 37 39 44 47 48 49 49 47 40 32 23 15 13 14 17 22 23 24 24 30 38 37 45 29
41 43 40 39 43 49 52 62 65 63 81 96 85 82 81 81 82 74 39 38 41 46 48 49 50 50 45 36 25 17 14 14 16 20 20 19 22 29 35 41 40 44 28
43 45 41 38 42 48 58 69 79 84 95 91 87 90 92 90 69 40 39 41 45 48 50 51 51 49 40 29 20 16 15 17 20 19 18 20 26 30 39 48 53 50 50
43 47 46 44 43 52 64 73 88 93 95 95 95 88 76 53 38 40 41 44 47 50 52 52 51 44 33 24 18 15 18 21 19 17 18 20 25 36 43 49 53 64 76
42 48 52 51 56 61 68 85 92 92 93 88 75 62 44 39 41 41 43 46 50 52 53 53 48 39 28 19 16 19 23 20 17 17 18 22 30 39 46 54 63 67 70
45 46 50 61 68 76 82 91 94 94 88 72 56 44 40 42 42 43 46 49 52 54 54 51 45 32 20 16 21 25 20 18 17 18 22 26 38 45 55 66 74 74 85
58 66 68 69 79 82 90 93 93 89 77 57 49 43 42 43 43 45 48 51 54 55 55 50 38 23 17 22 26 22 20 19 19 22 28 33 43 54 64 74 75 88 84
87 82 81 84 87 86 86 86 83 74 62 58 50 43 43 43 44 47 50 54 56 57 54 43 27 17 21 27 24 22 20 20 22 28 36 44 52 57 64 74 90 91 97
88 87 83 84 86 85 83 78 72 67 63 55 46 44 43 44 45 48 53 56 57 55 46 31 19 23 30 27 25 22 20 20 23 30 34 36 47 56 83 96 96 99 86
90 85 80 76 73 71 68 65 62 57 52 46 44 43 43 44 46 51 55 58 55 47 35 20 25 33 31 28 24 20 20 23 28 30 37 53 59 70 96 96 94 92 91
88 82 75 71 68 65 63 59 55 50 45 43 42 42 42 45 48 53 57 54 48 36 20 28 35 34 32 27 21 18 28 31 35 44 57 65 73 77 92 94 96 96 98
84 77 69 65 64 62 58 53 48 44 42 42 42 42 44 46 51 55 54 48 38 22 30 38 38 36 30 23 18 18 25 36 50 62 69 77 83 75 80 81 98 98 93
82 74 66 64 61 57 54 50 48 46 45 44 44 44 45 50 55 54 49 39 22 30 39 40 39 34 25 18 17 19 25 49 65 70 78 87 81 89 96 95 98 84 78
70 67 65 62 61 58 55 53 52 50 48 47 47 46 49 54 54 50 40 22 31 40 42 42 37 28 19 17 16 19 48 72 79 81 92 90 95 93 96 96 98 94 75
61 65 65 64 63 61 58 57 56 53 51 49 48 48 53 53 50 40 21 31 40 43 43 40 30 20 17 16 20 48 91 93 86 96 87 88 100 95 100 94 97 94 76
64 67 66 64 66 65 63 61 58 54 51 48 49 53 52 50 41 21 33 40 42 44 43 33 21 16 17 20 26 53 95 92 97 86 88 86 97 97 96 97 96 91 96
70 68 66 70 71 68 65 62 56 52 49 49 53 53 53 41 20 31 38 40 44 45 37 24 15 14 17 24 35 68 96 94 91 95 90 94 100 99 97 89 98 100 100
70 71 69 71 70 68 64 60 54 51 51 54 56 56 39 19 28 35 37 44 47 42 26 18 17 18 21 28 37 66 94 93 96 95 99 100 94 63 60 73 98 94 85
70 72 71 70 65 59 56 55 54 53 57 59 58 37 18 24 32 34 39 46 46 29 20 20 23 25 28 36 67 92 86 97 95 96 92 75 66 62 70 76 78 83 90
70 68 66 61 55 54 55 56 58 60 63 59 37 18 22 29 30 36 46 48 33 24 25 27 30 42 45 68 96 94 95 95 95 100 77 66 64 63 77 80 82 87 92
61 60 58 59 58 58 58 61 65 64 59 34 18 21 27 28 32 43 50 37 24 21 23 26 32 36 43 82 98 98 97 100 99 85 70 68 71 75 89 91 91 91 93

GFSMW_850_rhum_027.txt.gz
RH
41 43 42 40 39 38 35 33 32 32 32 36 64 84 91 94 83 94 92 95 98 87 85 82 35 35 38 41 39 35 28 24 22 20 16 14 15 12 18 25 14 10 11
39 37 37 42 42 38 36 34 35 36 35 45 59 81 84 96 93 94 99 99 94 85 60 35 36 39 44 44 43 40 33 27 23 18 15 14 14 13 12 12 12 13 12
40 31 36 36 38 40 37 35 36 37 42 50 75 91 100 98 100 100 100 94 81 66 37 37 39 45 46 46 46 43 36 28 21 16 16 18 24 17 14 14 14 13 11
39 28 29 36 38 37 38 39 38 41 49 68 84 86 82 88 94 95 96 89 74 42 38 39 44 46 48 48 47 44 36 26 19 16 15 15 18 27 31 19 18 14 14
36 32 25 32 36 36 38 39 40 46 55 82 93 95 93 87 90 95 86 65 57 40 40 43 46 48 49 49 48 41 30 22 18 16 15 17 18 18 25 34 21 18 18
36 43 36 32 37 39 40 42 42 48 60 88 99 97 98 84 88 85 75 64 50 40 42 46 48 49 50 50 46 38 28 20 17 16 18 19 20 21 29 44 43 47 33
26 28 37 44 42 41 42 44 47 54 61 83 100 97 96 87 78 68 67 62 43 41 45 48 49 50 51 50 44 34 24 18 17 18 19 17 18 20 24 31 44 54 49
30 32 32 44 43 40 41 45 49 60 67 83 98 98 96 86 77 74 65 46 40 43 47 49 50 52 52 48 39 28 20 18 19 20 17 17 20 22 28 36 50 55 52
33 33 40 44 44 43 42 43 51 63 66 82 94 95 93 88 75 66 45 40 42 46 49 51 52 53 51 44 32 21 18 21 21 18 18 18 20 23 29 38 47 68 68
47 35 44 46 46 49 51 59 64 68 78 86 92 93 91 72 68 48 40 41 45 48 50 52 54 52 47 36 23 19 22 22 20 19 19 20 24 26 32 42 53 62 80
57 44 39 48 51 55 67 74 80 87 93 89 88 90 77 62 43 40 41 44 47 50 52 54 54 49 38 25 20 24 24 22 21 20 21 21 26 28 33 40 48 61 78
68 64 54 55 61 74 86 90 93 96 93 92 89 76 57 42 41 41 44 47 50 52 54 55 51 41 28 21 26 27 25 23 21 19 19 20 24 24 29 38 48 62 80
87 86 81 80 80 87 94 98 97 96 94 81 65 50 43 42 41 43 46 49 52 54 55 52 44 31 23 29 30 28 26 22 20 19 20 24 29 36 43 52 73 86 97
95 94 91 92 95 98 98 99 95 90 77 59 49 44 42 42 43 46 48 51 54 55 53 46 35 25 31 33 32 29 24 19 17 18 27 33 44 51 62 91 98 99 97
97 93 92 95 97 99 98 95 89 78 64 53 47 43 42 43 45 47 50 53 54 53 46 37 26 33 36 35 32 25 19 16 17 20 28 40 53 65 94 96 96 95 95
98 93 89 93 93 92 91 86 78 67 58 51 46 43 43 44 46 49 52 54 52 47 38 27 35 38 38 34 27 18 16 17 22 28 37 52 64 73 99 97 100 98 94
95 90 87 91 89 87 84 78 69 62 52 46 43 42 43 44 47 50 53 51 47 38 28 36 39 40 37 30 19 14 16 21 27 37 54 71 80 80 89 87 100 99 98
90 87 83 82 78 73 69 64 57 50 46 42 41 42 43 46 49 52 51 48 39 29 37 40 41 39 31 20 14 14 16 22 39 54 67 84 86 94 97 98 98 91 91
82 79 77 72 68 64 60 56 49 44 41 41 42 44 46 48 51 52 50 39 28 37 40 41 40 34 22 15 14 15 25 44 58 69 86 90 99 100 95 96 96 97 97
77 72 72 70 65 60 54 48 44 42 42 44 45 46 48 51 53 51 40 28 36 39 40 42 36 22 16 14 14 22 59 72 87 100 98 99 100 98 100 96 96 99 80
75 74 70 66 61 57 52 48 46 45 45 47 47 48 51 52 52 40 27 35 38 40 43 40 26 16 15 16 19 23 91 98 99 98 99 99 100 99 97 98 98 92 97
75 74 71 68 62 58 54 52 49 48 48 48 49 52 54 54 39 25 34 36 39 44 43 29 16 14 14 17 22 40 97 96 96 99 97 97 99 98 97 86 92 100 100
81 78 72 68 63 58 56 56 53 50 49 50 54 57 56 36 24 33 35 38 43 45 30 16 14 14 15 20 31 62 91 96 97 94 98 99 79 61 58 67 84 81 83
77 77 73 70 64 59 57 58 54 49 52 56 58 56 33 22 30 32 35 43 47 32 18 16 16 18 23 30 57 93 87 95 97 95 93 67 61 60 59 74 77 83 89
78 76 72 68 63 56 55 53 52 54 59 61 56 31 21 28 30 32 43 48 34 20 18 20 23 32 41 58 96 96 96 97 94 100 73 63 61 60 72 78 80 84 89
73 70 67 63 54 52 54 55 58 61 65 54 27 21 26 28 31 42 50 37 21 18 20 22 28 30 35 46 94 99 98 100 98 77 66 65 70 69 84 88 87 88 92

GFSMW_850_rhum_030.txt.gz
RH
38 42 44 44 45 35 32 36 34 33 34 47 88 92 85 84 97 91 92 93 87 98 97 87 84 36 35 39 41 42 41 37 30 22 22 16 14 14 19 25 21 17 12
30 32 40 42 45 45 40 37 35 34 34 48 50 92 90 90 98 96 99 100 95 99 89 76 44 36 38 43 44 45 44 40 33 22 24 26 24 26 19 16 14 18 14
27 28 29 37 42 45 45 38 36 34 37 46 72 63 79 96 99 100 99 100 97 94 77 42 36 38 43 45 47 48 46 38 33 22 20 23 25 26 23 17 18 16 20
30 30 28 30 35 42 39 40 39 36 40 42 44 51 68 96 100 100 100 100 97 90 43 38 38 42 45 47 48 48 46 38 28 22 18 16 18 27 26 29 31 31 31
24 26 31 32 33 39 32 37 40 41 42 39 49 67 96 100 100 99 100 99 93 61 40 40 41 45 46 48 49 49 44 38 26 20 17 21 28 35 36 32 28 32 34
27 30 31 38 38 45 36 39 40 42 42 46 60 85 99 98 94 96 98 95 72 47 41 41 44 46 47 49 50 48 44 33 22 18 18 20 29 29 32 32 32 36 37
26 27 34 43 50 50 40 43 43 45 45 55 75 95 100 100 88 88 95 88 59 49 43 43 46 47 49 50 50 47 38 25 19 19 20 19 21 27 36 40 41 41 42
44 32 31 40 50 44 37 46 47 49 50 64 86 98 100 100 92 92 92 68 58 50 43 45 48 49 50 51 49 42 29 21 20 21 20 18 21 27 43 48 52 48 41
52 47 39 44 52 59 46 46 51 56 58 70 91 94 95 100 94 92 82 56 52 44 44 47 49 51 51 50 44 33 22 21 23 21 21 21 24 29 39 50 59 58 54
57 56 47 48 57 69 58 61 67 63 69 81 91 96 90 95 94 76 58 55 43 43 47 49 51 51 51 46 38 25 22 25 24 23 22 23 29 28 41 58 63 63 61
67 64 54 60 73 81 88 74 76 74 75 81 84 96 94 94 85 74 54 42 42 46 49 51 51 51 48 41 28 24 27 27 26 24 23 21 22 29 48 60 63 65 65
78 77 74 77 87 94 94 85 83 80 78 82 91 95 91 96 72 50 41 42 45 48 50 52 52 49 44 32 26 29 30 29 26 24 21 22 36 32 49 62 67 69 74
77 82 90 90 92 94 93 89 86 82 84 90 90 94 93 70 47 40 41 44 48 50 52 52 51 45 34 28 31 32 31 29 24 21 20 25 32 44 66 72 78 82 81
80 84 90 91 93 92 89 90 91 92 91 87 91 85 65 47 40 40 44 48 50 51 52 51 46 36 30 33 34 34 30 26 22 21 24 32 40 70 79 84 85 79 84
81 87 88 87 90 88 87 96 96 94 89 85 77 59 45 40 40 44 47 49 51 52 51 47 38 31 34 36 35 30 27 31 31 29 44 58 63 47 81 95 90 88 89
72 93 87 84 83 91 97 97 95 87 76 68 56 45 41 41 44 47 48 50 51 51 47 39 32 35 38 37 32 23 17 28 37 50 61 70 80 86 95 95 94 96 97
76 90 84 81 81 92 97 94 86 74 69 50 43 42 42 44 46 48 49 50 50 47 39 33 36 38 38 34 25 16 13 31 43 62 71 77 81 91 90 93 95 97 99
81 88 80 80 89 92 89 83 76 65 51 44 45 43 43 45 47 48 50 50 47 39 33 36 38 38 36 27 16 13 18 50 73 77 82 86 88 88 92 92 95 96 88
87 82 78 90 87 87 78 67 56 50 49 45 42 42 44 46 48 50 50 48 38 33 37 38 39 38 28 17 13 13 36 70 76 80 83 87 88 92 93 96 93 85 83
82 76 84 85 83 78 72 63 53 45 42 42 42 43 46 48 51 51 47 36 33 36 38 39 40 31 17 14 14 16 49 75 78 79 80 83 91 92 95 96 92 91 82
77 78 78 73 69 64 58 50 44 41 41 42 44 46 48 51 51 47 34 32 36 36 39 41 32 17 14 15 15 17 51 86 86 83 80 81 88 94 95 97 96 94 98
77 75 70 65 60 55 50 43 41 41 43 45 48 49 51 50 46 32 32 34 35 38 42 34 17 17 18 19 18 23 59 96 91 88 86 89 96 96 96 87 86 100 100
81 76 70 61 53 48 45 47 47 45 47 48 50 52 51 44 30 30 33 33 37 44 35 18 16 20 22 28 27 44 95 93 94 93 95 97 96 70 52 59 78 84 100
78 72 65 58 52 47 46 48 48 49 49 51 53 52 41 28 28 30 31 38 45 35 19 23 27 31 41 58 73 88 90 90 94 96 96 94 66 75 74 84 94 100 100
76 71 64 58 53 48 48 51 49 50 52 55 54 43 26 24 28 30 38 46 37 19 18 21 22 37 55 69 89 96 96 97 97 99 95 87 85 92 92 96 99 100 100
74 68 63 57 51 51 52 50 51 54 60 61 43 24 24 28 30 37 48 38 20 18 19 20 20 22 34 56 97 100 99 100 98 95 92 91 97 99 100 100 98 91 95

GFSMW_850_rhum_033.txt.gz
RH
30 31 34 36 31 31 36 36 37 41 49 59 72 80 84 84 93 100 98 81 81 78 81 88 86 83 40 34 38 42 43 43 41 34 28 27 23 19 33 32 32 30 26
26 26 30 33 36 35 37 38 38 43 50 59 69 80 90 94 100 96 94 91 87 86 90 96 85 80 36 36 42 44 46 46 43 34 29 30 27 30 23 30 23 21 23
23 22 23 27 32 36 37 39 39 44 50 61 76 87 99 98 98 96 100 98 96 94 94 96 84 43 38 42 44 46 47 46 44 36 25 25 28 25 23 25 30 23 28
23 24 23 22 25 32 36 40 41 47 57 67 82 70 51 57 74 93 100 99 98 97 99 91 51 39 41 44 46 47 48 47 43 34 27 19 19 30 29 28 29 29 27
19 21 24 26 25 25 35 42 48 54 69 72 79 66 66 74 74 100 100 100 100 100 96 85 42 40 44 45 46 48 49 48 40 30 22 26 29 33 35 36 31 29 30
19 21 23 24 26 28 30 44 52 63 76 78 61 57 80 77 77 99 100 98 98 96 86 60 41 44 45 46 48 49 50 48 38 26 20 20 26 28 32 32 32 34 31
29 32 27 23 29 30 32 48 59 71 76 66 68 74 94 76 88 92 99 98 98 91 74 45 43 44 46 47 49 50 50 45 30 21 20 22 23 28 33 39 39 42 35
34 40 42 30 28 38 41 48 70 74 74 57 84 91 98 86 99 98 100 98 95 82 51 43 44 45 47 49 50 51 48 38 25 21 22 22 24 29 36 44 49 52 50
43 44 47 43 29 35 50 57 73 75 74 82 89 99 94 98 99 99 94 94 89 55 45 44 45 47 48 50 51 50 43 30 24 24 25 27 30 33 35 38 49 59 61
44 49 50 46 36 38 47 65 72 76 79 88 96 95 98 99 99 95 90 89 65 53 46 45 46 48 50 51 50 46 37 26 26 28 28 29 31 30 31 44 54 57 61
49 52 58 49 43 46 54 68 73 79 83 90 84 88 98 100 99 92 85 88 52 49 45 46 48 50 51 51 48 40 28 28 30 31 33 30 28 33 40 41 49 57 61
51 58 69 63 61 62 69 76 78 80 83 79 74 93 92 99 99 86 91 52 50 46 46 48 50 51 51 49 42 31 30 31 32 32 31 29 38 37 38 51 60 64 67
54 60 69 73 73 78 82 83 80 79 75 72 78 94 89 95 88 79 61 54 45 46 48 49 50 51 50 44 32 31 32 33 33 32 32 32 39 45 53 63 70 76 81
47 69 75 76 75 81 83 81 77 76 74 77 86 89 86 90 85 69 48 45 45 48 49 50 52 51 45 34 32 34 34 33 32 37 42 45 49 57 65 68 83 88 84
52 76 76 78 83 83 81 74 70 71 76 85 87 88 89 75 58 47 45 45 48 49 50 51 51 45 35 32 35 35 31 26 29 32 42 54 60 63 83 92 92 91 87
47 76 81 79 83 81 73 70 73 77 83 85 86 80 64 56 44 42 45 48 56 50 51 50 46 35 33 35 35 33 25 16 23 38 40 51 64 71 81 90 88 90 91
66 78 82 80 79 71 74 73 80 84 82 79 63 60 58 46 54 49 51 49 50 51 50 45 35 34 35 35 34 26 15 14 29 37 58 71 72 80 84 85 87 88 92
84 83 79 78 72 73 76 72 73 75 77 73 62 64 50 47 49 49 48 50 51 49 45 35 33 36 36 35 26 15 14 20 40 62 71 75 78 82 85 88 87 85 87
78 79 74 73 70 72 72 70 70 69 74 82 89 70 65 59 47 48 50 52 49 43 34 34 36 36 35 28 15 14 15 29 58 68 71 75 80 81 88 88 97 98 85
75 73 71 70 71 77 69 75 81 85 80 68 61 52 45 46 48 50 52 49 42 33 34 35 36 38 27 17 15 16 16 54 70 69 74 77 79 85 90 94 94 90 87
80 78 81 83 83 85 94 91 87 81 78 53 43 44 46 49 51 51 48 37 33 33 34 37 38 29 20 18 19 18 24 69 85 85 84 82 84 92 93 94 94 94 98
62 66 67 61 58 57 52 48 46 43 42 42 44 47 50 51 50 46 34 31 32 32 38 40 31 30 40 41 41 33 52 91 94 89 89 90 94 94 94 96 96 100 100
71 65 63 56 49 49 48 44 42 42 43 46 49 50 51 52 45 33 29 30 31 37 41 31 31 35 38 43 58 74 86 92 90 91 94 95 95 96 89 88 98 100 95
69 69 64 54 49 46 44 47 47 46 49 50 50 52 52 42 30 27 28 30 39 42 28 27 29 26 31 50 63 48 67 90 88 92 89 94 93 84 86 86 87 92 96
62 58 55 52 47 44 47 48 48 49 50 52 54 52 40 27 26 28 31 42 43 26 17 18 19 20 26 36 33 58 88 93 96 98 85 75 82 84 87 90 90 91 94
64 59 54 50 46 46 48 49 49 50 55 58 54 38 25 26 29 34 44 44 25 17 18 21 19 18 21 31 37 79 99 99 100 89 82 87 91 92 91 95 92 89 94

GFSMW_850_rhum_036.txt.gz
RH
30 30 29 30 26 26 28 34 36 37 39 60 73 81 82 80 77 80 80 88 87 77 76 75 76 82 80 68 34 38 42 43 44 42 36 25 25 24 21 18 24 24 28
28 28 28 30 32 32 29 27 36 38 38 41 56 72 81 74 75 85 92 92 94 80 78 82 84 84 80 47 34 42 44 45 46 44 35 27 28 29 28 24 25 25 22
26 27 27 26 29 32 34 33 32 37 40 40 51 71 82 78 81 82 91 92 97 86 87 91 90 88 80 37 38 44 45 46 47 46 37 25 27 24 21 23 25 25 26
25 25 26 25 24 27 32 33 36 37 37 42 56 72 80 74 79 84 97 98 100 94 97 97 95 90 67 36 42 45 46 47 48 47 40 26 21 18 19 22 25 24 28
19 20 22 22 23 24 27 30 34 39 39 45 58 74 78 72 67 84 99 98 100 99 98 100 99 82 45 42 45 46 47 49 49 47 37 26 21 22 28 29 24 24 23
20 20 21 22 24 24 23 28 36 37 41 52 64 79 71 61 70 85 100 100 99 100 100 98 91 64 59 43 45 47 48 50 50 46 34 24 21 23 27 30 24 25 22
21 27 32 36 35 26 25 24 28 42 42 60 75 86 76 74 61 64 70 97 99 100 97 91 78 66 41 45 46 48 49 50 50 44 30 22 22 24 27 30 30 32 24
25 36 41 44 46 39 26 28 28 49 52 66 83 84 91 76 60 63 74 99 95 98 91 89 68 43 44 45 47 48 50 51 48 38 27 24 24 26 27 31 38 39 35
36 43 44 49 48 46 29 31 33 55 64 78 81 91 88 77 76 71 97 99 96 97 92 75 48 44 45 47 48 50 51 51 43 32 26 26 26 27 28 31 35 48 62
43 44 49 48 44 47 34 36 42 52 71 83 87 92 91 90 86 85 99 99 100 92 82 58 44 46 47 49 50 51 51 46 35 28 27 28 29 29 28 28 29 37 52
46 48 53 52 48 47 39 39 49 66 77 85 92 94 96 99 90 92 98 99 97 85 58 46 46 47 48 50 51 51 48 38 30 28 30 30 31 29 26 26 27 34 51
40 49 56 59 54 60 51 49 56 71 81 89 94 96 98 93 95 96 96 88 80 58 49 46 46 48 50 51 51 49 42 32 29 31 31 31 30 26 26 29 37 55 63
36 50 60 61 63 72 65 63 68 76 84 89 95 96 90 95 89 88 78 65 66 68 48 46 48 49 51 51 50 42 32 31 31 32 32 30 29 26 32 44 55 58 62
35 53 63 67 72 76 81 80 84 86 87 90 86 82 91 91 89 77 70 77 72 52 51 50 49 51 50 49 43 33 31 32 31 29 27 28 33 44 56 61 68 82 87
36 55 68 74 75 79 93 86 83 80 79 76 74 88 90 88 81 80 62 55 50 53 50 53 51 53 53 44 33 32 32 31 27 20 19 30 44 54 72 82 83 90 92
43 62 72 76 80 91 84 79 77 75 73 72 79 76 79 80 70 59 59 74 64 56 51 54 56 53 46 33 32 32 32 26 17 15 22 33 43 51 74 83 88 88 92
74 77 72 76 89 76 72 73 71 69 69 68 62 67 73 69 70 73 68 56 51 59 56 50 51 43 33 31 33 33 25 16 16 19 32 47 58 62 73 81 88 90 90
80 78 81 80 82 76 74 72 65 59 58 56 60 64 62 65 78 65 63 80 63 50 52 51 38 36 31 32 34 25 16 16 17 26 48 65 68 75 83 85 91 88 81
82 83 81 81 76 72 66 65 58 57 57 54 54 61 82 89 87 86 60 49 52 52 47 57 34 31 33 34 27 16 16 17 17 30 46 58 72 81 86 90 84 86 92
83 79 76 70 66 68 69 71 65 69 82 94 95 96 100 93 61 47 49 50 50 70 46 31 32 34 36 27 19 19 20 18 19 26 42 58 88 90 90 88 96 98 91
66 65 66 67 75 75 77 78 83 94 97 96 94 84 58 46 48 50 51 71 54 31 30 31 36 36 28 24 25 25 27 39 65 78 77 78 92 92 92 92 95 96 96
82 79 82 85 86 88 92 97 97 99 98 91 74 55 47 49 50 56 53 35 29 29 32 38 36 31 33 36 35 53 77 88 89 85 87 88 94 95 94 96 94 97 98
92 98 99 100 100 100 100 97 89 67 50 45 46 48 48 47 51 42 31 28 29 32 40 36 27 25 29 29 40 44 44 35 66 81 91 97 97 94 90 79 95 98 87
51 48 50 51 52 53 50 45 44 44 45 47 47 48 53 51 37 27 27 27 33 42 33 20 18 20 20 20 21 21 28 46 64 81 95 89 73 72 83 69 71 83 87
49 50 50 48 47 45 43 44 45 47 49 51 53 53 47 32 25 26 28 36 42 29 18 19 21 20 15 15 31 68 79 87 98 98 86 65 62 66 66 72 81 84 87
54 53 48 46 47 47 45 46 47 50 54 57 55 44 28 24 25 28 40 43 26 19 20 22 18 13 20 30 48 59 96 99 100 96 80 72 74 76 78 88 88 86 89

GFSMW_850_rhum_039.txt.gz
RH
31 31 29 28 26 25 25 25 31 43 55 62 65 72 83 82 79 76 81 81 83 83 79 81 75 76 77 77 78 35 36 41 42 43 41 32 28 25 24 21 22 22 23
28 29 29 30 30 30 27 24 27 35 44 61 62 58 60 73 75 74 78 78 82 84 81 81 75 78 83 79 75 34 39 42 44 44 43 34 32 29 25 24 22 23 25
26 26 27 28 29 29 30 31 30 30 42 46 57 56 62 71 76 75 77 81 80 83 80 83 78 82 87 81 67 34 40 44 45 45 44 36 28 26 23 22 26 27 26
25 25 24 25 26 27 27 28 30 33 33 40 45 49 58 65 75 64 72 80 85 84 91 94 83 87 90 80 56 36 41 44 46 47 46 44 35 27 20 21 21 24 25
21 21 21 22 23 23 25 25 28 28 31 38 40 39 46 61 64 65 69 74 72 72 90 99 91 89 90 86 44 39 43 45 47 48 48 44 34 25 21 21 20 19 20
22 23 24 26 26 24 24 24 24 32 30 32 42 42 42 47 63 68 64 63 68 79 96 99 94 93 92 78 44 46 46 46 48 49 48 42 32 24 22 23 22 23 21
20 22 26 29 32 34 37 33 24 24 31 34 36 47 47 51 53 55 57 58 71 89 91 98 97 97 81 64 55 47 47 48 49 50 47 40 28 24 24 25 26 28 25
21 25 31 37 37 31 32 37 39 25 24 38 40 44 51 61 62 61 61 73 75 87 95 96 98 91 77 60 46 46 47 49 50 49 44 34 26 25 27 29 32 33 29
39 39 40 36 21 19 21 41 40 31 26 28 50 48 57 70 65 66 78 97 100 100 99 96 97 80 68 47 46 47 48 50 50 48 40 30 27 27 29 31 32 37 50
44 44 44 40 33 27 25 42 41 32 29 36 57 64 65 68 69 77 86 80 90 100 100 97 89 78 52 46 47 48 50 50 50 44 34 28 29 30 31 30 28 30 41
43 43 40 39 34 27 29 45 38 37 37 51 64 68 74 67 71 88 80 79 100 100 98 93 90 59 53 47 48 49 50 49 43 35 30 30 31 30 29 26 26 29 35
40 41 46 44 34 35 35 59 47 47 47 59 72 78 86 85 86 90 87 98 100 98 94 84 60 48 46 48 50 50 50 45 36 31 30 32 32 30 27 27 29 34 39
32 44 48 43 43 42 41 68 60 56 59 65 76 89 87 90 94 95 92 99 99 96 81 72 53 59 52 52 50 50 49 38 32 31 31 30 28 25 28 32 37 44 57
46 44 53 50 52 58 60 79 68 64 65 79 76 85 84 92 94 94 92 91 95 84 60 49 47 53 61 57 49 48 46 32 31 30 28 23 22 29 36 45 56 74 80
46 49 57 60 65 66 82 88 83 80 86 90 92 88 96 93 88 84 82 75 61 58 53 64 82 73 59 65 50 44 32 31 30 26 19 17 24 38 45 61 78 85 89
77 74 70 72 69 76 92 90 93 95 96 96 94 94 88 76 73 65 60 66 70 70 64 65 76 71 51 42 34 32 35 34 26 18 17 20 26 34 45 64 82 90 90
88 75 79 77 68 72 90 86 83 80 85 87 81 79 76 73 73 65 68 80 73 86 85 84 69 78 41 34 44 34 31 25 18 17 18 20 28 51 65 66 83 89 92
81 82 83 80 80 79 84 83 79 82 79 73 69 68 70 68 65 75 83 90 83 81 87 74 56 47 77 37 33 32 24 18 18 18 16 23 40 51 59 83 94 97 88
90 89 82 80 78 78 80 78 72 69 64 61 61 65 66 84 97 93 89 95 97 90 56 41 53 37 34 33 33 24 19 19 19 16 20 32 41 53 93 94 92 90 94
80 80 76 74 76 77 75 72 63 62 71 88 85 86 90 97 99 99 90 68 47 43 50 37 33 34 35 32 23 20 20 20 22 23 24 32 59 94 94 95 98 98 92
79 78 78 75 73 71 79 67 69 92 93 91 98 100 99 100 77 54 48 47 52 41 33 33 34 36 32 23 21 24 32 47 55 52 35 41 62 96 95 96 99 95 93
78 73 74 77 88 87 96 86 97 100 100 99 97 93 83 82 58 50 82 73 34 31 30 35 37 30 24 26 28 33 49 73 62 39 46 68 98 98 98 93 95 95 98
99 96 94 96 94 99 100 99 100 100 99 94 82 57 50 46 62 59 36 30 29 32 36 37 26 21 23 22 20 19 26 30 44 54 91 100 100 85 54 54 84 73 78
96 94 95 97 98 99 100 100 100 96 62 48 48 58 70 54 40 31 28 28 30 39 32 20 19 20 20 16 17 27 33 43 71 91 100 99 73 54 55 56 72 81 86
76 87 88 92 94 96 84 56 46 45 46 49 52 52 48 36 27 25 26 36 40 26 20 21 21 16 15 21 34 55 75 96 96 100 74 56 50 51 60 79 82 83 86
53 52 51 50 48 45 44 45 46 48 50 53 55 48 32 25 26 32 43 36 22 21 21 18 14 29 39 61 71 96 98 100 99 66 62 59 60 66 86 87 85 84 87

GFSMW_850_rhum_042.txt.gz
RH
31 31 32 30 28 27 26 26 25 28 53 68 66 67 67 73 78 78 79 82 85 86 80 78 81 82 86 77 76 78 65 33 40 42 41 38 31 28 25 23 23 24 24
27 28 28 30 31 30 29 27 26 25 27 48 59 60 58 60 64 70 78 77 80 85 73 78 82 84 87 80 80 78 56 34 41 42 43 38 35 32 28 26 23 23 24
26 22 22 26 27 28 29 31 30 28 26 36 48 58 64 61 65 68 75 76 76 76 66 70 82 83 85 78 80 79 56 35 41 43 43 41 37 34 32 25 23 27 28
24 23 23 24 24 26 27 28 30 30 33 33 57 53 59 63 62 56 63 74 75 77 60 68 80 89 85 80 84 81 46 38 42 44 45 45 44 37 27 27 25 26 27
20 21 21 23 24 25 25 25 26 28 28 35 35 54 58 55 55 54 58 62 69 70 64 59 69 87 93 84 88 84 50 42 44 45 46 47 46 42 34 26 25 23 23
18 20 22 25 24 23 22 24 24 26 26 26 33 35 41 63 57 56 57 60 65 65 66 68 70 87 95 87 89 82 57 45 46 46 47 48 46 41 32 26 24 22 21
22 24 26 27 25 26 27 26 26 25 25 24 26 33 39 38 56 54 53 56 59 65 66 67 82 94 97 91 88 86 49 51 48 48 48 48 45 38 30 25 24 26 24
24 30 31 29 30 29 26 25 23 23 24 24 24 28 33 40 46 55 50 53 52 54 58 67 91 99 95 89 88 70 58 56 48 48 48 48 41 33 27 26 28 29 28
24 35 43 41 35 25 20 19 19 19 25 28 26 26 28 38 39 47 51 55 56 58 63 85 100 97 91 92 86 68 64 48 48 49 49 45 39 31 27 28 29 31 40
41 44 45 41 39 36 32 27 22 21 23 38 34 27 29 43 44 50 56 58 60 66 87 100 99 93 92 92 76 69 51 58 48 48 46 41 33 29 29 29 30 31 34
47 46 44 47 43 34 28 26 22 23 36 35 30 31 32 48 64 60 57 67 67 88 100 100 98 96 91 72 65 63 52 55 48 51 45 36 30 29 29 31 29 27 31
63 66 59 49 44 38 33 32 32 28 38 43 34 39 48 69 79 70 67 74 96 100 100 100 97 90 74 73 68 65 71 45 43 42 34 31 29 29 29 27 25 28 32
75 67 62 52 49 38 36 34 33 38 60 53 55 62 72 81 81 86 93 94 93 94 100 98 85 75 83 72 56 56 58 49 39 42 38 35 30 29 24 24 29 32 39
79 62 61 59 64 49 44 39 38 56 68 72 65 68 76 91 99 97 95 94 95 98 94 84 81 73 65 73 87 71 74 88 89 47 34 31 25 21 24 30 36 50 64
82 78 61 74 66 58 52 54 73 84 89 99 91 87 94 99 98 93 92 95 96 92 89 79 80 80 69 73 86 93 100 74 35 45 44 21 20 24 32 46 54 71 72
89 83 83 78 73 69 64 83 91 89 95 100 98 96 96 98 93 93 92 87 86 82 78 84 80 92 96 98 96 81 36 58 68 24 19 19 21 25 30 42 62 81 89
88 87 85 80 77 81 86 86 91 98 98 98 97 99 94 92 93 88 78 74 77 65 66 83 96 96 96 99 90 61 83 31 23 18 18 19 19 24 34 39 42 64 88
87 89 85 83 82 81 86 90 93 92 96 97 98 96 85 84 74 71 79 86 91 95 99 99 99 91 81 68 74 37 31 22 20 21 20 20 23 22 28 55 89 96 92
92 95 83 81 79 81 87 86 88 95 96 90 77 72 68 68 80 87 98 100 100 98 100 100 96 90 55 36 34 31 23 24 24 22 26 29 18 22 88 94 97 97 92
73 73 74 74 76 82 83 81 73 70 69 68 71 88 95 95 100 99 100 100 100 99 65 50 41 36 36 35 29 26 24 24 27 28 20 16 25 48 94 96 100 96 85
76 79 75 76 80 82 71 70 70 79 94 96 100 100 100 100 100 100 98 88 56 48 47 38 34 36 36 32 32 26 45 56 36 20 16 22 42 98 100 98 96 85 94
78 79 80 81 87 86 76 80 99 100 100 100 100 100 100 99 94 54 47 59 46 38 34 34 37 36 28 25 29 28 26 24 22 24 35 62 96 100 93 59 52 98 96
90 88 92 93 98 99 99 100 100 99 98 99 100 100 92 60 49 81 64 38 34 33 34 38 32 25 24 23 21 17 16 23 35 61 93 100 86 69 53 47 51 67 79
93 95 96 99 98 99 100 98 99 99 100 93 64 51 53 56 49 36 33 33 35 39 36 24 20 22 22 17 15 19 27 45 74 90 87 83 65 54 51 57 78 80 83
93 91 89 92 98 99 100 99 99 80 56 55 61 57 48 40 34 31 30 34 39 31 21 22 21 17 16 21 30 49 72 97 98 95 63 48 45 43 61 75 78 81 84
92 93 93 94 98 97 72 54 49 49 52 51 48 44 36 30 28 28 36 39 25 21 21 18 12 17 26 52 44 47 93 73 82 58 54 49 49 69 81 80 79 83 83

GFSMW_850_rhum_045.txt.gz
RH
32 32 31 31 32 31 27 24 28 28 28 32 64 71 68 68 71 74 73 70 72 77 82 79 67 76 78 82 88 83 78 78 50 37 42 40 37 31 28 26 24 25 25
30 28 29 30 30 32 32 31 26 27 28 28 32 55 66 68 64 66 67 69 74 77 64 81 75 72 77 85 90 87 78 78 44 38 42 41 37 35 32 30 28 26 25
27 23 22 22 22 26 29 30 31 30 29 28 30 47 64 69 67 64 66 72 74 74 66 63 72 75 76 81 85 87 79 78 54 38 42 41 40 36 34 35 28 26 26
23 23 22 23 24 24 22 27 28 28 30 33 33 30 33 51 63 62 63 61 70 65 62 62 59 77 80 81 87 88 81 81 57 39 43 44 43 40 39 34 29 26 28
20 18 19 20 22 22 24 25 26 26 28 28 32 36 46 48 54 56 61 62 60 63 64 62 61 70 84 84 93 94 84 83 65 41 44 44 45 45 43 36 32 29 28
20 20 20 20 20 20 21 22 23 24 26 26 27 29 36 50 59 66 62 63 60 58 61 65 65 63 71 83 96 95 87 84 76 47 46 46 46 46 44 40 34 30 27
23 26 26 30 28 25 23 23 22 23 23 23 25 26 27 38 45 45 54 62 59 57 54 58 63 61 63 83 100 94 88 77 67 65 48 48 54 50 44 38 33 29 27
37 35 38 41 40 35 32 29 27 26 26 26 26 27 27 27 30 38 40 47 59 61 54 55 63 65 61 88 99 93 84 67 78 49 63 62 57 47 42 38 32 28 27
43 45 45 43 43 42 31 30 27 21 20 20 21 22 25 30 27 25 36 41 50 56 61 59 60 61 84 100 97 90 70 67 62 72 54 55 45 43 36 32 29 28 31
59 63 61 57 54 43 45 38 31 28 25 23 22 21 22 30 32 28 30 43 45 55 61 62 61 84 100 100 94 78 65 67 66 64 62 58 44 39 34 30 29 30 32
67 72 73 73 67 56 50 42 31 29 27 26 21 24 34 38 33 32 38 49 63 68 63 73 84 98 100 95 81 70 81 69 64 68 55 49 44 36 31 31 31 30 30
77 72 72 68 64 62 51 47 38 35 32 30 29 36 40 39 46 42 61 81 79 97 92 96 100 100 97 78 77 80 64 67 74 84 82 54 35 33 42 74 51 28 30
77 76 78 63 64 62 59 54 46 38 35 33 48 64 56 52 64 72 96 100 100 100 100 100 100 97 77 82 69 70 76 81 74 65 53 56 76 92 89 38 27 30 34
89 91 84 70 66 69 59 58 53 49 50 55 77 90 93 86 94 100 100 100 100 100 100 100 100 87 82 73 74 81 81 79 84 93 99 93 92 76 29 24 29 33 46
88 82 90 88 70 66 71 64 66 78 84 94 99 98 100 100 99 100 100 100 100 98 100 96 76 74 75 81 81 87 97 99 99 100 94 95 41 22 22 28 43 57 71
80 88 93 89 86 78 73 74 82 87 84 89 100 100 99 100 100 100 99 97 97 93 85 77 77 81 87 92 92 98 100 100 96 98 46 22 20 22 26 30 38 54 79
75 90 88 90 81 80 79 81 85 93 98 98 97 96 94 95 94 92 86 80 82 83 87 90 91 93 98 100 100 100 99 86 34 24 21 20 22 22 22 23 28 46 63
81 97 98 87 82 82 81 86 93 98 98 96 95 98 99 98 99 98 94 91 90 90 91 95 100 98 100 100 99 68 36 30 24 22 24 26 26 23 18 33 66 79 80
79 86 86 82 81 82 89 91 98 100 99 100 100 98 99 94 86 84 86 89 91 98 99 100 100 99 99 84 41 35 31 27 27 30 31 28 23 19 21 52 94 99 86
78 81 82 80 79 84 86 86 84 81 80 80 86 81 82 90 94 100 100 100 100 100 100 99 98 57 39 39 36 31 28 27 28 28 29 23 23 30 85 100 100 92 64
78 83 81 83 85 87 75 70 71 73 73 74 80 91 100 100 100 100 99 100 99 99 86 54 41 40 39 37 32 32 36 32 25 19 17 22 36 83 100 100 83 58 94
83 83 83 81 89 93 72 90 98 97 98 99 100 100 100 100 100 99 97 96 67 45 39 38 37 38 36 32 30 30 26 23 22 24 32 53 85 89 65 45 41 65 82
93 98 96 96 82 90 100 99 99 100 100 100 100 100 99 89 87 83 61 41 37 35 34 38 37 30 25 24 24 20 18 21 34 47 65 68 60 41 37 38 41 58 78
94 99 100 98 98 100 100 100 99 100 100 97 82 59 59 66 60 43 36 35 35 39 38 28 22 23 23 19 17 23 33 43 51 53 47 49 43 44 45 51 80 84 84
90 93 97 99 98 99 100 99 99 90 63 56 58 59 55 43 35 32 33 37 39 33 23 22 22 18 17 23 31 35 48 71 50 57 39 36 41 44 61 80 83 84 85
89 89 95 99 100 100 96 86 64 58 62 60 54 48 39 32 31 32 37 39 28 22 21 18 13 16 22 31 31 34 40 38 41 37 39 45 51 64 81 82 82 87 90

GFSMW_850_rhum_048.txt.gz
RH
32 32 31 31 31 32 30 27 27 28 31 32 33 49 73 65 68 67 66 72 77 77 70 68 63 72 72 65 81 89 90 82 79 77 38 38 40 39 33 29 26 24 24
31 29 28 28 29 30 31 31 31 29 29 30 31 31 33 38 53 64 65 64 70 72 79 73 73 75 71 70 81 85 87 84 79 75 40 41 40 41 36 32 29 30 27
25 22 25 25 24 22 24 29 31 32 32 32 31 31 34 35 45 55 63 62 64 69 70 71 67 70 75 71 75 82 88 88 82 78 43 43 41 39 37 35 32 34 30
23 22 20 20 21 22 23 21 21 28 29 30 33 34 32 34 32 36 44 58 62 60 65 69 65 62 70 78 79 80 85 92 86 81 61 40 41 39 39 38 36 34 31
26 29 26 22 23 23 22 23 24 23 26 29 30 31 34 37 40 40 45 54 62 63 63 63 65 63 63 74 83 85 68 83 94 91 82 48 43 44 43 40 41 38 35
34 31 33 38 37 33 28 25 24 26 27 27 28 29 28 30 34 45 54 51 61 63 61 65 61 60 62 67 76 86 92 92 97 94 78 50 46 45 48 44 47 43 37
39 38 37 39 42 42 41 38 36 32 28 26 26 27 27 28 31 33 38 47 54 57 65 64 64 60 58 63 68 84 96 96 97 90 59 56 55 56 58 50 46 42 36
54 54 51 46 39 39 39 42 33 31 28 28 29 30 31 31 29 30 35 38 45 47 56 62 63 62 60 60 68 88 100 100 96 75 61 55 66 67 57 53 41 37 34
59 66 67 64 55 49 44 44 42 38 28 24 21 21 22 24 27 28 28 32 37 39 41 55 61 66 68 69 73 98 100 99 86 65 62 67 62 70 68 54 45 36 32
65 73 75 71 68 60 54 53 48 46 36 30 28 25 22 22 22 29 33 34 29 37 49 50 62 70 87 97 96 100 100 89 70 62 66 70 71 66 54 56 56 34 32
78 80 77 74 68 61 60 63 59 55 43 38 34 31 28 25 22 32 35 42 40 39 62 84 83 89 97 100 100 100 92 76 65 64 66 75 77 74 57 52 64 56 70
83 83 82 79 68 68 63 62 67 61 51 44 39 36 34 32 42 43 40 45 61 65 74 96 100 100 100 100 100 95 79 66 62 70 77 69 64 82 88 89 95 99 92
81 80 77 79 88 86 79 71 61 60 57 46 42 49 40 58 70 71 63 66 79 98 100 100 99 100 100 99 90 76 68 69 72 74 84 85 76 80 98 100 100 67 33
80 79 82 92 86 83 77 69 59 57 63 75 87 70 78 94 98 99 100 99 100 99 99 100 100 100 98 88 78 70 72 80 87 83 85 92 100 100 100 86 30 32 36
75 82 87 89 88 83 77 71 70 70 76 79 84 95 99 99 98 100 100 99 100 100 100 100 100 98 83 73 76 90 90 90 89 98 99 99 100 93 31 25 27 35 38
78 85 88 90 88 78 80 80 77 84 92 95 96 94 99 100 100 100 100 100 100 100 100 98 91 84 88 92 90 93 94 100 100 100 100 93 27 25 26 25 30 30 27
78 94 96 92 83 82 83 84 90 95 98 98 97 98 100 100 100 100 98 100 100 100 97 90 91 88 87 100 100 100 100 100 99 76 26 23 23 22 23 23 19 15 21
79 84 86 83 83 83 84 90 94 99 98 98 99 96 94 98 97 93 88 86 81 80 81 84 93 98 100 100 100 100 94 52 30 27 25 24 25 25 19 14 26 41 51
80 79 79 78 80 84 86 89 97 99 99 100 100 100 100 99 100 98 100 99 100 100 100 100 100 100 100 99 92 48 33 30 28 28 32 31 22 16 17 53 96 96 79
79 80 82 84 85 88 88 82 80 80 84 96 97 99 98 100 99 100 98 99 99 99 99 100 99 98 72 35 36 36 32 30 31 30 26 20 20 29 91 100 97 93 70
80 86 87 84 86 88 73 76 78 78 80 90 92 93 96 98 99 99 99 99 99 99 97 74 38 35 38 45 37 27 24 25 23 19 20 33 48 92 100 100 86 61 92
84 86 85 85 94 81 80 96 91 94 99 100 99 100 100 99 99 100 99 94 55 39 36 35 35 38 37 34 32 34 27 24 24 33 36 47 81 82 54 44 43 82 74
87 91 91 83 93 98 100 98 97 99 100 100 99 99 99 99 80 52 40 36 35 34 35 39 39 32 26 24 23 23 30 38 36 38 54 63 52 40 39 41 46 62 76
90 91 95 99 99 100 100 99 99 100 100 98 85 70 69 58 45 38 36 34 37 40 35 27 23 23 22 19 20 25 29 36 48 43 44 41 40 42 43 49 73 80 81
87 93 95 98 99 99 100 99 99 97 72 62 62 59 46 38 33 32 34 38 37 28 23 22 20 17 18 28 26 28 40 54 43 44 38 37 37 40 50 73 78 82 85
87 90 94 98 99 100 95 77 69 59 62 59 53 45 37 31 30 33 39 33 24 22 20 13 11 15 20 24 29 35 42 38 38 37 36 36 40 51 75 79 81 85 88

GFSMW_850_rhum_051.txt.gz
RH
33 33 33 32 32 33 33 31 30 29 32 37 42 38 38 46 62 61 60 62 66 72 81 83 70 58 67 74 81 77 89 94 86 78 76 67 37 38 38 36 29 25 24
30 26 23 21 23 25 29 32 32 32 31 31 31 32 34 36 39 51 56 59 60 62 64 72 74 62 58 70 81 78 82 95 94 79 76 53 44 38 40 38 32 29 28
27 25 21 21 24 26 25 26 29 31 32 33 32 33 34 38 37 39 42 46 55 58 63 62 65 68 68 66 73 77 75 88 92 85 74 54 45 40 39 39 36 33 31
35 37 34 28 25 25 25 25 24 24 30 33 34 34 34 40 36 31 30 30 36 52 61 62 63 62 70 78 77 76 72 84 92 88 83 81 73 43 40 39 37 36 33
44 42 41 43 44 40 35 29 26 26 26 26 33 33 32 32 33 35 36 38 38 46 54 63 65 62 65 63 72 81 79 80 88 93 85 85 83 76 64 41 41 39 37
52 48 44 37 37 40 39 38 36 33 28 29 31 35 34 36 38 39 40 41 42 44 56 59 63 65 62 63 63 68 87 83 88 92 94 89 90 88 59 45 42 43 40
57 60 56 48 41 36 36 38 39 35 33 35 32 32 32 33 37 38 41 48 42 42 43 47 51 64 66 66 65 64 79 88 91 96 97 96 98 89 52 50 72 54 46
64 70 71 70 62 51 45 41 37 38 37 34 30 34 38 38 35 31 29 30 34 41 48 50 55 51 60 69 70 68 69 92 93 98 100 94 90 64 58 59 63 61 47
69 70 70 73 70 62 54 51 45 42 38 39 36 31 29 28 28 30 32 32 29 29 33 51 66 69 63 66 66 69 74 100 100 100 98 92 77 62 58 64 58 52 58
76 70 70 72 68 63 56 53 55 56 50 44 43 35 34 32 29 27 23 24 28 30 32 42 60 78 80 84 98 100 100 88 100 100 98 90 73 62 66 71 83 69 56
80 73 75 76 76 77 69 64 64 65 63 58 49 42 37 35 33 30 26 26 30 33 40 44 60 76 86 99 100 99 100 98 100 99 87 67 63 74 77 75 61 71 78
79 73 74 77 82 82 78 74 70 64 59 55 50 48 43 39 35 33 32 38 40 47 63 63 76 95 100 100 100 100 100 100 99 84 68 63 67 80 79 76 80 98 97
77 75 78 83 85 83 78 74 67 63 60 57 54 53 51 46 50 60 74 72 79 84 97 97 99 99 100 100 100 100 100 97 79 69 61 68 82 82 93 100 100 100 98
74 78 84 84 85 77 81 77 70 68 65 58 65 66 68 71 80 96 100 99 99 99 100 99 99 99 100 100 100 99 91 67 66 66 76 86 92 98 100 100 100 98 56
75 82 88 88 88 83 78 73 76 77 75 76 78 88 89 95 100 99 100 99 99 100 100 100 100 100 100 100 94 76 82 79 75 84 96 99 100 100 100 98 47 24 24
76 86 93 92 89 83 81 80 84 88 88 93 96 98 99 100 100 100 100 100 100 100 100 100 100 100 86 83 79 76 78 94 98 99 100 100 100 94 27 25 25 27 29
77 83 87 87 83 83 86 87 87 91 92 92 94 93 97 100 100 100 100 100 98 99 99 93 88 83 90 96 100 100 100 100 100 100 97 66 26 25 26 28 26 22 23
80 80 81 81 81 84 88 90 91 95 95 96 98 99 98 98 99 100 100 100 100 100 98 100 99 99 98 100 99 99 99 99 75 29 28 28 29 30 28 19 16 24 36
79 81 83 82 82 86 88 86 83 83 90 98 98 98 99 100 100 99 99 98 97 99 98 99 99 99 100 99 100 97 44 31 30 31 30 29 25 17 15 35 68 74 70
80 82 84 84 85 88 77 80 79 81 86 93 96 98 99 99 99 99 99 99 99 99 99 99 99 99 98 61 32 32 31 29 30 28 23 18 21 32 87 100 91 71 52
83 84 85 81 87 77 80 83 83 91 94 98 98 98 100 99 99 99 99 100 100 99 99 85 55 34 36 41 30 26 26 26 22 19 23 29 30 66 96 83 58 46 77
85 87 86 87 84 88 97 89 93 99 100 100 99 99 99 99 100 99 100 78 52 36 34 36 38 40 40 35 31 29 23 17 20 31 38 38 34 33 33 32 36 52 55
82 83 86 92 92 92 93 91 96 99 100 100 100 99 99 90 55 38 33 31 34 37 39 39 33 27 25 24 23 26 33 33 31 36 40 47 39 34 34 38 44 64 78
84 85 97 100 98 98 99 98 98 99 99 98 85 68 47 37 33 32 33 36 39 36 28 23 23 22 21 23 32 27 27 32 37 36 37 34 34 36 40 54 77 83 82
89 85 85 99 98 98 99 99 99 89 67 65 57 44 35 31 29 30 35 38 29 23 22 19 16 17 22 32 24 29 35 36 37 35 38 38 38 43 64 79 81 82 82
87 92 95 98 99 99 84 73 71 63 63 57 47 37 30 28 31 39 33 24 22 21 13 11 14 18 22 27 33 36 42 44 41 41 39 38 43 53 73 75 76 81 82

GFSMW_850_rhum_054.txt.gz
RH
32 35 32 32 33 33 33 32 28 26 34 78 46 59 67 54 58 56 52 65 64 66 72 70 79 76 79 80 88 79 84 72 89 88 80 75 73 63 35 36 35 34 27
31 32 26 26 26 26 28 31 33 34 32 49 64 35 53 59 58 50 47 53 55 55 57 59 67 76 80 81 80 78 87 83 88 91 68 61 66 72 49 37 38 37 31
36 45 44 29 23 24 26 26 28 30 33 34 54 82 84 78 48 38 37 39 46 49 58 58 60 61 70 74 63 68 73 92 82 95 77 69 65 57 55 44 39 38 35
46 50 51 52 42 38 32 28 27 27 28 32 34 65 86 88 60 34 31 33 38 41 49 56 57 66 67 61 66 62 62 85 87 89 92 80 56 51 60 61 60 39 38
56 56 55 42 42 41 40 38 34 29 28 27 29 39 84 87 87 87 64 57 43 36 41 42 58 56 62 66 62 66 69 71 87 78 84 90 83 72 77 60 51 60 75
59 62 60 50 46 40 38 38 38 36 34 32 30 30 33 75 91 92 92 82 73 48 43 46 53 60 58 62 67 68 79 79 83 87 84 84 87 83 81 66 64 64 49
62 67 66 62 52 47 43 39 37 37 38 34 35 39 36 43 86 94 97 99 93 63 42 43 47 52 52 55 65 68 66 80 90 92 86 84 91 93 91 84 84 66 53
67 71 72 67 63 56 49 45 43 41 39 38 37 32 31 38 38 37 67 90 94 91 42 46 52 56 64 65 64 61 68 70 78 97 95 92 92 96 96 98 92 61 52
73 73 74 75 72 59 55 50 48 47 48 45 43 40 38 32 31 31 32 32 32 36 46 41 38 49 74 82 78 76 70 74 85 96 96 100 99 98 98 97 61 56 57
73 72 75 80 83 72 69 66 62 60 58 57 57 54 48 40 36 33 32 31 30 31 33 30 35 41 48 76 98 100 100 99 100 100 100 100 99 97 95 77 66 67 71
74 73 76 78 87 78 74 74 71 66 62 59 56 53 49 45 43 39 36 34 34 35 34 34 37 45 60 76 93 100 99 100 100 100 100 99 99 99 92 76 76 61 76
76 71 74 77 86 77 75 74 68 65 62 59 56 54 52 50 47 47 45 38 36 37 43 50 51 62 99 100 98 99 100 100 100 100 100 100 98 91 93 73 77 81 80
70 70 72 78 85 77 80 75 72 69 65 62 60 60 63 57 54 54 55 51 54 65 86 97 99 97 98 99 100 100 100 100 100 100 100 99 96 73 75 84 90 93 98
68 72 81 84 84 78 79 77 72 76 74 68 69 70 76 80 82 81 82 94 97 95 98 98 99 100 100 99 100 100 100 100 100 98 83 71 77 84 90 99 100 100 100
69 74 84 84 88 80 77 73 78 85 81 81 81 83 83 82 90 97 98 100 100 99 99 100 100 100 100 100 100 100 100 96 85 82 84 93 99 100 99 100 100 99 81
69 74 84 85 87 81 82 84 88 88 90 86 83 85 90 96 98 99 100 99 98 99 100 100 100 100 100 99 98 91 90 90 94 96 100 100 100 99 100 98 57 25 28
72 75 81 80 81 85 86 87 89 89 93 94 89 91 93 94 98 99 99 100 100 100 100 99 98 94 96 93 92 92 92 98 99 99 100 100 91 47 29 27 28 27 24
76 79 82 83 83 88 87 85 87 87 94 98 100 98 98 96 97 99 100 100 99 99 99 99 99 99 100 100 100 99 100 100 100 99 96 75 37 28 28 25 18 17 27
78 79 81 82 84 89 83 81 80 84 90 95 93 96 94 92 94 96 97 99 99 99 99 100 100 100 99 99 99 100 95 76 42 32 32 31 26 18 16 36 44 58 82
81 83 84 85 86 81 80 82 83 84 89 96 96 95 92 92 94 96 97 98 99 98 99 99 99 100 98 79 40 35 35 32 29 25 20 19 19 22 37 90 91 85 74
82 85 85 84 85 80 86 83 89 92 96 97 95 95 95 93 97 98 100 100 99 98 93 68 46 42 42 31 28 30 28 23 19 18 23 25 25 39 43 42 59 39 39
83 84 86 87 86 91 87 91 91 99 100 100 96 98 100 100 100 98 88 61 40 34 36 36 33 31 32 30 25 20 16 16 23 26 27 29 27 28 29 31 31 32 32
81 81 83 88 86 86 90 90 92 96 98 99 99 98 96 82 44 34 33 33 36 36 31 28 25 24 23 21 18 20 22 21 27 31 31 31 30 28 29 30 32 46 68
83 84 83 89 95 94 96 94 96 97 98 99 85 57 37 33 31 31 34 36 32 25 22 21 20 17 16 19 27 26 28 31 34 33 33 32 32 33 36 46 64 76 78
83 86 95 96 96 99 99 100 100 94 78 59 46 36 30 29 29 33 35 29 22 21 19 13 13 17 23 28 23 30 45 43 43 34 35 35 35 39 49 70 76 78 79
85 84 94 100 94 84 84 82 72 65 61 49 38 30 27 27 33 36 25 22 20 14 10 12 15 18 21 24 28 33 35 35 34 37 36 35 37 43 67 74 77 81 84

GFSMW_850_rhum_057.txt.gz
RH
22 26 32 34 35 36 37 37 35 35 38 48 65 84 63 35 49 60 81 98 98 100 98 88 86 94 92 92 95 98 95 84 75 70 66 65 74 72 69 51 36 37 36
27 29 32 33 31 31 33 35 37 39 38 35 45 65 64 41 38 49 57 68 84 84 87 85 74 83 88 92 97 97 97 89 79 68 68 69 69 75 72 68 43 36 37
28 37 41 42 39 41 30 27 31 37 41 41 42 51 77 87 90 80 68 62 66 84 99 94 95 89 92 90 93 93 98 89 83 77 71 73 68 62 63 69 65 40 38
40 45 47 51 54 44 34 31 28 27 29 35 40 45 56 72 84 86 91 88 64 48 49 82 100 99 98 100 94 95 96 99 86 78 80 72 67 64 60 61 61 52 42
47 48 55 59 61 42 39 39 43 42 32 29 29 31 39 53 73 83 88 88 91 80 48 45 62 86 94 92 96 100 99 99 96 77 77 83 78 65 62 60 55 50 47
52 56 61 63 64 63 47 40 40 50 52 36 34 32 31 42 63 77 83 87 91 91 93 86 86 73 76 99 72 93 100 94 97 95 84 77 81 82 76 70 71 69 61
54 60 62 64 67 67 61 54 53 56 53 51 40 36 34 36 37 62 77 84 85 84 85 94 98 94 87 99 97 97 100 96 94 100 93 86 83 88 79 81 81 76 70
59 62 64 67 69 73 68 54 54 54 60 60 60 60 59 43 41 44 54 77 84 84 88 86 70 51 59 84 100 100 98 100 96 100 100 98 92 95 95 89 88 84 78
62 62 64 68 72 75 78 67 66 71 74 71 71 74 74 74 57 60 61 64 64 72 80 86 92 80 64 81 92 99 97 99 100 100 100 100 100 99 100 100 100 99 97
62 62 65 68 75 80 78 74 74 76 76 68 73 74 69 55 49 44 41 41 42 46 55 69 92 93 78 78 100 99 99 100 100 100 100 100 98 100 100 100 100 94 99
63 63 64 67 78 79 80 78 70 67 64 61 60 60 56 55 55 54 48 43 41 40 41 43 49 47 50 84 97 99 99 99 100 100 100 100 100 100 100 100 100 100 99
67 62 65 68 76 76 79 79 72 69 65 63 63 63 59 57 58 57 59 58 54 52 47 47 55 66 78 90 98 98 100 100 100 100 100 100 100 100 100 100 98 97 91
63 62 66 69 75 74 79 75 71 69 68 66 68 70 69 70 71 74 75 74 73 75 69 77 83 94 100 100 100 99 100 98 100 100 100 100 100 100 100 96 92 85 88
62 64 73 74 76 78 75 72 72 75 77 80 79 82 79 80 80 85 91 99 99 98 99 100 98 99 100 99 100 98 88 97 100 100 100 100 100 97 91 88 90 99 98
61 65 73 73 76 79 82 77 82 86 89 85 81 81 84 88 92 85 87 96 99 98 100 99 100 100 100 100 100 99 100 98 100 99 94 90 89 95 97 99 100 99 99
62 67 72 74 78 82 84 83 87 88 88 88 82 84 85 89 97 100 100 99 100 100 99 98 99 99 99 100 100 99 98 94 91 90 94 97 99 100 100 99 99 99 86
65 68 71 72 78 86 86 93 91 88 88 86 83 92 91 93 95 100 99 98 98 99 100 98 95 96 98 98 99 100 97 100 100 100 100 100 100 99 98 72 27 25 25
69 71 74 78 84 88 94 90 83 83 86 86 87 93 91 91 94 97 96 96 97 94 91 95 99 99 98 99 99 99 99 100 99 100 99 99 76 47 27 27 21 17 20
71 75 80 82 82 90 86 83 80 88 94 88 90 91 90 92 94 91 92 99 100 100 100 100 99 97 97 99 99 98 95 68 40 30 30 29 27 20 14 18 31 57 88
76 82 89 84 85 85 91 88 89 94 93 88 89 89 90 93 90 93 94 96 96 96 99 96 97 97 86 59 34 33 28 26 23 20 16 14 16 20 26 35 72 69 71
88 92 89 88 84 86 96 93 91 96 96 90 91 89 89 89 93 94 97 98 95 82 54 37 42 45 34 26 22 19 15 14 15 18 24 25 24 25 26 27 35 46 38
86 89 86 83 83 86 89 94 94 96 94 92 92 96 92 92 95 94 70 39 34 35 34 30 27 24 22 19 14 13 14 16 19 23 30 38 28 27 26 26 26 27 28
82 84 82 76 79 84 87 88 92 95 92 97 98 94 91 55 35 33 33 36 36 34 29 27 23 19 17 16 16 19 18 19 24 26 29 30 27 26 27 26 28 32 51
79 78 81 78 78 80 84 87 91 95 97 96 91 59 34 31 30 32 35 34 28 24 23 20 16 13 15 21 28 27 40 37 39 30 27 27 27 27 28 32 46 64 68
80 78 83 87 85 83 87 91 94 94 92 75 47 33 30 28 30 33 31 24 20 18 14 10 10 14 20 20 19 24 29 36 35 31 32 33 34 34 41 57 69 70 72
82 82 87 89 93 94 91 93 87 76 61 48 36 29 26 27 33 32 22 20 17 11 8 10 12 13 16 19 23 26 28 31 31 32 37 38 42 45 53 67 69 70 74

GFSMW_850_rhum_060.txt.gz
RH
23 23 25 27 29 30 32 32 33 34 36 40 56 79 78 60 58 48 56 78 95 80 70 72 82 85 87 83 82 85 88 93 92 81 73 62 59 64 68 68 65 45 37
22 27 29 30 30 29 31 33 33 35 35 35 36 47 65 69 63 56 46 43 62 98 88 77 77 75 87 92 92 82 88 94 94 82 74 63 59 64 72 70 69 63 47
26 30 39 40 38 34 31 31 31 33 34 36 38 38 46 62 79 67 50 38 44 69 87 90 99 84 92 95 94 96 77 82 95 94 73 68 68 65 66 72 72 68 63
38 42 48 52 53 43 37 33 30 26 28 34 39 40 41 47 75 82 70 68 69 72 69 80 92 96 99 99 99 100 96 99 96 96 89 73 70 68 63 63 64 67 64
44 50 55 59 61 50 42 40 39 41 34 30 28 29 34 40 47 63 80 86 90 90 80 74 71 90 99 99 97 97 100 98 100 97 89 85 77 71 65 60 60 61 62
53 57 62 64 65 60 50 44 42 44 54 52 41 35 34 32 34 38 55 78 85 87 92 86 93 100 97 97 98 98 98 99 98 100 100 95 88 82 73 68 67 67 67
56 60 63 65 64 57 52 50 50 50 53 55 58 56 55 45 40 37 44 64 78 86 85 83 83 82 97 99 98 98 97 93 98 94 98 100 100 94 86 82 74 71 70
60 62 64 65 66 68 63 56 55 58 59 59 60 60 63 66 65 60 57 54 66 83 86 83 85 86 89 93 99 98 96 99 98 98 98 100 99 98 98 94 89 84 82
62 62 63 65 67 74 69 66 68 71 66 64 67 69 73 72 68 61 56 53 45 44 58 76 80 84 92 100 98 96 97 98 98 93 98 99 100 100 99 100 96 90 91
61 62 63 66 67 76 72 73 72 72 68 65 66 71 72 68 67 64 54 48 45 47 47 49 48 68 87 92 99 98 97 98 98 97 98 99 100 100 100 100 100 100 99
62 64 62 64 72 78 77 76 73 70 66 64 65 64 63 63 61 61 58 54 50 50 47 45 46 51 59 59 59 97 99 97 98 100 100 100 100 100 100 100 100 100 100
66 63 63 66 75 75 77 76 75 71 68 66 64 62 62 62 63 65 68 68 67 62 59 55 55 58 68 80 80 97 98 98 100 97 94 99 100 100 100 100 100 100 99
64 62 65 68 74 73 77 77 73 70 71 71 69 71 73 69 70 75 79 86 87 82 85 94 91 94 96 100 99 98 100 97 100 100 97 100 100 100 100 100 99 99 94
62 62 69 73 76 75 76 77 75 74 74 75 78 75 76 78 80 82 81 84 91 94 95 97 98 98 97 98 98 98 100 100 99 100 100 100 100 98 99 100 98 95 98
60 62 69 73 74 77 81 79 76 78 82 84 85 80 78 81 84 94 94 91 86 82 87 89 94 98 99 99 98 96 98 100 100 100 99 100 96 94 95 99 100 100 100
61 63 70 73 77 80 83 86 81 85 85 87 88 88 88 90 95 96 96 97 94 98 98 99 98 94 91 91 94 99 98 98 99 98 96 96 99 100 100 99 100 100 97
64 66 70 70 74 80 85 85 85 86 86 84 90 93 94 93 94 96 92 93 93 96 93 91 88 83 92 96 94 95 96 99 99 99 99 99 99 99 99 97 84 39 28
67 68 71 75 78 83 86 87 84 81 81 88 92 94 91 88 89 90 90 96 96 97 97 93 91 85 88 94 98 100 98 98 97 98 98 98 85 70 42 29 25 22 28
68 70 73 76 81 85 87 86 82 83 91 91 92 89 86 84 84 89 95 100 99 98 92 94 93 92 93 99 98 77 51 32 28 27 24 24 21 21 18 20 33 52 68
70 75 80 81 83 84 87 91 91 93 93 92 88 89 87 82 90 89 93 94 92 92 93 90 66 36 26 21 20 20 19 17 16 16 20 24 23 23 22 27 42 54 54
72 78 84 84 88 91 93 92 90 93 91 88 90 88 84 86 87 88 93 80 43 34 33 30 26 22 19 17 13 12 14 16 21 26 30 26 28 25 26 24 24 26 28
76 76 84 87 92 88 82 85 89 92 89 92 90 88 90 92 86 60 34 33 34 29 24 22 19 15 13 11 11 13 13 15 17 21 25 26 24 22 22 21 22 24 24
78 76 79 85 83 78 80 82 86 87 92 97 98 93 84 48 33 30 32 35 31 26 23 20 14 13 12 14 15 17 17 25 25 30 29 28 27 25 25 24 26 29 42
81 76 70 78 77 77 80 83 85 90 94 95 87 64 35 29 29 32 34 29 24 22 19 15 11 12 14 15 18 19 22 24 26 27 26 26 28 28 28 32 40 57 67
85 77 71 75 78 78 78 83 89 92 91 83 54 34 28 26 27 31 30 23 19 17 13 9 10 11 12 14 16 20 22 24 27 25 26 29 29 29 34 46 63 69 71
83 82 78 79 81 81 82 83 86 88 76 61 40 29 25 24 28 32 24 19 17 14 8 9 10 11 12 16 18 21 24 26 26 27 30 30 30 29 37 50 68 73 74

GFSMW_850_rhum_063.txt.gz
RH
24 24 24 25 25 25 25 27 31 36 39 43 43 63 68 62 61 68 67 68 69 68 76 79 80 79 86 82 83 86 93 92 89 92 92 88 76 66 61 60 63 64 63
25 27 29 29 28 28 30 31 32 32 34 35 36 40 44 52 65 62 62 73 72 69 69 86 83 83 86 89 87 88 89 89 96 94 94 84 76 73 65 60 61 65 64
28 31 31 30 29 28 28 28 29 29 30 34 36 36 36 40 46 53 65 74 77 62 58 73 79 84 85 84 89 92 93 84 90 93 92 80 75 67 63 61 59 64 68
37 42 43 39 36 38 37 33 31 31 31 34 37 38 39 40 42 53 85 86 76 67 69 70 79 81 81 84 84 82 93 90 93 100 100 94 76 67 64 60 59 63 68
42 46 46 48 49 46 41 39 40 40 36 33 30 28 31 37 42 44 53 63 79 87 83 79 71 75 78 80 88 88 89 94 91 92 100 100 96 86 76 69 66 66 66
54 55 59 63 64 59 52 47 41 41 43 42 38 38 34 33 32 31 34 41 52 76 88 88 83 81 84 85 86 86 88 99 98 100 97 98 95 88 87 81 74 73 71
57 60 61 62 61 57 55 54 51 51 50 52 54 53 53 47 46 39 37 35 46 72 85 80 85 84 86 88 89 97 92 92 92 94 98 99 99 96 93 96 92 81 75
59 62 62 62 61 59 58 56 54 55 55 57 58 60 60 62 62 59 52 50 49 51 62 77 81 80 82 84 88 97 97 96 94 93 94 97 98 100 100 100 99 97 89
62 63 63 64 63 62 65 62 64 61 60 60 63 66 69 69 69 68 65 61 56 49 47 53 63 79 82 81 88 88 96 97 90 88 92 91 89 94 100 100 100 99 100
63 63 62 64 64 66 71 70 71 67 65 65 62 61 61 61 61 60 58 55 52 49 46 45 46 51 60 66 68 82 89 86 97 88 88 89 98 97 99 100 100 97 99
63 64 63 63 64 71 72 72 73 70 68 66 63 62 61 61 60 60 58 58 57 56 54 52 50 50 51 56 63 69 61 63 93 98 96 95 98 99 99 100 100 100 100
63 65 62 63 68 74 72 72 74 74 70 66 64 63 62 63 64 66 69 70 69 69 69 68 63 59 55 55 59 65 82 100 99 99 98 99 97 91 95 100 100 100 100
64 65 62 65 70 74 72 74 76 73 71 71 70 72 74 74 74 76 77 80 85 90 95 94 91 91 93 100 100 99 98 98 100 98 99 100 97 100 100 100 100 100 100
65 63 62 70 74 75 75 75 76 77 76 78 78 78 75 73 76 80 84 82 81 81 81 85 89 91 92 91 91 94 97 96 95 99 100 99 98 100 100 100 100 98 96
64 61 61 71 75 75 75 78 78 80 82 82 82 78 75 75 79 85 92 86 88 83 79 85 82 92 90 88 89 97 99 99 100 100 99 99 98 99 100 99 100 99 100
62 61 63 72 75 76 79 82 83 84 88 86 83 80 80 83 87 88 88 93 96 97 92 88 85 81 82 84 87 90 90 92 92 94 95 98 96 94 96 98 98 100 98
62 64 66 70 73 76 81 86 86 85 88 83 80 82 87 88 88 89 95 97 92 90 87 85 82 82 85 89 91 95 93 93 94 98 99 99 99 99 99 99 99 93 45
63 67 68 71 73 76 80 83 86 84 81 82 84 86 85 85 89 93 93 94 93 89 89 86 85 86 91 94 95 93 89 90 89 87 80 62 51 41 28 26 24 24 24
65 68 70 72 76 81 84 85 85 82 84 86 86 82 83 83 94 95 94 92 87 86 86 88 91 85 55 33 22 22 21 20 17 15 13 13 14 17 18 18 27 40 50
69 70 74 78 79 83 86 86 86 89 90 90 84 82 80 85 92 90 94 90 80 66 62 34 26 22 18 14 10 9 10 11 12 14 18 21 21 22 25 26 31 40 46
72 71 73 79 82 82 83 86 95 98 95 86 82 80 84 88 91 94 74 34 31 31 26 21 19 15 12 11 10 11 11 12 13 16 20 24 25 24 23 23 24 26 27
75 73 72 76 80 79 78 87 98 97 90 80 80 83 86 89 84 45 30 31 30 26 22 19 15 12 12 13 12 12 14 14 19 24 26 27 27 25 24 24 27 29 28
78 75 70 72 73 75 75 80 87 88 85 90 87 88 86 57 32 30 31 28 25 24 20 16 12 11 13 16 16 17 17 18 21 23 22 21 23 24 25 26 28 32 43
78 79 72 72 73 70 70 76 80 84 94 98 94 81 38 29 29 28 29 27 23 20 17 12 10 11 12 13 15 17 19 21 23 23 24 24 27 28 28 32 41 55 67
76 81 78 70 72 70 70 75 82 84 93 89 74 46 30 27 26 29 30 25 19 17 13 9 9 10 11 12 15 17 20 21 23 22 24 27 29 29 32 41 53 65 68
77 78 81 76 76 74 72 78 86 85 86 75 52 34 28 26 25 28 28 22 18 16 12 8 9 10 11 13 17 19 22 23 23 25 28 29 28 28 30 38 49 64 66

GFSMW_850_rhum_066.txt.gz
RH
25 24 25 24 24 23 24 30 35 38 41 43 51 55 67 72 78 82 79 77 78 83 79 76 74 74 78 75 80 86 86 90 92 91 88 90 91 89 86 82 70 59 58
27 26 26 26 26 26 25 26 28 33 35 36 40 43 43 43 48 55 67 75 74 74 76 74 75 76 76 84 82 93 93 90 90 97 93 91 86 90 85 85 78 67 60
28 29 29 30 30 30 30 30 30 31 33 35 37 38 39 42 41 41 45 55 68 78 82 80 66 65 75 81 86 97 99 93 89 86 99 92 89 84 74 68 70 71 66
30 32 32 31 32 31 29 28 27 28 29 31 32 33 37 40 42 43 43 42 46 56 62 69 72 73 79 86 80 85 90 93 94 91 93 96 98 88 76 72 68 66 66
37 40 42 40 37 37 35 35 35 36 34 32 31 31 32 35 38 40 42 45 53 70 79 77 83 83 75 73 83 82 80 88 94 93 90 83 100 100 99 93 86 78 77
50 51 52 48 47 47 44 41 41 40 39 39 39 38 36 34 32 30 30 31 37 47 54 78 86 85 84 88 82 85 85 85 88 89 92 98 100 99 99 97 99 95 88
56 55 55 55 55 53 51 49 48 48 48 49 50 49 46 45 45 42 39 35 36 39 53 70 83 79 79 84 81 92 92 89 85 85 87 94 96 95 99 100 99 99 94
56 56 58 59 57 56 56 55 53 52 53 54 54 55 56 58 58 57 56 53 48 45 48 51 62 77 84 81 73 81 86 93 86 90 91 91 87 88 91 91 100 99 98
58 60 62 60 60 60 60 60 59 61 61 60 61 62 64 66 69 71 70 69 66 62 58 50 49 53 59 68 77 83 89 88 90 81 88 87 95 99 89 84 99 100 100
62 64 64 62 63 63 63 64 63 66 66 65 64 64 63 63 62 62 62 62 60 58 56 54 51 49 49 52 55 60 74 88 90 79 84 79 94 98 98 98 100 100 100
62 65 65 64 64 65 69 69 69 70 70 68 66 65 64 62 62 61 60 59 59 59 59 59 58 56 54 54 54 56 60 65 65 65 68 96 96 92 98 99 100 99 100
62 64 64 64 63 67 72 72 69 71 72 70 67 66 64 62 62 64 65 66 69 68 67 68 70 68 65 64 63 63 67 72 80 86 95 95 93 98 100 99 99 99 100
64 65 65 62 63 68 72 74 72 75 73 72 71 71 71 72 72 71 72 76 78 80 84 89 93 90 88 86 80 83 94 98 98 98 96 95 98 99 99 96 98 100 99
60 64 65 63 67 71 74 75 74 76 74 73 75 75 74 73 70 71 77 83 83 81 80 80 82 82 84 86 89 92 94 94 91 91 92 97 99 100 94 96 99 99 100
65 65 63 62 68 74 77 76 76 77 76 77 79 77 74 72 75 81 86 92 88 83 78 81 75 80 79 78 85 91 95 90 93 99 95 94 94 92 90 93 95 99 99
64 64 61 63 68 74 76 76 80 80 79 81 82 79 77 81 85 87 88 90 91 89 86 84 81 78 75 81 81 84 85 86 88 87 86 90 91 96 98 98 99 97 95
64 62 62 65 70 75 77 78 83 84 82 82 81 80 83 86 86 87 90 89 86 85 84 80 77 75 79 81 84 86 86 86 87 90 90 89 92 97 98 94 92 87 66
63 62 64 66 70 72 74 76 81 84 85 83 83 84 86 86 85 86 88 89 89 87 83 81 79 75 56 36 27 25 24 22 20 20 19 20 20 19 18 19 18 20 25
62 62 65 67 70 74 78 82 85 87 85 86 87 88 86 83 85 90 90 87 88 87 85 66 34 19 16 16 11 10 9 10 10 11 12 14 16 18 14 17 21 28 38
62 65 67 70 74 76 81 85 86 86 90 95 94 88 88 88 86 84 87 86 78 53 26 21 16 14 12 8 9 9 10 12 12 15 19 21 21 22 24 21 21 22 28
67 70 70 73 77 80 84 86 93 99 99 100 97 93 84 82 82 86 65 32 30 26 20 17 13 11 11 11 11 12 14 14 16 19 22 25 25 22 22 22 22 24 24
72 74 73 72 76 80 83 87 90 93 94 94 93 90 85 82 80 42 29 29 24 20 17 14 12 11 10 12 12 13 14 16 19 22 24 24 23 24 25 24 25 27 27
73 77 76 73 75 76 78 80 84 82 82 87 86 87 85 71 40 30 30 27 21 18 17 14 11 10 11 12 13 14 17 19 21 22 25 26 26 26 28 30 32 33 42
73 77 79 74 72 71 74 76 77 77 77 81 83 86 75 41 30 28 29 27 22 18 15 12 9 9 9 10 11 13 15 18 20 21 22 23 26 28 28 31 39 48 61
76 76 78 80 74 73 72 71 77 78 78 80 86 82 42 29 28 28 30 29 24 19 16 10 8 9 9 10 11 13 16 18 20 21 24 26 27 27 28 33 42 54 67
79 77 77 82 81 74 75 72 74 80 81 78 78 59 35 28 28 28 29 28 23 18 16 10 8 9 9 9 12 15 18 20 21 22 27 28 29 27 28 32 39 45 59

GFSMW_850_rhum_069.txt.gz
RH
28 26 25 24 25 25 25 27 34 61 62 80 84 82 85 86 86 88 90 90 88 90 90 86 88 90 88 85 84 95 96 94 92 92 92 91 86 87 90 92 91 88 84
28 25 25 24 24 25 25 25 28 34 37 41 42 48 55 60 63 67 75 84 90 90 85 83 81 80 81 80 76 85 95 98 98 97 97 96 89 87 85 80 86 84 85
28 27 27 27 27 27 28 28 30 32 33 34 35 37 44 50 49 47 46 54 61 68 82 83 83 83 84 78 69 84 92 94 94 97 99 96 85 84 84 81 76 71 71
30 29 28 29 30 30 30 31 31 30 30 30 32 35 37 38 39 41 41 40 41 43 45 50 62 68 65 70 72 78 87 90 94 95 99 100 100 100 97 92 85 77 78
29 30 31 33 33 33 32 31 30 30 33 35 36 36 34 33 33 36 38 40 41 42 42 48 57 71 79 76 77 77 83 89 82 88 97 100 100 100 100 100 93 90 88
33 39 41 40 39 40 40 38 36 37 40 42 45 45 44 40 36 34 33 33 32 33 36 42 51 68 78 80 78 78 84 88 88 89 93 95 100 99 100 99 97 99 86
43 47 45 44 45 50 51 48 47 46 44 44 45 45 45 45 45 44 42 42 41 42 46 48 64 76 85 92 90 86 85 90 95 96 96 90 81 99 99 100 99 100 98
52 49 52 56 57 57 55 52 51 50 50 50 51 52 54 55 56 56 57 56 55 53 54 54 55 60 71 84 86 85 85 86 89 86 90 83 72 92 100 100 99 100 99
56 57 60 61 60 59 57 56 55 55 56 57 57 58 61 62 64 66 68 70 69 68 64 61 59 58 56 57 59 67 78 89 100 100 96 97 78 76 86 91 98 99 100
61 62 62 62 61 61 60 60 61 61 62 63 63 64 64 64 64 64 64 64 63 61 60 59 57 55 53 51 51 53 58 65 80 91 91 84 78 76 80 86 89 98 100
60 61 63 64 63 62 61 64 67 66 66 67 68 67 66 64 62 61 62 62 62 62 63 62 60 60 60 59 57 56 56 59 62 63 65 68 76 85 94 98 100 94 99
59 62 64 65 64 63 64 68 70 69 68 71 71 69 67 65 65 66 66 68 71 72 72 70 69 70 71 70 68 68 70 69 71 76 84 91 98 96 97 98 98 98 98
62 65 65 65 65 64 68 73 74 72 74 74 72 72 71 71 71 71 73 76 79 79 77 79 83 84 86 83 83 83 85 90 94 98 97 92 92 96 97 98 90 91 98
57 62 65 65 65 67 71 74 75 75 75 76 75 75 76 74 72 73 75 79 83 83 81 81 81 83 86 88 90 93 96 91 93 94 99 93 98 98 94 89 90 94 98
61 62 62 65 65 67 70 74 77 75 76 77 77 78 78 75 74 77 81 89 90 86 82 83 81 80 81 83 88 92 91 89 89 90 89 90 90 88 89 88 90 93 99
58 61 65 64 62 66 72 76 76 77 80 80 80 81 80 78 82 87 87 88 91 91 87 82 78 76 77 82 82 84 82 81 82 84 86 89 92 92 91 88 86 92 96
54 61 63 63 63 67 73 76 77 80 84 83 82 82 82 83 85 86 91 92 90 87 81 75 73 74 77 78 70 55 42 36 28 25 32 38 35 34 44 38 27 26 26
57 62 63 62 65 67 73 77 77 79 81 82 84 83 85 88 88 91 90 89 86 82 76 75 69 32 16 14 10 8 7 7 7 8 10 11 11 13 12 13 15 19 26
60 64 62 64 65 68 72 75 80 83 84 85 84 86 88 87 89 92 91 87 84 83 76 31 18 14 9 7 6 7 7 8 9 10 12 13 16 18 16 18 18 22 31
64 62 63 64 65 70 74 78 83 84 85 84 86 90 90 90 92 87 84 83 81 45 21 17 13 9 8 7 7 8 8 9 10 12 15 18 18 18 19 18 18 18 20
65 64 67 67 68 72 76 79 81 84 95 100 99 95 94 95 88 87 82 48 29 23 16 13 10 8 8 10 9 9 10 10 11 13 15 17 16 18 20 20 20 22 21
67 69 71 70 67 71 75 78 80 89 99 100 99 92 90 89 89 82 34 28 23 20 17 12 9 8 9 9 9 10 10 11 12 14 16 16 16 18 20 22 23 22 23
67 70 73 74 69 69 72 75 82 89 99 100 97 86 92 89 84 35 30 28 24 22 19 14 11 9 9 9 10 11 12 13 13 14 16 18 20 21 23 26 24 26 32
73 73 74 77 75 71 71 76 82 87 96 94 89 87 83 80 47 31 31 28 24 20 18 14 10 9 9 9 10 11 12 13 14 14 16 18 20 22 23 25 29 36 46
74 74 75 77 81 78 75 77 76 79 80 84 83 84 82 60 33 29 29 28 26 23 19 16 10 8 8 9 9 10 12 13 14 14 17 19 20 22 23 24 28 36 46
76 77 77 78 80 84 80 76 75 74 78 78 83 84 77 41 30 27 26 28 28 23 18 16 12 8 9 9 10 11 13 15 15 16 17 18 20 21 23 24 27 33 39

GFSMW_850_rhum_072.txt.gz
RH
29 28 26 26 29 31 36 44 51 63 78 81 78 83 86 88 87 84 84 85 84 88 89 87 91 89 90 89 87 87 85 86 89 97 90 91 94 96 94 88 84 86 84
31 29 27 25 24 24 26 27 28 32 44 67 66 79 83 76 70 69 75 84 86 88 91 90 92 89 84 81 79 81 85 85 90 98 92 90 83 77 81 78 79 79 80
33 29 27 26 25 25 27 27 27 28 34 38 39 42 43 47 52 60 66 72 73 70 71 70 74 85 91 87 84 87 86 78 87 85 92 99 85 80 86 87 90 90 82
34 30 27 27 28 28 28 29 30 31 31 32 32 33 34 36 38 41 44 46 47 46 46 44 44 45 57 72 79 79 84 82 92 93 90 93 100 99 93 95 97 87 90
31 31 30 29 29 30 31 32 32 32 32 31 32 32 33 34 34 35 36 36 38 40 42 44 47 53 61 72 84 88 85 85 88 92 89 89 99 99 98 95 96 98 98
32 33 36 35 34 34 35 35 35 34 35 36 37 38 40 40 39 37 35 35 35 35 34 33 34 38 46 62 88 88 87 86 91 95 94 94 99 98 100 99 94 98 95
33 35 38 40 40 42 42 42 42 42 44 45 45 45 45 46 46 46 47 46 46 45 44 43 45 48 60 67 78 96 97 89 90 91 91 93 98 100 100 93 93 92 89
38 41 42 45 47 48 50 51 50 50 49 49 50 51 54 55 56 56 57 57 57 58 58 58 57 55 53 57 76 88 89 93 91 91 90 93 92 91 86 84 99 100 100
42 47 55 54 55 56 55 54 53 53 53 53 53 53 55 57 60 61 62 62 62 60 60 60 60 59 58 58 57 58 69 83 99 99 98 98 98 99 93 84 81 100 99
61 61 59 60 60 59 58 57 56 57 57 58 59 60 61 61 61 61 62 62 62 61 61 60 59 58 58 59 58 58 63 68 69 82 99 99 94 79 72 73 83 89 98
59 60 62 64 63 62 61 60 61 63 63 63 63 65 65 65 64 62 60 60 62 63 63 64 63 63 62 63 65 67 66 67 70 73 72 73 77 83 87 95 98 97 97
60 62 64 65 64 64 64 63 65 68 68 67 68 70 70 68 67 66 68 70 71 73 74 74 72 70 71 73 76 76 77 78 78 79 84 86 91 91 97 98 98 100 97
64 66 67 66 65 65 65 65 69 71 71 72 74 73 72 71 72 72 72 73 75 78 80 79 79 82 84 86 88 88 88 89 88 93 95 93 93 96 97 96 96 90 91
64 64 65 66 66 66 66 69 72 73 74 75 77 77 77 76 74 72 73 76 79 82 85 83 83 81 82 87 92 96 98 96 93 96 99 97 98 96 90 86 84 88 93
61 61 61 64 65 66 67 70 72 75 77 76 79 79 78 78 76 75 78 82 88 91 89 84 82 79 81 86 92 93 92 88 87 86 87 86 85 86 86 86 87 93 93
53 56 61 64 65 65 65 69 73 77 77 80 81 81 80 82 81 84 92 97 96 96 91 85 80 78 80 83 83 82 80 79 78 75 69 64 62 49 51 52 56 59 64
50 53 55 59 64 64 65 70 75 77 77 84 87 85 83 84 85 95 99 100 100 96 88 82 79 80 78 60 37 20 13 9 8 8 8 9 9 10 11 11 12 12 13
46 49 56 61 64 62 66 72 77 79 80 85 88 86 87 89 97 99 100 99 96 89 82 79 57 20 12 8 6 6 6 7 7 7 8 10 11 10 10 11 12 13 17
43 51 58 63 62 64 66 71 77 79 81 84 88 90 92 98 98 98 97 94 89 85 75 31 14 9 6 6 6 7 8 8 8 9 10 10 12 12 11 11 13 14 16
53 59 63 62 64 64 68 73 77 80 84 88 90 94 100 100 96 98 95 89 87 63 19 13 9 7 8 7 7 8 8 9 9 9 10 11 11 11 11 11 14 15 18
64 65 63 64 67 66 70 74 78 82 88 94 100 100 100 100 98 90 88 85 54 25 16 11 9 9 9 9 8 8 10 10 10 11 12 12 11 12 14 16 17 18 18
67 66 67 70 71 68 70 75 79 84 87 99 100 100 100 97 91 87 81 41 29 19 16 12 10 10 10 10 9 8 10 11 12 13 13 12 12 13 14 16 18 21 22
69 69 72 75 75 71 71 74 77 80 86 99 100 100 99 93 86 84 39 27 23 20 17 14 11 10 9 10 10 10 11 12 12 13 12 13 14 14 16 17 18 20 25
76 78 76 75 77 77 72 72 74 77 81 94 98 96 94 90 86 64 28 27 24 21 19 16 13 10 9 10 10 10 11 12 13 13 14 14 13 14 14 16 18 21 28
89 87 84 77 76 80 81 75 73 74 75 80 87 86 87 85 83 41 29 29 29 24 22 18 15 11 9 9 9 9 10 11 12 12 15 15 13 13 14 17 19 21 25
72 73 75 76 78 79 80 82 78 75 74 73 76 80 81 83 74 40 30 28 28 26 24 18 16 13 9 8 9 9 10 11 12 14 15 14 13 14 14 16 20 23 26

GFSMW_850_rhum_075.txt.gz
RH
35 32 30 54 60 51 51 62 66 69 74 76 77 76 74 78 84 85 88 89 90 89 87 86 87 88 88 84 87 84 78 77 78 88 77 73 77 80 86 75 77 75 81
40 33 28 26 29 32 30 31 36 43 47 53 63 73 72 69 73 82 80 83 84 87 84 82 80 84 82 84 88 89 86 86 84 92 95 99 86 70 74 77 80 79 82
34 32 32 27 26 25 25 26 26 28 28 32 42 57 58 57 66 64 66 70 74 77 79 74 65 60 61 62 77 90 93 93 93 83 97 99 86 80 80 84 80 81 80
34 31 33 29 27 27 27 28 28 28 29 32 36 37 36 36 37 38 43 49 53 55 54 50 47 45 46 47 50 73 89 94 90 86 82 93 100 99 91 92 93 82 82
39 33 32 30 29 30 31 31 31 31 31 32 32 32 32 32 33 33 35 36 38 40 40 40 41 42 44 47 53 66 86 96 98 89 87 93 100 99 99 99 94 93 74
37 35 33 32 34 34 34 33 33 34 34 34 33 32 32 34 36 37 38 37 37 36 36 35 35 36 37 39 44 57 98 100 97 93 89 92 100 98 97 97 88 97 79
38 35 33 33 35 38 38 38 37 37 38 39 39 40 40 41 41 42 43 44 46 46 46 45 45 45 46 49 53 63 74 99 99 94 93 97 98 99 98 98 99 99 93
36 36 32 32 37 42 43 42 42 43 44 45 47 47 48 48 50 51 52 52 54 55 56 56 56 57 56 55 53 54 74 95 100 100 99 99 100 98 99 100 99 98 99
40 39 40 45 49 50 50 49 48 47 48 48 49 51 52 54 55 55 56 58 59 59 58 57 57 56 56 57 58 60 61 65 88 98 95 88 90 87 90 98 100 100 99
42 47 58 58 56 54 53 53 53 52 53 53 54 55 56 58 60 61 61 61 60 59 59 58 58 57 56 57 57 58 58 63 72 80 82 82 88 97 100 89 86 99 97
53 64 65 63 61 60 59 57 57 57 59 61 61 61 62 62 63 64 63 61 59 59 59 60 60 60 60 59 60 62 65 66 70 72 74 77 80 79 82 88 98 98 99
61 66 67 65 64 64 61 61 60 61 63 66 65 66 67 68 67 66 65 65 66 69 70 72 72 71 70 68 70 74 76 76 76 76 78 81 85 91 95 97 98 98 98
65 65 64 64 63 64 65 65 65 66 68 67 69 71 72 71 70 69 69 68 70 72 74 78 78 78 80 82 83 84 85 87 88 89 90 92 94 94 98 98 96 92 88
64 64 65 65 66 66 66 66 67 69 70 71 74 74 75 74 73 72 72 71 74 77 81 83 82 81 80 85 92 97 99 97 95 94 99 98 95 95 88 84 80 79 82
66 64 63 64 65 65 64 67 68 71 72 75 76 77 78 77 75 76 76 78 84 87 90 88 84 80 80 86 92 96 98 92 86 81 80 78 75 75 69 68 67 71 74
62 62 62 62 61 64 63 66 68 72 75 77 78 82 83 81 80 82 87 92 96 96 95 88 83 78 79 82 82 82 80 73 56 35 18 10 8 7 8 8 8 8 11
51 53 54 57 58 60 64 66 67 73 76 78 81 86 86 85 88 90 96 99 100 100 95 85 80 81 80 61 34 15 9 7 6 6 6 7 8 9 10 10 10 11 11
50 48 53 57 60 64 66 65 68 73 78 80 83 88 86 84 90 99 100 100 100 100 90 84 66 30 11 7 6 6 6 7 7 7 9 10 10 10 10 11 11 12 14
45 48 48 54 61 65 64 66 69 75 79 81 83 88 90 91 100 100 100 100 100 94 86 44 18 10 6 7 6 7 8 8 9 10 11 11 12 9 8 10 11 12 13
42 42 51 58 64 63 63 63 68 74 77 82 88 91 96 100 100 100 100 100 96 86 40 19 11 8 8 7 7 8 10 10 10 11 11 10 9 9 10 12 13 13 17
53 56 62 64 64 65 64 66 71 75 82 86 90 98 100 100 100 100 98 96 91 42 19 15 12 10 9 8 8 8 10 10 10 11 11 11 10 12 12 13 14 12 13
63 65 66 65 66 69 67 67 72 80 82 86 99 100 99 100 100 99 94 91 65 26 19 15 11 9 10 9 9 8 9 9 11 11 11 12 12 12 13 14 13 14 16
68 69 69 70 72 74 70 68 74 76 79 84 99 99 99 100 100 94 91 76 37 27 19 15 12 11 10 10 9 9 8 9 10 11 12 13 14 14 14 14 14 15 18
71 72 71 71 72 74 76 72 73 75 77 82 96 100 100 100 97 92 89 42 32 25 19 17 15 12 10 9 9 9 9 9 10 11 13 14 14 13 14 15 16 17 18
87 88 88 86 84 78 79 81 77 76 78 81 89 97 97 95 92 88 72 30 30 28 24 20 18 15 11 9 8 8 8 9 10 11 14 15 15 14 15 16 16 16 17
80 79 79 82 84 87 86 81 84 81 80 80 81 87 89 88 88 87 60 30 31 27 25 24 20 18 16 10 8 9 8 9 9 10 13 14 15 16 16 16 16 16 18

GFSMW_850_rhum_078.txt.gz
RH
42 37 45 69 67 65 66 62 66 72 79 80 83 84 78 75 78 80 83 87 89 89 89 88 88 88 88 89 93 91 87 86 87 86 88 96 92 79 85 74 81 85 81
44 41 39 30 67 68 54 56 66 65 66 71 74 73 74 78 81 75 82 87 85 86 86 86 86 89 87 84 83 84 91 95 96 95 100 97 73 69 78 75 74 76 75
49 40 37 34 28 40 46 38 42 46 49 50 48 53 56 61 69 63 71 71 67 64 67 69 74 78 80 69 66 76 87 100 98 95 100 95 72 78 86 82 78 77 77
49 39 32 34 31 28 27 29 30 32 34 36 39 43 49 52 45 44 42 41 42 46 52 59 64 62 57 52 49 50 55 99 100 99 93 89 98 97 90 87 84 86 87
48 40 38 36 32 30 29 29 29 31 31 32 32 33 34 34 34 34 34 34 35 37 40 42 43 43 42 42 42 44 50 90 96 98 97 94 100 98 98 98 95 82 82
49 46 41 37 33 32 33 33 33 33 32 31 31 32 32 32 32 32 34 35 36 36 36 36 36 35 35 35 36 37 40 56 85 88 96 98 98 94 95 96 95 89 84
47 42 41 35 33 32 34 36 35 35 35 35 34 34 33 34 35 37 40 42 43 43 42 42 42 43 43 44 44 45 46 59 89 86 93 95 100 97 94 98 94 94 93
40 41 43 36 34 33 36 37 38 38 38 38 38 39 41 43 44 46 47 49 52 53 54 54 55 55 56 56 58 60 58 66 100 100 100 94 97 97 100 98 98 96 91
32 36 45 47 39 39 44 46 44 43 42 43 44 46 46 47 48 49 51 52 54 55 56 55 55 55 54 54 55 57 58 61 74 99 98 96 99 95 87 92 94 99 99
37 35 55 68 62 54 53 51 49 49 48 49 50 51 52 54 54 55 55 56 57 57 56 56 56 57 57 56 56 57 60 64 74 90 99 99 97 96 94 88 94 98 99
53 66 74 69 61 59 55 54 52 51 52 53 54 56 58 59 61 62 63 63 62 60 59 58 58 60 62 62 62 62 64 66 71 77 80 76 74 74 80 82 82 90 96
66 70 73 64 63 60 59 57 56 57 58 60 63 64 63 65 66 67 66 66 66 67 68 70 71 71 70 69 70 68 72 76 77 77 76 74 73 76 82 88 91 93 97
75 78 72 64 61 60 60 60 60 60 60 63 66 66 70 71 71 70 69 68 69 70 71 72 72 73 74 75 77 79 79 81 82 81 81 82 84 88 89 93 98 93 91
72 75 74 69 65 62 61 62 62 62 63 65 65 69 73 74 75 75 73 73 73 74 75 78 79 79 77 77 80 86 91 93 91 91 89 97 93 92 92 90 85 80 80
68 72 71 71 66 65 64 66 67 67 67 68 68 72 74 75 76 76 74 74 74 78 80 84 85 81 78 78 87 95 99 98 93 84 82 82 78 79 74 64 53 47 50
65 66 61 63 62 63 64 64 65 67 68 70 71 72 73 77 78 78 77 80 85 87 89 90 87 82 80 85 87 86 84 81 74 46 23 12 7 6 6 6 6 6 8
51 65 60 56 60 60 62 64 66 68 68 70 76 77 78 81 83 82 85 94 98 100 99 93 86 80 82 82 79 59 28 11 7 6 7 7 8 7 8 8 7 8 9
48 58 62 57 57 61 64 67 68 69 70 74 80 81 83 84 83 92 99 100 100 100 100 90 86 84 55 16 8 6 6 7 7 8 8 8 8 8 7 8 9 10 11
52 57 53 53 56 60 63 66 67 67 71 77 81 84 85 87 90 99 100 100 100 100 97 85 53 17 8 6 6 7 8 8 8 9 10 8 9 6 7 8 10 10 11
44 48 50 53 56 60 63 65 64 66 71 76 80 84 89 92 96 100 99 99 100 100 90 46 18 10 8 6 7 8 9 10 10 10 10 9 7 7 8 10 11 12 16
48 49 49 52 57 62 65 64 65 66 73 78 82 87 93 99 100 100 99 100 100 98 72 25 13 10 10 9 8 8 10 11 11 12 11 12 9 8 9 10 10 11 12
58 58 60 63 65 65 66 66 65 70 73 77 81 85 96 99 99 100 100 100 100 91 30 20 15 12 11 10 9 8 9 10 11 12 12 13 10 10 10 10 10 10 12
67 67 67 66 67 68 70 70 69 69 72 76 79 90 100 100 99 100 100 99 97 60 25 19 16 13 12 11 9 9 8 9 11 12 12 12 12 11 12 12 12 13 16
68 68 68 68 70 72 75 75 74 75 73 76 80 92 100 100 100 100 98 92 84 36 27 22 17 16 13 11 10 9 9 9 10 12 14 14 13 12 12 15 16 16 16
87 88 86 84 83 80 80 83 86 84 79 78 81 88 99 100 100 98 87 85 66 33 27 22 22 20 16 13 11 9 9 9 10 11 12 15 14 13 14 17 16 17 17
87 88 88 90 93 93 96 96 93 89 88 82 82 82 90 100 100 98 90 86 52 35 31 27 25 23 20 17 13 9 9 9 10 10 11 14 14 14 16 18 19 19 18

GFSMW_850_rhum_081.txt.gz
RH
43 40 42 59 73 94 94 99 98 95 96 98 99 100 97 99 99 94 99 100 100 100 92 92 100 100 99 100 100 99 96 97 96 100 94 90 91 89 85 87 84 81 82
41 41 38 43 56 75 69 85 96 89 94 97 95 96 97 97 98 97 96 98 96 98 94 94 97 98 99 98 96 99 99 98 89 98 98 95 83 68 65 81 82 82 79
36 43 39 40 36 59 68 72 84 97 81 93 93 80 73 76 77 84 87 75 67 75 80 75 75 76 83 88 96 98 100 99 98 98 98 89 76 69 72 80 84 85 83
34 42 43 34 39 37 53 61 50 56 57 58 61 64 72 81 93 74 69 48 49 46 43 45 48 54 63 64 63 62 61 70 84 82 84 94 97 96 88 81 80 87 82
36 42 44 33 35 37 30 30 36 34 36 43 50 52 54 48 41 38 36 34 33 34 34 35 38 41 44 45 43 43 43 48 78 84 89 87 93 92 98 99 79 80 82
39 42 42 34 38 35 32 31 30 31 32 35 36 36 34 33 33 34 34 34 33 33 33 34 36 37 38 38 39 39 41 48 58 78 94 98 98 99 90 94 81 85 81
40 43 44 37 37 35 33 33 34 35 35 34 34 34 33 33 34 35 37 39 42 41 38 40 41 42 42 43 44 46 48 51 64 100 99 93 91 98 97 88 99 100 96
39 46 42 43 41 35 34 34 38 38 40 37 35 35 34 34 35 37 39 44 47 48 48 49 51 52 53 54 56 57 58 61 59 73 92 90 91 99 98 100 100 94 88
35 41 43 44 56 44 38 39 42 38 40 40 38 37 36 38 40 43 46 47 49 51 53 53 54 53 53 53 53 54 54 56 59 72 98 93 95 98 96 93 97 91 99
34 37 40 47 59 55 51 51 49 46 44 43 41 41 43 45 47 49 50 52 53 54 56 57 56 56 55 55 56 57 55 59 61 82 100 98 98 98 98 97 97 94 99
40 43 52 59 66 62 53 56 53 49 46 46 46 48 50 52 54 55 56 57 58 59 60 59 58 58 58 60 62 63 63 67 66 77 99 99 99 92 85 83 88 93 90
50 53 62 69 72 70 62 58 52 50 49 51 52 53 56 58 59 60 62 63 63 62 62 63 65 67 69 69 69 70 72 73 77 81 83 82 80 79 80 85 90 90 89
57 59 66 74 76 72 62 55 53 54 53 54 56 57 59 58 61 63 66 67 68 67 67 67 70 72 73 76 76 79 82 85 87 86 89 87 84 84 89 88 87 87 90
58 61 66 71 72 72 67 61 59 58 57 59 61 63 64 66 68 68 68 70 71 71 71 73 74 77 79 78 78 84 92 93 92 91 90 86 87 89 88 86 85 83 82
53 61 66 66 69 72 68 66 63 60 61 63 65 66 67 71 72 72 72 72 72 73 75 80 80 83 82 78 79 92 99 100 97 92 84 87 83 78 76 70 63 59 52
46 58 65 66 67 71 70 66 64 63 63 64 66 68 71 72 75 80 79 76 72 75 83 86 91 88 82 78 81 92 99 94 83 74 51 24 8 6 6 6 6 6 6
38 51 59 64 66 70 70 64 64 64 65 68 69 70 73 77 78 79 85 85 88 92 99 100 93 86 82 83 83 83 79 55 20 8 6 6 7 7 7 6 6 7 6
45 43 48 59 65 69 74 70 66 64 66 70 71 73 76 78 79 81 83 91 100 100 100 100 93 85 84 80 50 17 8 6 7 7 8 9 9 9 6 7 7 7 8
41 43 41 53 65 70 72 66 64 63 66 67 68 72 76 79 81 83 85 98 100 100 100 100 92 84 46 10 6 6 7 8 9 10 10 10 10 7 6 8 9 10 9
53 56 55 60 68 71 63 62 63 65 67 68 69 73 78 80 82 88 97 100 98 100 100 99 74 27 9 7 6 7 9 10 11 11 12 10 8 7 7 9 11 11 11
58 62 65 63 64 61 59 63 66 67 67 67 72 76 79 83 89 92 98 99 99 100 100 89 38 17 9 8 7 8 11 11 12 13 12 12 10 8 8 8 12 11 9
60 62 64 64 58 58 63 66 67 66 65 67 71 76 80 86 94 100 100 99 99 100 100 84 32 15 13 11 8 8 9 11 11 13 13 13 12 10 10 10 10 10 11
69 68 67 66 66 67 67 67 68 68 68 70 74 77 80 87 100 99 99 99 99 100 98 56 21 13 12 11 10 10 9 9 10 12 13 11 12 11 11 13 14 14 17
70 69 68 67 68 68 70 72 74 75 74 80 82 74 80 91 99 99 99 99 100 100 95 37 19 14 12 10 10 10 9 9 10 11 12 12 13 13 12 13 18 18 18
79 80 81 78 76 76 74 74 76 77 79 84 80 78 80 89 100 99 100 100 96 94 87 32 20 16 14 13 13 12 11 10 10 11 11 11 13 15 13 14 18 19 21
86 88 92 92 95 93 93 94 93 91 93 94 93 87 81 83 96 100 100 96 97 90 74 36 27 22 20 19 18 16 13 10 10 10 10 11 13 15 14 14 19 21 24

GFSMW_850_rhum_084.txt.gz
RH
44 45 48 59 70 80 85 80 84 91 93 93 94 91 87 87 88 87 88 93 93 93 98 95 99 98 97 99 99 97 98 96 97 99 94 89 87 85 86 80 86 82 76
42 42 41 44 62 73 72 74 79 86 90 94 98 87 90 91 95 93 94 96 99 98 100 100 100 97 98 98 98 99 96 98 98 97 97 85 77 72 70 70 88 82 84
38 41 40 39 51 66 71 72 74 87 76 81 86 92 93 85 94 88 90 92 94 92 89 91 99 97 99 98 99 100 98 98 93 97 93 94 82 76 73 77 80 83 84
34 39 42 41 40 45 70 71 78 75 66 67 58 55 64 70 88 88 82 58 55 55 65 62 53 49 51 51 54 62 68 94 95 80 86 94 97 86 87 78 79 79 83
36 34 41 42 36 38 40 65 67 68 67 70 63 66 76 78 80 87 78 57 40 35 33 34 34 35 36 39 40 42 43 44 50 79 90 88 89 88 86 85 76 72 75
36 34 37 42 40 35 33 33 40 47 44 46 51 61 61 57 51 40 35 33 33 32 32 33 33 34 36 38 38 40 41 41 45 85 92 93 82 93 81 87 92 98 84
34 35 44 44 38 33 33 32 32 30 31 33 37 40 39 35 33 32 33 35 36 35 33 37 39 40 42 44 46 48 51 54 58 82 98 97 92 95 100 93 98 99 99
32 35 42 44 39 36 35 32 33 34 34 34 34 35 35 35 34 34 35 37 41 42 43 46 48 48 50 52 53 54 56 59 56 58 70 98 94 100 100 100 88 100 99
34 36 45 45 44 38 37 37 38 39 39 38 37 37 36 36 37 35 37 42 45 48 50 50 51 51 51 51 51 52 52 55 54 58 64 92 100 90 90 95 100 99 99
32 35 45 46 44 42 41 40 41 44 44 43 42 39 38 37 39 43 43 46 47 50 52 53 54 54 53 52 52 54 51 54 56 64 79 99 98 98 95 100 98 98 100
33 37 36 47 47 48 50 46 46 45 47 46 45 44 38 42 46 44 47 49 51 53 55 57 58 57 56 56 58 59 63 66 63 67 92 100 98 97 99 99 95 90 87
44 45 46 53 58 61 62 51 51 48 44 44 45 46 48 47 48 51 53 54 56 59 60 60 60 60 61 65 67 68 70 72 74 79 84 95 100 96 89 78 81 90 93
49 54 60 63 67 70 68 64 61 64 57 54 52 48 49 53 54 54 55 60 64 65 65 64 64 63 66 68 72 76 76 78 81 82 86 90 86 83 83 87 88 88 89
46 57 64 68 70 71 71 70 67 59 51 51 51 55 58 58 58 57 60 64 66 70 70 70 67 68 68 71 76 79 80 87 92 91 90 88 87 85 88 89 88 86 85
47 55 63 68 71 73 71 69 67 58 57 58 59 60 62 62 61 62 65 66 68 70 71 75 72 75 76 78 80 79 94 100 99 96 95 92 95 94 84 80 75 70 64
36 44 58 66 69 71 71 68 64 59 59 61 62 64 65 64 65 67 69 72 74 75 72 72 79 84 85 83 82 95 100 100 100 96 84 70 41 24 12 6 6 6 6
42 42 49 60 66 68 69 69 65 63 62 62 63 63 66 67 70 71 73 74 78 79 85 94 98 95 89 85 92 97 96 92 84 47 15 9 8 7 8 6 6 6 6
46 46 46 52 61 67 69 69 68 63 64 64 64 66 68 69 70 72 74 77 80 86 99 99 99 97 89 88 86 82 54 23 10 7 9 9 10 11 7 8 8 8 8
48 45 43 44 53 63 68 71 69 65 66 65 66 68 70 72 74 76 79 85 88 100 100 99 99 99 91 82 35 9 8 10 9 11 12 12 12 10 6 9 10 10 11
51 47 42 42 48 63 68 71 70 65 65 64 67 69 70 73 78 80 83 89 97 99 97 99 100 96 57 17 8 8 10 11 12 12 13 10 9 8 7 10 12 13 15
57 52 62 61 62 66 69 71 70 68 68 69 69 68 71 76 78 79 86 93 99 100 99 100 100 70 24 11 8 8 11 13 14 14 14 14 12 9 8 8 13 15 13
63 67 69 66 69 70 71 72 72 73 72 69 69 70 74 75 78 84 93 100 100 100 100 100 96 48 21 9 9 8 8 12 13 14 14 14 13 10 10 10 12 12 15
74 71 69 70 69 70 72 73 73 74 70 69 69 70 71 74 76 85 100 99 100 100 100 100 97 51 18 13 12 11 9 9 9 11 12 13 11 12 12 12 14 16 20
72 73 73 72 70 70 71 70 70 71 71 70 70 72 77 75 72 86 99 99 98 100 100 100 90 39 18 13 12 11 10 9 9 9 10 11 11 12 13 12 13 19 20
77 79 80 78 77 75 74 73 73 74 76 78 83 85 83 80 76 84 99 99 100 100 100 97 82 34 18 13 14 13 12 11 11 11 10 10 11 11 14 13 13 16 20
86 87 88 90 94 96 96 94 92 91 89 90 94 96 97 92 88 86 98 99 100 99 97 94 88 40 25 21 19 18 17 14 12 10 9 9 10 10 12 13 13 14 20

GFSMW_850_rhum_090.txt.gz
RH
47 52 76 78 89 89 84 83 83 86 95 96 89 88 88 83 86 80 86 75 75 77 80 82 84 88 92 92 92 88 88 85 82 88 79 82 76 79 71 64 61 75 81
48 46 55 60 70 77 83 81 81 85 88 85 85 93 88 88 84 79 82 88 93 88 84 85 91 91 94 94 95 95 91 91 93 88 88 84 82 73 74 73 67 66 80
42 44 45 50 58 64 68 78 75 80 84 70 78 94 84 83 85 86 82 80 87 86 85 87 90 94 97 96 96 99 100 96 93 97 94 89 80 81 82 83 84 83 88
40 41 42 43 49 47 66 69 70 78 76 79 84 84 79 82 81 74 72 78 84 84 64 71 77 82 89 73 86 83 78 76 73 62 83 85 97 86 81 84 89 92 92
39 40 42 42 41 42 47 63 66 72 77 77 76 84 74 73 78 74 68 75 73 61 53 76 70 69 67 52 40 39 39 41 42 45 49 58 98 94 96 88 90 96 89
37 39 39 39 40 40 44 50 54 67 71 69 74 74 70 71 69 66 67 65 62 68 76 61 41 35 34 33 33 34 35 39 40 42 44 50 68 88 100 100 97 98 100
37 36 37 38 40 41 40 46 55 56 61 65 68 69 69 72 70 67 65 66 68 67 56 34 33 34 34 35 36 38 40 43 46 49 52 57 64 94 98 97 90 93 99
36 35 34 36 37 39 42 41 47 55 61 64 61 66 68 74 64 63 65 65 68 42 34 33 33 34 37 41 44 43 44 45 47 50 55 59 57 67 100 94 94 98 100
31 32 31 35 37 40 42 41 40 39 41 57 64 71 66 65 64 65 57 43 39 37 37 37 42 42 43 46 47 48 48 49 50 52 55 56 55 63 99 97 99 93 99
34 32 35 35 37 41 42 42 42 40 39 41 45 44 48 46 41 40 42 41 40 42 44 47 46 46 49 52 52 52 53 54 55 55 55 55 63 76 96 98 99 99 99
28 34 35 44 43 46 46 44 43 41 42 44 43 40 45 44 46 46 44 43 41 40 45 49 51 51 55 54 54 54 56 57 61 63 63 65 74 82 98 97 98 94 92
32 31 32 34 45 48 49 48 46 45 47 48 48 54 54 57 57 58 62 53 45 47 52 51 53 54 56 58 59 58 58 61 66 68 72 77 86 97 99 98 98 99 99
33 33 32 35 37 45 52 55 55 53 55 58 54 52 53 46 46 50 57 62 66 67 60 60 58 58 59 61 65 65 64 65 71 76 81 81 87 94 100 99 99 100 100
37 36 34 36 39 41 48 53 59 62 62 62 62 60 54 55 62 76 61 66 60 56 58 62 62 60 63 66 68 69 71 73 77 84 89 91 95 98 99 100 98 96 94
35 36 35 33 30 36 42 48 60 68 70 70 67 61 58 72 77 66 59 56 60 63 62 64 66 64 68 70 70 72 76 81 90 98 99 100 99 99 97 97 97 96 95
37 42 44 43 39 37 37 46 57 65 73 75 74 70 68 63 62 63 62 63 65 65 65 69 70 72 72 72 77 81 88 99 100 99 99 100 100 96 97 92 87 81 68
40 41 44 45 46 48 48 49 56 64 71 72 70 66 64 66 68 65 64 65 68 71 73 74 76 76 87 94 89 90 98 100 99 98 100 94 54 26 14 11 8 7 7
50 48 47 46 48 49 54 59 64 65 71 71 68 66 67 67 67 68 70 72 72 73 76 80 85 95 99 99 97 93 97 100 100 99 76 26 11 11 11 13 10 10 9
46 46 45 44 47 48 48 62 67 67 70 71 70 68 69 69 70 73 74 75 76 79 83 90 99 99 98 99 94 90 92 94 73 32 12 12 14 18 12 9 11 12 11
57 54 52 51 52 49 46 61 66 68 68 67 69 72 73 74 75 77 76 75 75 80 86 91 99 99 99 99 96 80 41 18 11 11 13 14 15 18 9 8 14 15 16
60 59 56 57 55 52 49 53 64 66 66 72 74 76 78 76 79 80 78 79 76 79 86 95 100 99 100 100 78 30 11 12 14 16 15 16 13 10 8 8 16 18 21
64 64 62 67 67 61 56 50 56 65 70 76 78 79 79 78 78 76 78 77 73 77 95 99 100 100 100 98 44 14 11 12 14 17 18 17 16 15 10 9 11 14 12
67 67 66 74 77 74 74 73 68 74 77 80 81 80 80 81 76 76 78 75 77 84 97 99 99 99 100 94 37 17 12 12 13 15 17 17 17 16 13 11 11 13 14
69 71 72 72 75 78 79 80 80 81 82 80 79 80 79 78 78 81 80 82 84 90 98 99 99 99 100 96 41 17 18 15 12 11 11 13 14 14 13 14 15 14 14
71 72 75 74 72 72 74 75 77 78 80 80 80 79 80 80 82 85 93 88 92 96 100 99 99 100 99 96 54 23 20 18 18 20 15 13 12 12 13 13 14 15 14
77 82 87 87 85 82 80 77 78 80 78 79 81 82 83 85 92 97 100 99 100 100 100 100 99 100 100 98 49 24 20 18 19 18 15 14 13 13 13 13 13 14 14

GFSMW_850_rhum_093.txt.gz
RH
64 60 72 78 84 82 86 83 78 73 75 74 81 76 73 52 81 80 82 82 85 81 82 83 86 86 88 85 91 92 86 82 81 78 80 77 80 75 72 69 69 67 70
49 49 60 70 72 72 78 77 83 84 76 78 69 62 59 69 84 86 85 87 84 83 82 77 78 85 86 88 92 91 88 90 88 87 83 84 77 69 67 68 76 69 67
48 47 50 61 71 74 74 76 77 81 81 77 74 79 86 86 85 85 82 80 85 82 82 82 82 84 83 88 93 94 96 92 92 86 94 90 88 85 80 76 79 84 88
47 44 44 44 45 56 63 63 64 68 72 74 76 78 83 83 89 83 81 81 81 77 76 75 69 81 75 86 96 98 82 87 88 75 73 80 97 100 87 80 80 86 84
46 43 42 41 41 42 48 64 67 68 69 74 75 74 69 75 83 73 78 82 80 79 59 52 68 72 71 82 77 61 50 45 40 40 43 49 60 66 94 90 83 84 80
42 41 39 39 40 40 42 44 61 61 64 68 73 74 73 73 76 82 78 84 80 72 68 68 68 67 66 37 33 33 35 36 38 40 42 45 53 59 75 89 81 91 93
36 39 40 38 39 40 39 38 41 48 53 58 66 69 71 72 74 76 82 88 82 75 71 67 64 69 36 36 34 33 36 38 43 48 50 54 58 70 79 94 98 96 98
36 36 36 38 37 38 38 40 41 40 43 55 63 63 65 68 70 75 84 95 87 77 64 60 60 39 37 35 38 38 43 44 47 49 52 55 64 75 73 86 93 100 100
36 35 35 32 33 35 37 39 41 42 51 58 59 62 62 66 69 77 75 69 74 80 71 49 39 37 37 41 39 43 47 48 49 51 54 57 58 61 62 71 99 93 100
32 32 31 31 32 36 37 41 43 43 45 45 44 50 63 66 84 69 73 69 63 51 45 40 41 41 41 42 45 47 47 51 53 54 56 58 59 59 69 87 95 96 99
29 31 32 34 42 39 39 42 45 46 46 44 43 47 57 67 62 55 54 54 52 56 48 48 46 47 45 44 50 52 52 54 58 59 60 64 64 72 82 94 96 96 94
34 32 29 29 30 44 46 46 46 48 47 49 51 51 54 56 53 50 50 47 57 54 58 60 62 59 53 50 56 57 58 59 61 69 66 71 74 77 90 96 98 97 96
35 32 30 29 29 30 41 49 49 49 50 51 54 57 59 52 53 57 59 63 61 55 56 57 64 62 58 57 60 61 64 65 64 71 76 79 80 87 98 99 98 99 98
35 34 33 32 31 28 31 36 47 54 55 56 58 60 60 55 61 60 58 52 58 67 75 66 59 58 61 64 66 67 64 64 72 76 84 90 98 100 100 100 100 97 98
36 33 35 35 35 34 35 37 43 54 60 63 64 62 62 64 58 56 58 74 75 68 66 62 60 63 67 69 68 68 69 72 78 88 98 100 99 99 100 100 100 100 100
39 39 39 42 44 43 40 41 43 50 63 70 72 72 70 66 61 62 69 67 67 69 66 67 66 67 71 76 73 71 72 83 99 100 99 100 99 100 98 99 99 99 92
42 40 41 42 44 44 45 48 47 54 63 72 77 77 75 69 65 66 63 67 70 70 72 73 71 76 78 80 81 77 94 100 100 100 100 99 99 63 53 51 59 43 33
50 47 45 45 45 44 44 48 50 58 65 71 76 76 79 75 68 66 69 72 73 73 71 72 76 77 81 93 99 97 100 100 98 96 99 98 49 17 13 12 11 10 9
50 49 52 49 46 42 42 48 49 60 67 70 72 71 71 70 70 71 73 75 76 74 72 72 74 80 88 98 98 100 99 100 100 100 92 32 16 16 18 15 14 14 14
52 54 58 57 54 49 52 51 48 59 67 66 67 70 72 71 72 75 76 77 76 73 74 76 80 86 94 98 96 98 93 89 71 41 16 14 18 21 19 9 14 15 16
55 59 60 60 56 53 57 53 50 61 61 66 70 73 73 75 76 78 78 79 78 74 74 76 83 90 99 99 99 94 63 25 15 14 16 20 19 12 12 9 18 19 20
60 64 64 65 60 62 68 57 53 49 67 70 73 76 77 79 80 80 81 81 79 77 75 80 86 98 100 99 99 89 28 15 15 17 19 20 18 16 13 10 11 17 19
66 70 68 68 67 72 76 73 64 56 63 76 76 78 80 82 82 81 82 80 82 76 78 85 93 99 100 99 99 80 25 15 14 18 21 21 22 20 16 12 11 12 14
68 72 71 70 69 75 79 78 78 78 80 81 80 85 85 88 87 83 81 81 81 82 85 92 95 100 100 99 99 86 29 19 13 14 16 17 19 20 18 15 14 13 14
87 80 73 72 72 74 78 78 80 83 85 89 94 93 90 90 87 84 82 82 88 89 93 96 100 100 99 98 100 94 37 21 21 17 15 14 13 13 13 14 15 15 15
97 90 77 78 83 78 77 78 79 79 82 84 84 88 90 92 90 87 86 91 97 99 98 100 100 100 98 99 99 99 52 27 32 30 20 17 17 15 14 14 14 14 14

GFSMW_850_rhum_096.txt.gz
RH
64 63 69 69 72 79 72 70 64 54 62 66 65 43 44 52 82 86 80 81 81 82 82 82 78 81 82 88 90 86 91 88 85 82 79 78 75 75 70 61 61 67 68
70 67 64 63 66 74 78 76 65 60 63 58 60 64 55 61 79 84 87 83 82 79 81 83 83 85 81 86 86 91 87 84 85 83 84 86 72 60 67 72 71 76 73
54 52 62 65 69 70 73 76 75 75 74 65 66 62 67 71 77 78 71 84 87 84 84 87 86 86 85 88 84 84 89 84 79 83 90 89 83 83 80 82 80 76 79
52 49 48 48 60 64 64 73 76 78 80 79 79 78 82 81 72 63 69 83 85 87 87 85 81 84 64 64 76 72 86 94 92 79 83 80 94 100 90 89 87 82 77
48 47 46 43 41 44 55 66 69 72 74 75 77 74 78 76 79 76 79 85 83 83 80 85 99 83 68 64 71 64 72 62 44 40 41 43 48 63 94 92 76 88 85
45 45 44 43 41 41 41 43 47 58 67 69 71 73 72 72 71 70 75 81 85 89 88 100 88 84 82 73 74 51 39 38 38 38 40 44 51 56 65 80 73 79 90
42 41 41 42 39 38 37 39 41 41 55 55 62 64 68 70 73 72 74 80 87 96 100 97 94 96 86 61 42 39 36 38 37 44 45 47 53 64 71 86 92 88 90
36 36 39 39 40 37 38 41 40 40 39 47 54 59 63 67 69 71 73 77 83 88 98 86 82 86 77 57 40 37 38 39 41 43 45 47 50 58 76 85 87 99 100
38 37 37 36 36 36 36 37 39 40 42 44 49 56 64 66 64 66 67 78 87 85 82 73 69 69 76 48 39 39 43 43 45 45 48 51 54 59 67 71 71 91 95
33 34 34 34 32 31 31 36 38 41 43 46 53 55 49 49 57 63 82 81 74 71 76 78 66 50 41 42 42 45 46 45 47 52 54 55 56 60 64 65 79 98 100
31 30 29 30 35 42 39 39 39 42 43 44 46 45 44 46 56 83 94 82 72 68 54 49 47 55 57 63 66 63 58 51 53 56 56 58 61 64 67 84 98 99 92
36 34 32 31 30 32 46 44 44 47 48 48 48 47 46 48 60 68 65 60 55 52 54 59 59 65 62 58 58 56 55 55 58 59 62 69 69 68 75 88 99 97 92
36 34 34 33 32 31 34 45 52 52 52 51 50 50 52 54 60 61 57 53 56 60 68 71 66 58 60 64 62 57 58 58 60 64 68 74 77 82 96 96 98 98 99
38 34 33 32 33 33 32 32 35 45 54 56 57 56 56 58 60 60 54 58 69 70 66 57 64 70 66 59 61 64 64 63 67 72 81 80 87 99 100 99 99 98 99
37 38 36 35 35 36 36 35 37 38 42 48 56 61 64 67 65 61 62 60 62 57 68 72 74 64 62 64 66 66 69 69 70 76 89 96 99 98 99 99 99 99 96
44 43 42 42 39 38 40 43 42 41 46 50 53 66 70 70 68 65 65 59 64 69 69 60 61 65 66 67 67 68 69 71 79 97 99 99 98 98 99 100 100 100 99
46 44 42 42 43 43 44 44 44 46 49 53 59 70 75 77 76 71 64 63 66 63 64 64 66 68 70 74 76 72 69 78 96 99 99 98 98 98 68 58 83 93 94
51 51 48 46 44 44 43 44 44 44 47 54 60 69 79 82 81 76 68 69 66 66 67 69 69 71 77 81 85 97 96 99 97 98 97 99 100 67 22 14 13 12 11
64 64 56 53 53 52 51 50 43 43 50 52 62 69 76 81 82 78 76 70 70 70 72 73 73 78 84 89 93 99 100 100 99 99 98 100 60 19 16 16 17 16 15
58 58 56 59 58 56 60 54 50 49 51 50 59 70 75 80 78 72 70 72 74 76 77 75 76 80 84 90 94 96 97 95 99 97 88 40 16 17 23 17 12 16 16
63 64 60 60 64 65 65 59 57 57 51 55 68 75 76 76 74 73 73 76 78 79 78 76 73 75 79 87 96 96 94 84 58 32 18 16 19 18 17 14 14 20 18
65 62 68 66 68 70 71 65 67 62 59 59 74 78 76 78 80 79 81 83 83 82 78 72 70 75 82 94 99 95 95 72 23 15 16 19 21 20 15 11 11 21 21
89 75 76 82 68 73 73 70 73 77 68 62 75 78 80 80 80 81 83 85 85 82 76 72 75 81 90 99 99 100 96 51 16 13 18 22 21 21 20 16 13 12 15
94 96 97 86 84 76 74 74 80 82 80 73 74 81 83 82 85 86 88 87 87 83 79 79 83 88 94 99 100 99 98 66 22 15 17 21 21 20 21 19 16 13 14
90 90 99 94 91 82 77 78 80 84 88 90 85 86 86 87 90 91 92 92 91 88 85 87 88 91 92 99 100 100 99 84 30 23 16 14 15 15 16 17 16 15 16
100 99 98 100 96 92 87 82 83 84 89 91 90 90 95 96 97 99 100 97 95 92 93 93 94 98 100 100 99 99 99 92 41 27 22 17 16 17 15 15 16 16 16

GFSMW_850_rhum_102.txt.gz
RH
80 76 86 99 92 80 69 71 87 81 71 55 59 73 81 80 75 74 70 77 83 85 84 86 92 92 85 75 72 84 98 88 82 86 84 85 90 80 58 62 52 51 60
89 89 87 85 100 86 93 89 86 75 70 88 71 63 76 73 75 72 79 78 78 82 88 87 85 88 95 85 88 95 87 84 92 82 84 75 70 79 55 54 61 68 68
95 90 75 67 83 97 97 86 79 74 67 61 84 75 72 75 74 65 66 75 69 71 78 80 82 90 97 93 83 85 84 96 86 83 84 80 66 79 85 75 74 74 73
80 99 96 92 72 74 67 74 71 74 65 60 75 82 90 83 73 66 61 66 75 74 75 84 85 80 90 99 96 89 91 91 88 89 89 94 97 88 68 94 70 68 77
74 90 98 90 91 88 78 67 79 68 76 86 88 85 84 80 79 76 60 60 68 63 66 74 83 82 86 99 99 100 100 88 90 88 67 46 37 48 87 71 76 83 70
65 63 62 63 64 74 80 78 84 74 81 90 80 80 80 84 84 83 76 70 67 68 60 75 86 89 86 82 92 88 92 86 83 54 47 41 40 68 82 79 78 81 93
52 51 48 48 50 49 51 63 70 78 76 79 79 79 80 81 82 85 82 75 68 74 73 80 85 85 88 89 89 75 79 76 60 49 56 52 48 38 44 70 82 91 95
50 46 44 43 42 44 43 43 45 48 56 63 69 69 72 74 74 73 70 71 74 74 78 98 100 97 89 85 77 74 75 69 68 68 45 41 43 47 46 46 62 95 91
43 41 38 37 36 37 40 40 38 38 41 44 45 52 65 62 62 66 70 72 74 76 93 100 100 99 100 98 87 87 81 79 78 50 44 48 48 52 56 59 61 73 94
38 34 33 33 35 35 36 37 37 37 39 42 44 44 46 57 57 61 67 67 71 80 97 99 100 94 83 86 84 85 82 67 50 47 54 53 51 51 50 56 65 68 86
44 35 34 32 30 36 41 35 34 36 39 39 42 47 54 60 58 51 47 47 58 85 100 100 92 83 82 81 75 65 50 54 63 62 59 56 55 56 59 64 64 61 74
40 36 34 34 33 32 33 47 45 44 45 45 45 48 52 48 45 45 44 48 64 97 100 98 89 85 62 49 49 54 64 62 60 60 56 57 57 58 64 66 65 70 96
48 45 40 38 38 39 38 37 46 53 51 52 53 52 49 48 48 47 48 57 82 99 97 90 84 54 50 55 64 64 62 65 58 56 57 57 61 65 68 68 73 79 92
51 53 52 46 42 40 40 41 40 43 50 56 56 56 54 53 51 49 53 78 98 97 92 77 54 54 62 70 61 65 65 61 58 58 58 62 66 72 73 75 79 92 99
57 59 60 58 54 46 44 44 45 47 44 48 53 57 61 60 57 56 58 68 77 75 66 58 59 68 73 62 69 70 62 60 59 59 61 63 66 71 74 82 90 97 99
60 61 61 51 49 52 48 44 42 43 46 52 51 53 58 62 65 65 67 71 72 68 62 62 74 72 63 72 72 62 61 61 62 64 67 69 72 86 98 98 98 98 99
66 64 64 64 61 52 46 43 46 48 45 43 44 51 57 61 65 70 70 71 74 71 66 73 68 68 73 65 62 62 62 64 65 63 68 78 90 100 99 99 94 90 98
61 64 67 72 68 57 57 56 48 45 46 50 49 43 46 56 66 74 79 78 75 71 70 70 71 75 67 65 66 62 62 64 62 64 73 88 98 98 98 98 53 24 51
63 65 69 75 80 82 76 77 67 66 60 53 52 51 48 48 65 74 79 80 79 77 74 70 75 68 68 69 67 63 64 64 67 71 93 100 99 99 98 80 22 18 15
74 78 79 80 82 68 77 84 79 66 76 68 65 63 55 53 54 73 82 84 83 79 74 75 73 72 73 70 66 63 64 67 71 76 96 99 98 99 94 22 17 18 17
77 77 79 80 81 86 92 91 92 89 74 74 75 72 66 60 57 61 82 87 88 84 79 81 77 76 76 73 67 67 69 76 79 84 97 100 99 97 24 20 21 16 16
98 100 99 99 99 99 100 98 95 100 88 80 78 76 74 76 66 66 80 90 92 89 84 83 82 82 81 76 72 71 76 84 87 88 78 68 49 18 16 19 20 13 15
91 95 94 99 99 99 100 100 98 100 100 99 90 78 79 88 78 74 88 96 97 92 89 85 86 85 82 79 77 76 85 92 92 86 53 27 20 20 23 19 15 11 18
100 100 100 99 98 100 99 99 99 100 100 100 94 86 82 96 87 88 96 97 95 94 90 88 87 87 83 77 78 84 91 94 94 88 40 22 21 24 26 23 20 15 15
100 100 99 100 98 97 98 99 100 98 100 100 100 90 90 100 98 99 97 97 92 84 79 82 85 86 78 74 82 85 87 92 93 95 41 20 21 24 26 27 27 24 18
100 99 98 97 93 99 98 99 100 100 100 100 98 92 99 100 100 100 100 100 96 91 92 97 96 89 84 90 88 86 92 98 98 99 73 30 19 20 24 24 24 25 22

GFSMW_850_rhum_105.txt.gz
RH
83 81 89 93 97 87 98 90 92 77 88 85 89 82 69 72 66 54 53 72 75 88 91 97 97 96 96 95 89 87 86 89 84 85 81 77 75 80 84 86 84 81 51
90 79 90 100 97 100 92 100 91 79 85 89 80 91 95 89 84 72 62 62 64 75 82 85 92 92 96 96 91 87 88 90 91 91 80 72 65 73 70 61 61 64 62
100 96 100 92 80 87 99 96 90 88 84 88 90 89 83 88 92 92 83 81 81 76 77 81 89 88 90 96 94 94 92 87 91 89 75 70 70 67 72 80 71 62 68
100 90 90 88 78 82 100 89 82 68 87 91 89 83 83 85 83 78 81 76 76 74 75 77 81 80 85 84 87 99 99 99 93 92 84 86 80 90 66 76 76 66 60
100 84 82 93 87 83 99 96 84 83 81 91 96 84 88 81 78 85 89 87 83 80 72 71 77 76 75 81 76 84 83 99 100 92 85 81 69 53 72 71 67 81 73
84 76 76 79 86 89 84 83 89 81 79 68 74 82 75 65 68 70 89 89 83 82 69 58 56 69 80 87 78 85 78 81 88 80 72 78 76 73 65 73 67 70 78
83 85 83 81 79 82 82 88 85 80 80 79 77 71 60 69 65 64 64 72 70 80 64 62 62 79 84 88 96 95 89 74 81 82 80 67 59 61 60 76 74 79 83
62 61 58 57 54 49 59 69 70 74 80 81 82 87 81 81 80 82 86 76 82 80 77 67 85 95 99 100 100 100 94 90 86 81 64 54 54 46 47 51 60 77 82
59 50 50 57 44 45 47 45 48 51 52 56 68 77 76 77 76 82 86 82 76 73 70 78 99 99 100 100 100 95 85 87 83 74 65 73 55 41 42 44 47 57 82
47 50 44 45 50 48 45 46 47 48 49 50 49 51 49 55 66 68 66 67 66 68 70 77 84 98 99 95 91 93 91 88 84 80 70 51 46 52 51 52 57 63 84
42 46 49 50 49 52 55 48 45 45 46 47 50 50 49 50 60 60 61 62 65 64 67 72 88 100 100 100 96 90 87 87 81 60 50 57 60 57 57 56 59 62 69
43 44 44 42 39 39 40 48 53 50 52 53 52 57 60 62 67 65 58 53 50 50 67 83 100 100 99 84 81 82 81 62 51 61 63 60 60 57 57 60 64 61 70
46 46 47 48 50 45 40 43 44 46 56 58 60 64 67 66 60 55 52 52 52 55 70 98 99 100 88 80 70 52 49 54 65 62 62 59 56 58 61 63 71 80 86
52 54 53 51 51 51 52 44 41 43 45 45 52 58 60 60 59 60 55 55 61 85 100 100 100 99 86 70 50 54 64 63 65 62 60 62 62 65 70 75 75 80 84
52 53 53 52 52 52 54 51 41 40 40 42 45 47 51 58 61 60 58 63 83 100 100 100 100 96 80 53 57 69 64 67 66 61 59 59 59 63 67 73 78 80 84
53 54 54 54 56 57 60 51 56 54 43 41 40 41 45 49 52 57 62 64 74 100 99 100 100 88 58 58 72 68 67 70 61 60 59 59 63 68 70 75 84 88 94
48 49 51 55 59 55 55 52 57 54 47 49 48 47 44 42 47 52 60 68 69 76 90 95 84 65 63 73 71 67 74 63 63 61 62 62 65 72 80 88 94 98 97
43 47 50 53 57 58 58 62 61 63 62 58 53 50 55 57 50 47 56 59 66 72 77 78 72 67 72 71 68 75 64 64 64 65 62 62 66 76 91 97 97 77 53
52 58 63 65 67 67 69 70 68 66 67 71 77 78 66 66 66 59 53 64 69 72 74 78 76 71 72 68 74 65 67 67 68 64 64 65 76 94 99 98 97 46 20
66 71 76 77 75 76 78 80 78 79 79 76 68 67 64 79 83 75 71 61 78 75 78 78 76 75 74 77 71 68 70 72 70 66 70 82 98 99 99 99 71 22 17
70 67 75 82 87 90 95 98 96 90 86 88 87 84 83 73 68 80 91 78 75 90 84 84 81 78 79 78 72 72 74 75 72 75 76 86 100 100 99 95 26 21 17
74 79 86 89 92 94 95 96 99 98 99 97 85 91 89 92 93 76 82 99 93 91 96 89 86 83 82 78 76 78 79 79 81 80 80 83 95 98 92 33 20 22 16
86 96 99 98 98 98 98 98 97 98 98 98 98 92 96 100 99 99 79 100 100 100 98 95 88 86 87 85 79 79 79 79 83 85 83 79 66 64 28 17 20 20 15
95 100 100 100 99 99 99 100 100 100 100 99 98 98 100 100 100 100 100 100 100 100 100 96 92 87 86 84 82 80 80 82 89 88 86 71 38 24 22 24 21 15 14
99 100 100 100 100 100 96 99 100 100 100 100 99 99 98 98 100 100 100 100 100 97 95 94 94 89 84 80 78 79 75 76 86 89 89 66 34 23 28 29 24 22 16
98 100 100 99 96 100 93 87 93 99 100 98 99 100 100 100 99 98 100 100 100 100 100 100 98 90 88 86 90 82 81 87 92 92 92 78 42 24 23 23 24 24 23

GFSMW_850_rhum_108.txt.gz
RH
62 67 66 67 84 97 93 86 92 89 78 69 67 76 85 89 88 98 92 90 94 81 73 78 90 92 88 85 87 86 85 82 81 84 72 74 74 76 82 79 73 72 62
66 93 67 76 95 98 98 96 100 84 79 68 57 55 67 76 81 78 80 82 88 86 78 77 85 90 92 93 94 90 86 86 82 87 82 81 78 81 75 67 56 64 61
88 97 81 91 96 85 98 96 97 92 88 78 76 71 70 91 95 85 72 66 65 68 73 84 90 88 86 88 88 90 90 88 91 86 80 77 67 70 71 68 59 62 53
100 94 79 82 90 91 92 94 100 92 91 92 77 77 82 70 72 83 87 86 84 83 84 85 84 84 80 79 81 79 86 87 94 96 91 87 77 75 76 80 82 70 67
100 96 86 80 70 80 90 99 99 92 90 97 87 86 88 88 87 89 82 85 82 88 84 84 81 80 77 69 68 68 60 71 83 94 91 91 76 69 49 68 68 66 81
100 92 85 64 62 88 96 100 99 93 86 80 85 75 82 83 85 80 81 85 82 83 85 84 77 77 73 70 72 74 74 57 77 88 98 86 81 85 79 85 76 68 73
100 86 76 69 82 91 82 81 78 70 66 78 75 66 75 73 80 78 80 82 78 76 70 74 75 75 78 72 64 62 82 72 83 93 98 99 100 86 79 77 75 70 79
96 92 86 87 83 80 90 88 86 83 76 75 69 75 63 83 93 79 82 80 76 64 64 64 75 80 79 73 68 67 85 99 97 100 100 96 92 81 59 60 55 56 58
81 63 62 62 64 64 65 73 92 92 93 92 91 87 89 81 83 76 86 78 81 75 70 67 82 92 86 65 83 86 100 100 100 99 98 91 66 57 52 43 42 44 50
52 53 57 63 63 59 54 54 56 59 62 69 80 84 87 81 80 79 74 76 75 77 75 76 82 74 83 86 96 100 100 100 98 100 88 74 69 77 55 46 50 54 61
47 50 53 54 52 57 58 54 47 47 50 53 60 71 80 88 76 67 74 75 69 64 68 67 64 77 84 92 99 100 97 90 92 94 88 85 74 51 50 56 56 56 59
47 48 50 50 50 48 48 45 47 54 53 49 50 60 64 67 73 94 85 78 72 66 66 71 79 86 92 99 99 96 95 98 93 91 86 64 52 60 62 60 59 58 61
53 52 52 51 52 51 50 46 44 44 45 48 55 56 57 62 67 76 76 69 66 65 69 78 95 99 99 99 100 100 89 86 82 71 54 62 64 62 61 59 60 63 70
53 54 53 52 52 51 52 50 45 44 43 43 46 50 55 59 58 56 54 53 55 57 62 79 100 99 100 100 100 88 82 67 51 52 64 63 62 59 56 58 66 75 72
51 51 51 53 56 57 58 52 55 58 54 42 40 41 41 45 51 59 60 57 56 55 58 86 98 99 100 100 99 88 66 49 53 64 64 64 61 56 58 62 67 71 73
42 39 40 42 45 49 50 51 52 55 58 61 63 58 53 51 47 46 50 57 59 59 60 87 99 100 100 100 99 84 52 55 66 65 68 63 58 59 62 65 74 77 80
39 26 28 29 33 36 38 39 45 48 50 54 59 56 61 66 68 60 59 61 57 60 68 72 90 93 97 100 100 66 58 71 67 70 66 60 60 62 71 78 83 88 86
36 35 44 44 38 35 36 32 29 33 40 46 54 60 69 65 66 71 76 71 76 78 66 69 85 95 98 99 80 63 73 74 73 72 63 61 62 62 67 76 81 85 91
54 55 48 45 45 58 57 44 37 44 59 72 76 71 75 80 84 84 72 69 81 85 91 85 78 83 92 86 66 66 78 72 78 68 65 62 60 62 70 85 92 92 85
70 71 69 71 72 74 75 74 75 78 71 62 69 86 89 86 82 81 95 96 81 69 76 93 94 90 84 78 71 74 72 77 73 67 66 64 66 76 86 95 99 98 67
70 76 84 88 90 98 92 95 94 96 100 95 92 85 84 92 94 89 86 86 98 92 74 72 93 99 93 86 79 76 73 75 68 66 66 65 68 80 98 99 99 89 32
72 74 66 58 69 91 100 100 100 100 100 99 95 98 97 94 91 96 95 98 95 100 100 90 82 98 100 94 86 80 78 75 70 67 67 70 76 88 99 98 100 47 21
74 67 63 68 78 98 100 99 98 99 100 100 96 98 98 96 93 94 97 98 100 98 100 100 99 85 97 98 90 87 83 77 75 72 71 75 82 95 100 100 92 25 22
55 51 51 65 91 98 97 100 100 100 100 96 93 91 99 98 99 99 96 97 96 100 100 98 100 100 91 100 93 91 89 84 80 79 78 81 82 84 97 82 28 23 23
48 48 59 85 100 96 92 96 89 90 94 91 90 94 97 99 100 99 100 99 86 98 99 98 99 100 96 93 93 87 85 86 82 85 89 88 80 68 67 35 23 24 20
46 55 69 96 99 100 96 96 98 91 89 92 91 93 94 97 99 100 99 99 100 100 100 100 100 100 99 99 99 94 93 91 91 94 89 90 78 62 41 28 25 26 21

GFSMW_850_rhum_111.txt.gz
RH
51 55 56 52 65 75 86 75 92 91 100 89 98 99 88 77 75 75 78 81 66 66 59 57 63 70 68 66 69 68 77 82 81 79 80 77 77 74 72 72 75 75 70
54 55 56 62 72 75 74 87 98 93 91 100 99 92 90 85 88 85 78 71 79 84 76 72 77 89 88 91 88 88 87 84 80 82 77 77 74 74 73 78 77 55 51
56 65 96 99 97 81 72 92 100 97 83 90 94 97 95 79 82 85 94 91 89 88 92 78 83 92 93 78 86 88 86 87 86 85 88 87 77 78 84 84 71 55 63
62 84 95 84 72 78 83 87 80 100 95 86 79 78 69 75 72 70 74 78 74 90 89 89 95 93 92 94 91 86 83 82 81 87 82 88 92 79 81 77 74 78 76
70 92 96 83 69 82 91 93 86 98 89 86 89 82 73 76 70 68 70 71 79 85 94 88 90 87 86 85 80 78 73 69 71 69 63 80 91 89 77 77 78 86 83
89 98 98 70 97 93 100 94 96 100 93 96 90 84 79 80 82 85 83 82 93 85 81 89 85 82 78 84 82 72 70 76 74 74 87 70 80 94 92 70 67 78 85
100 97 88 90 94 91 87 100 100 100 95 100 94 89 90 88 95 89 85 85 92 93 88 94 81 77 78 81 84 78 72 76 78 77 72 98 81 100 97 90 81 78 76
100 100 100 100 99 99 94 94 92 93 87 88 90 86 84 87 84 81 82 81 81 77 81 88 99 86 77 87 96 88 71 78 80 63 78 96 91 100 99 99 90 79 75
87 89 81 70 66 69 72 89 99 97 92 93 97 71 64 77 71 72 70 84 74 78 89 88 80 77 80 80 86 100 88 92 82 79 81 99 95 100 99 86 63 61 62
74 72 72 73 75 68 64 58 60 74 86 91 87 78 78 86 89 90 85 84 75 84 85 85 85 78 79 78 80 100 98 93 74 82 95 99 98 95 71 60 55 49 53
54 54 52 52 53 55 60 65 64 62 59 58 64 72 79 88 84 75 79 82 82 77 75 78 74 74 73 80 95 100 100 95 88 98 100 91 95 80 66 75 66 51 53
53 53 53 54 54 52 48 48 48 51 61 64 62 71 83 84 81 77 65 56 55 65 69 69 70 69 71 74 92 99 99 85 98 97 94 93 90 80 84 65 50 60 59
53 54 55 57 58 59 56 51 48 47 45 45 46 54 60 63 69 75 78 81 82 74 70 73 76 74 89 99 100 98 99 99 96 92 94 94 91 86 59 55 62 62 61
48 47 49 53 56 58 54 50 46 45 42 41 40 41 43 46 47 53 62 65 65 63 61 57 53 53 71 98 99 100 99 100 100 100 93 90 75 56 64 64 63 61 60
37 32 30 32 29 27 27 25 28 34 41 46 45 46 47 48 50 52 55 53 58 63 62 60 61 73 73 69 94 99 100 100 100 94 89 63 60 67 66 64 64 65 64
43 35 21 21 35 37 37 31 28 27 28 26 27 29 35 46 50 51 53 61 63 68 74 72 70 69 73 89 100 100 98 95 99 87 59 59 67 67 65 61 63 67 67
43 34 44 52 47 45 46 47 62 56 50 48 46 44 41 41 43 50 60 63 62 66 70 82 92 93 93 99 100 100 100 98 97 64 58 68 66 67 61 61 63 64 64
31 35 44 52 49 43 38 36 38 41 42 47 55 62 72 76 69 60 57 60 65 69 69 69 78 95 100 100 97 98 99 100 80 72 72 69 70 65 62 63 66 68 69
15 23 34 34 27 25 25 22 22 31 37 46 60 73 80 75 76 80 80 69 74 89 91 82 77 75 85 98 100 100 100 100 83 72 74 68 70 61 61 63 64 68 75
39 39 26 26 36 37 38 39 40 34 30 30 33 42 60 74 85 95 97 89 84 78 75 89 96 87 72 81 97 100 100 99 75 80 75 71 67 60 60 59 65 70 78
51 43 59 69 68 60 58 60 73 66 70 61 64 60 58 61 70 76 96 100 98 90 82 77 78 92 98 87 81 94 99 91 80 81 75 73 67 65 60 61 64 71 89
62 70 77 78 79 91 98 99 98 97 97 98 98 86 75 76 76 76 80 88 95 100 92 89 88 80 95 100 100 94 91 91 87 84 77 76 70 68 65 67 76 88 95
55 57 60 68 72 92 100 98 98 98 98 99 100 99 85 82 85 85 97 93 90 96 100 93 96 75 82 98 100 100 98 93 94 89 84 81 80 75 83 78 92 96 92
52 57 65 72 72 78 94 99 99 100 100 100 100 100 100 99 94 93 98 100 100 100 100 100 100 98 80 99 98 99 100 100 97 96 93 92 86 84 88 97 100 99 90
57 61 66 66 68 62 71 77 83 82 99 100 100 100 100 100 100 100 99 98 99 100 100 98 99 99 99 93 98 100 100 99 95 95 99 99 95 93 98 99 100 100 57
56 56 57 56 61 48 67 74 76 77 88 93 100 100 100 100 100 100 97 90 95 98 100 100 100 98 98 96 100 100 100 100 100 100 100 98 92 89 92 90 98 76 29

GFSMW_850_rhum_114.txt.gz
RH
31 33 51 51 54 49 49 61 86 79 85 90 97 100 82 100 98 79 86 86 87 91 92 81 74 68 54 56 68 64 61 71 78 77 76 82 81 77 78 74 74 72 76
36 60 50 52 49 46 55 75 85 82 82 81 99 94 98 99 80 87 86 86 82 91 88 81 76 66 63 71 63 61 67 78 80 81 79 82 84 82 80 75 71 76 79
51 53 50 52 52 74 76 77 86 81 81 76 100 100 100 100 91 80 85 89 90 87 81 69 64 59 76 71 74 74 75 79 83 85 80 85 79 78 78 77 75 79 78
60 55 56 68 85 98 92 88 86 77 60 80 100 100 100 100 89 89 84 83 80 78 66 64 74 77 82 80 70 85 82 80 76 78 82 79 79 77 81 83 86 84 74
53 56 61 75 90 90 88 98 95 85 57 71 100 97 99 100 99 95 85 81 83 77 86 88 91 87 100 91 89 75 75 79 83 79 71 73 78 86 79 89 88 90 81
64 64 78 85 87 93 100 100 99 94 67 97 98 97 95 91 95 90 86 88 89 85 83 80 77 78 80 80 71 89 84 79 77 74 73 71 79 79 98 87 86 86 83
72 88 99 99 94 80 100 99 100 92 89 98 100 98 97 88 93 82 83 83 83 81 78 77 77 76 71 82 88 80 75 74 82 78 75 75 79 87 81 95 86 80 79
98 99 94 97 91 94 98 98 100 99 100 100 98 100 98 95 94 96 90 87 85 85 85 84 80 86 86 93 91 86 82 85 86 84 82 78 80 98 84 86 99 94 88
94 87 89 90 84 81 83 91 91 90 94 98 91 92 97 94 84 80 83 92 82 74 73 72 83 88 92 86 89 84 79 77 83 90 86 84 79 96 100 85 100 99 95
75 78 80 83 83 82 78 73 74 91 95 94 98 100 88 87 82 82 83 83 79 85 77 69 79 84 94 87 82 88 88 87 88 91 97 90 95 87 97 99 100 90 76
72 63 61 61 60 58 61 69 76 81 80 74 66 82 87 87 88 91 93 97 91 91 89 90 82 86 93 86 80 95 99 93 88 94 100 99 94 98 95 99 97 74 63
61 61 60 60 60 59 57 56 54 51 53 62 71 73 76 75 80 84 86 85 78 72 71 78 82 78 80 85 82 87 96 99 100 100 100 99 100 100 99 99 74 63 70
53 54 54 53 51 51 51 52 53 53 52 49 50 51 58 67 72 73 74 77 83 91 96 90 88 97 95 90 76 71 77 89 98 100 98 100 100 97 99 85 74 81 67
32 26 24 26 23 22 22 22 23 28 32 36 39 41 44 47 49 52 58 67 73 77 80 77 77 74 77 92 95 100 99 87 84 98 99 100 95 91 94 88 87 68 60
42 35 33 34 36 34 33 28 30 27 22 17 13 15 18 26 35 42 45 50 55 59 68 76 79 78 85 79 75 89 100 100 99 100 98 99 100 100 97 91 63 64 67
46 42 39 37 36 35 33 31 27 22 26 28 27 28 29 28 26 22 20 31 47 54 60 64 67 76 79 100 100 100 100 100 100 100 100 99 99 97 86 60 67 66 62
38 28 37 34 38 36 36 42 38 43 50 48 47 46 41 36 36 37 37 38 34 28 40 55 62 70 71 81 99 100 100 99 100 100 99 99 100 90 60 66 67 64 61
35 38 40 50 51 44 44 40 38 39 39 38 40 41 46 54 61 65 62 57 50 46 43 41 58 74 74 78 81 95 100 100 100 100 100 98 94 71 74 70 67 60 60
37 38 33 28 27 32 34 30 25 28 32 34 42 51 60 62 71 87 91 84 83 76 66 59 55 52 68 83 88 94 97 100 100 100 100 100 85 71 86 84 68 62 61
15 14 16 17 17 16 18 17 17 18 21 25 34 45 48 53 57 63 74 88 96 98 95 95 76 68 57 63 85 98 100 96 100 100 100 100 94 95 91 86 79 66 59
17 24 23 22 23 23 23 23 27 32 41 38 34 38 43 50 54 56 63 72 86 99 100 99 91 82 72 64 65 93 100 100 98 98 99 99 98 93 92 89 82 69 66
25 23 20 21 23 30 34 32 43 56 56 56 52 46 47 52 58 66 69 73 77 93 100 99 95 84 80 80 79 77 95 97 100 98 97 98 91 93 96 97 84 78 81
40 42 44 48 58 68 80 98 92 99 99 100 98 98 98 87 69 73 78 93 94 99 98 100 100 100 96 79 77 71 79 99 99 99 100 98 89 96 99 98 88 99 86
39 49 59 60 61 77 81 96 92 98 91 100 100 100 100 100 96 96 100 100 100 100 100 99 99 100 100 97 82 80 74 90 100 100 100 99 100 100 100 100 98 99 98
60 69 70 64 53 65 62 75 91 89 88 100 95 90 94 99 100 100 100 100 100 100 100 99 100 100 100 99 98 97 93 90 100 100 100 100 100 100 100 100 100 91 100
52 60 64 58 54 64 66 73 95 90 92 89 94 96 100 100 100 100 96 93 100 93 96 100 100 98 100 100 100 99 99 95 100 100 100 100 100 100 99 98 98 98 100

GFSMW_850_rhum_117.txt.gz
RH
32 26 23 28 39 59 51 44 42 44 60 76 80 77 79 70 65 82 78 98 98 98 90 96 69 72 81 57 56 55 64 68 73 85 84 84 82 81 80 80 77 75 71
30 29 27 31 47 56 48 44 39 44 72 85 85 95 93 90 83 91 76 97 99 97 89 70 61 84 73 62 60 63 61 70 78 82 88 82 80 83 81 79 80 76 74
40 52 41 60 55 45 42 38 35 59 77 86 90 90 99 100 100 99 79 100 100 96 86 79 89 89 72 64 61 65 70 77 72 86 83 83 81 80 82 83 83 80 74
47 55 63 60 50 45 63 65 75 75 87 88 73 100 97 100 100 98 97 100 100 92 92 90 86 85 81 73 65 71 78 79 78 86 87 82 79 78 82 83 84 85 87
51 52 58 57 54 75 83 85 84 91 92 87 89 100 96 100 100 98 100 96 94 96 87 75 81 88 81 78 70 82 80 85 82 80 82 82 84 81 80 76 80 90 91
56 60 71 73 88 89 96 99 88 88 92 93 99 98 94 100 100 99 93 90 89 83 89 93 89 76 72 74 79 92 88 78 77 78 85 88 84 83 77 84 87 85 88
81 90 92 95 95 100 99 99 99 95 98 99 99 99 94 99 97 99 100 100 97 93 94 86 81 74 69 70 72 79 75 71 74 82 81 84 85 86 83 80 86 90 92
100 97 98 92 89 87 100 100 99 100 100 100 100 96 96 98 97 94 93 100 96 97 95 91 92 92 88 86 92 90 81 78 86 84 80 78 85 86 83 83 85 98 93
100 100 100 92 94 91 98 100 98 95 100 100 98 99 100 100 97 94 96 89 87 84 86 96 89 87 94 87 89 97 94 95 83 96 88 94 87 92 91 90 92 97 99
90 87 83 78 77 84 92 91 94 96 97 97 98 95 96 96 92 90 91 86 86 83 83 76 74 81 78 84 90 87 90 98 94 94 92 93 95 95 98 98 98 100 100
77 67 64 64 62 63 64 63 65 72 80 88 96 100 100 100 100 100 100 96 97 98 93 84 86 85 82 82 82 88 94 95 91 91 88 93 94 100 99 100 100 100 99
54 52 50 45 42 40 42 45 48 50 52 55 65 74 80 86 91 98 98 99 98 95 100 95 93 100 97 80 80 88 98 100 100 96 86 100 99 95 99 99 99 100 100
26 24 24 27 27 26 22 23 22 23 25 32 39 44 47 55 62 66 71 74 77 84 86 99 99 97 98 100 100 100 100 100 94 87 88 97 100 98 98 100 100 100 100
33 25 22 26 26 22 18 14 15 16 16 18 20 19 20 25 31 38 44 48 52 57 66 75 82 86 90 99 98 99 100 100 100 100 99 100 99 100 99 98 99 100 97
36 24 24 28 29 25 22 22 19 19 17 19 19 19 21 22 24 26 25 24 25 34 49 55 58 63 72 82 92 98 99 100 100 100 100 99 99 100 100 100 98 100 92
41 33 33 38 33 32 30 32 30 22 23 25 25 25 23 23 23 24 25 26 27 29 31 29 36 54 59 59 64 77 98 100 99 99 99 100 100 100 100 100 100 96 90
43 32 32 37 42 47 43 35 32 32 30 35 35 35 36 32 28 29 31 28 31 33 33 35 38 39 37 45 70 78 88 96 100 99 100 100 100 100 99 100 100 100 90
38 36 43 45 46 43 37 33 29 25 28 32 33 34 38 39 43 44 46 46 47 44 41 44 48 50 51 50 45 60 82 87 92 100 99 100 100 100 100 100 100 90 72
37 42 48 45 38 31 27 26 23 25 29 25 26 28 31 33 35 36 41 46 52 66 88 92 66 58 54 59 68 64 73 90 81 86 100 100 98 100 100 100 100 85 79
37 38 36 33 26 20 18 17 17 17 17 21 27 31 30 33 38 43 43 47 55 64 88 96 99 100 93 79 79 79 73 80 97 86 82 95 99 100 99 100 91 95 85
23 22 26 20 15 14 13 14 15 15 19 22 25 26 33 43 49 54 48 67 88 93 71 97 100 100 99 94 80 82 85 77 83 99 100 94 97 95 99 99 93 100 100
15 12 14 19 24 23 18 15 17 23 28 30 33 34 36 43 50 52 51 54 83 100 100 100 99 98 99 96 88 81 86 86 88 88 94 98 100 100 99 98 98 97 100
18 19 18 19 23 24 25 30 39 65 85 88 81 89 96 78 80 96 99 100 100 100 100 100 100 100 100 98 92 83 96 96 95 94 84 87 97 100 100 100 96 99 95
19 22 26 32 38 48 50 66 63 87 99 93 85 90 93 84 70 71 92 100 100 100 100 100 100 100 100 100 86 99 99 100 100 100 100 100 94 100 100 100 100 98 99
26 29 33 38 45 46 48 63 70 92 95 90 85 78 77 74 70 67 83 98 94 100 100 98 99 100 99 100 97 90 100 100 100 100 100 100 100 100 100 100 100 99 100
28 34 43 49 52 51 51 60 67 81 89 81 81 80 92 85 83 90 71 86 82 88 91 98 100 98 99 98 99 84 91 100 100 100 100 98 100 100 100 98 99 98 99

GFSMW_850_rhum_120.txt.gz
RH
35 36 34 26 15 16 27 30 51 52 48 47 49 57 54 58 64 68 74 78 75 72 78 99 99 100 86 74 89 88 80 78 58 74 72 73 78 80 77 80 79 79 80
47 37 31 27 29 17 22 35 51 49 44 40 43 69 73 78 78 80 84 78 80 79 70 78 100 99 76 82 87 85 84 74 72 80 87 89 82 79 77 79 83 81 80
44 32 28 25 26 28 24 52 51 44 34 30 53 81 96 99 96 83 85 89 89 96 90 77 85 99 66 48 68 81 79 70 72 84 88 90 84 72 72 75 82 81 81
39 41 47 45 32 60 63 52 46 43 31 43 74 84 98 94 85 87 82 95 99 100 93 91 84 96 69 72 74 79 68 75 78 88 92 87 80 80 74 72 77 77 82
62 49 58 69 67 69 65 74 87 73 76 97 100 97 88 85 84 83 97 99 98 99 92 99 99 97 77 61 51 66 73 77 84 85 89 89 91 86 81 77 75 80 80
70 62 67 78 75 84 95 96 89 78 79 88 93 88 88 96 88 98 100 99 95 98 99 100 100 98 86 90 84 76 77 78 82 84 74 78 84 88 85 85 82 89 83
90 83 93 100 99 92 87 88 85 76 81 86 88 85 100 100 94 100 100 100 100 100 100 100 93 95 93 91 82 81 73 81 82 72 68 70 72 80 81 89 70 84 86
100 100 95 100 99 97 97 100 97 99 98 100 94 100 100 99 95 91 97 94 96 90 97 91 90 100 100 98 84 89 84 84 85 80 74 78 80 84 85 84 76 94 98
100 98 99 98 96 86 99 100 100 100 100 100 100 100 100 100 98 92 87 83 88 93 100 100 95 93 82 85 84 81 85 80 73 83 93 90 87 83 84 86 84 90 100
96 90 78 86 93 87 91 93 98 97 96 99 99 100 100 100 100 100 100 99 99 94 92 91 90 96 98 93 97 92 87 98 100 97 97 100 93 92 91 96 97 98 100
55 56 46 57 54 44 44 51 56 69 71 76 84 96 99 100 100 100 100 100 100 99 95 96 90 95 90 95 93 91 90 87 84 81 87 91 88 100 95 92 89 92 100
41 42 39 40 37 34 29 24 24 29 36 40 47 56 68 74 84 90 94 96 95 93 95 95 99 100 100 99 98 92 85 88 94 76 97 93 97 99 95 92 93 95 99
31 32 32 34 33 31 29 25 21 19 19 17 17 20 25 30 35 42 49 57 62 65 70 76 82 89 99 100 100 100 100 100 100 93 88 82 99 99 99 100 98 100 100
35 30 27 28 30 32 34 29 28 28 25 21 18 17 15 15 17 18 18 19 21 24 30 38 47 56 65 72 76 81 90 96 98 97 99 99 100 99 100 100 99 100 100
41 26 26 29 28 27 27 28 26 24 26 26 21 19 19 19 18 17 18 18 20 21 25 27 28 27 29 37 53 60 64 70 77 93 98 99 100 99 100 100 100 100 100
48 32 26 29 26 23 23 24 23 22 20 17 16 17 16 14 13 14 14 15 15 18 19 22 26 29 32 36 38 40 48 69 79 93 97 98 89 94 96 100 100 100 100
48 33 32 38 35 31 30 27 25 26 29 35 31 24 20 20 20 20 19 21 20 19 19 20 23 27 30 34 44 49 56 55 58 83 89 90 94 96 96 98 99 100 100
45 33 33 36 34 32 29 29 29 29 28 24 20 21 20 22 22 21 20 23 23 25 34 44 58 48 37 43 54 65 71 69 66 60 87 95 85 87 96 100 100 98 100
44 32 37 43 37 31 30 27 23 18 18 15 17 19 22 21 18 15 16 21 26 26 31 41 51 56 63 92 52 76 89 89 79 71 62 84 96 99 92 100 100 99 98
32 39 44 40 32 26 23 20 17 14 12 15 19 23 23 20 19 22 27 32 36 38 40 41 48 64 80 82 96 82 95 100 100 98 92 65 88 100 100 100 100 100 98
35 38 37 33 27 25 22 20 17 14 16 16 18 19 21 26 34 40 46 50 53 51 48 51 53 61 86 90 96 96 89 100 100 98 100 99 86 100 99 100 100 97 100
29 27 26 24 22 23 20 12 12 14 14 14 16 18 24 31 38 45 46 49 61 88 97 95 84 87 100 100 100 100 89 99 100 100 99 100 100 81 98 100 99 100 100
22 22 20 23 24 20 16 16 18 17 15 16 19 33 42 49 63 90 98 100 100 100 100 100 100 100 100 97 100 100 90 84 99 100 99 100 99 81 96 100 100 100 100
22 23 22 17 18 18 20 21 23 24 30 36 60 72 71 87 100 100 100 100 100 100 100 100 100 100 94 86 94 100 97 90 93 99 99 99 100 96 99 100 100 100 100
19 18 17 16 19 20 24 30 34 37 47 64 74 82 99 100 100 95 99 100 98 100 100 100 100 100 98 93 98 99 99 100 99 98 99 100 99 99 100 100 100 100 100
16 15 14 16 22 27 30 32 34 48 72 82 95 100 100 100 100 100 78 86 81 70 76 88 100 100 98 98 98 99 100 100 100 100 99 99 100 99 100 100 99 100 100

GFSMW_850_rhum_123.txt.gz
RH
51 53 39 35 32 29 21 18 25 32 48 54 51 48 42 37 38 40 48 60 65 68 71 75 84 80 74 81 99 99 86 80 84 98 89 67 63 67 63 71 78 78 77
46 48 46 36 34 27 23 16 20 28 44 49 44 40 36 34 42 53 57 69 76 75 79 78 85 89 85 97 98 100 73 77 77 91 98 94 72 67 63 72 78 78 80
66 44 39 36 30 29 27 15 16 25 42 48 44 39 37 49 76 68 59 52 64 68 73 73 86 99 98 99 96 99 92 82 81 85 87 89 87 68 62 63 76 78 80
65 63 43 41 43 32 26 25 25 53 52 48 43 36 42 96 98 97 80 72 69 75 76 79 91 98 100 100 99 94 83 79 80 79 87 91 86 81 70 64 61 72 74
80 75 63 70 100 77 72 78 81 66 50 42 39 63 99 98 100 94 81 67 76 92 96 94 99 100 100 98 100 95 74 69 84 62 75 82 94 94 89 78 69 70 71
100 98 98 97 97 96 93 90 79 68 62 76 92 100 100 99 94 76 80 75 96 98 99 97 100 100 100 99 99 98 71 87 76 55 76 76 84 91 92 85 78 72 68
96 100 99 99 90 89 90 86 73 63 66 79 84 86 94 95 99 92 99 99 99 100 99 99 98 98 99 100 99 91 82 73 80 75 74 70 80 84 74 76 76 77 75
100 100 99 98 100 100 99 99 97 98 95 96 88 95 97 100 100 100 98 98 95 98 94 97 100 100 100 100 100 93 91 98 97 91 86 85 80 82 84 87 90 93 86
90 94 96 100 87 90 100 100 100 100 100 100 99 100 100 100 100 100 100 100 100 95 100 100 100 96 95 99 97 98 97 99 87 84 92 95 90 81 81 81 84 87 99
83 82 87 68 67 73 86 95 97 98 100 100 100 100 100 100 100 99 100 98 99 99 100 100 99 100 100 100 98 92 88 79 80 83 85 88 88 88 86 86 91 97 100
52 50 49 52 49 48 41 72 52 78 75 76 94 99 100 100 100 100 100 100 99 100 100 100 100 100 100 99 98 100 100 98 100 100 97 84 81 79 80 95 95 98 100
52 52 45 38 37 39 38 37 29 24 26 27 30 36 48 49 61 66 70 71 71 74 77 77 78 83 97 100 100 100 100 100 100 97 92 88 98 97 98 94 82 98 96
42 47 45 41 39 32 24 25 26 26 22 19 18 17 16 15 15 16 16 16 18 20 22 27 32 38 47 60 76 83 92 98 99 98 99 100 100 100 100 88 89 95 100
44 41 43 45 43 37 32 26 23 19 17 14 13 11 11 11 11 11 10 10 10 10 10 12 12 14 16 18 20 26 37 49 58 66 76 79 89 97 100 100 99 94 99
51 35 33 34 29 25 24 24 22 19 18 14 12 11 11 11 10 10 10 9 9 9 9 9 9 10 11 13 16 20 24 26 26 26 44 63 70 81 97 99 100 99 98
54 40 29 28 26 23 22 20 17 16 17 17 17 18 16 14 12 10 10 10 8 8 8 11 11 11 12 12 14 18 25 32 39 40 39 38 46 76 74 94 100 100 100
55 44 25 25 24 20 20 18 18 18 18 18 16 16 16 16 16 17 18 18 18 20 22 22 24 24 22 24 25 25 25 28 37 47 52 50 46 47 95 90 96 100 100
54 45 29 28 24 22 22 21 21 22 20 20 20 20 19 18 19 18 19 20 22 24 23 22 24 29 33 42 51 50 53 52 48 55 65 72 65 57 59 99 100 98 98
50 42 24 25 25 26 26 25 22 21 21 19 18 17 16 16 15 14 15 19 17 19 23 29 32 37 39 54 73 94 88 68 80 100 100 100 99 99 88 94 99 99 98
47 26 26 28 32 34 32 27 23 20 17 16 17 19 20 19 21 25 28 31 34 35 40 36 40 45 47 56 64 100 100 99 100 98 99 100 100 98 98 99 99 99 97
25 24 29 34 38 36 33 26 20 16 16 18 19 21 25 24 24 26 32 36 38 40 43 45 52 59 63 57 62 75 100 99 98 99 97 90 95 96 88 99 92 100 99
22 26 31 34 33 29 25 22 19 18 19 19 21 19 20 23 24 28 29 34 48 50 46 60 61 59 73 93 87 87 99 100 100 98 99 99 81 100 94 93 95 97 100
24 28 29 29 28 27 27 26 20 18 19 18 16 17 20 22 24 28 33 44 65 96 100 100 100 100 98 98 94 99 99 100 99 100 100 100 99 100 98 99 91 99 100
23 26 27 27 29 29 27 23 19 18 17 18 18 17 17 21 34 55 91 100 100 100 100 100 100 99 100 100 100 99 98 100 100 98 100 100 99 100 100 100 95 99 100
23 23 25 26 26 24 22 18 15 15 17 19 19 19 29 58 97 100 100 100 100 100 100 100 100 100 100 100 100 100 100 99 100 99 100 100 93 95 96 98 100 100 100
25 21 24 26 26 26 23 20 20 23 25 23 23 28 56 96 100 100 64 86 93 83 74 80 94 99 100 100 97 100 100 100 100 99 100 99 99 97 99 99 100 99 100